[[{"header":{"parameterUnit":"m.s-1","parameterCategory":1,"la1":30.6,"la2":29.2853,"lo1":-89.7004,"lo2":-87.6739,"dy":0.0162,"dx":0.0183,"nx":112,"ny":82,"refTime":"2024-02-25T18:00:00:Z","depth":0,"parameterNumber":2,"parameterNumberName":"U-component_of_WINDS"},"data":[0.0,0.0,0.0,0.0,0.0,0.0,0.0,0.0,0.0,0.0,0.0,0.0,0.0,0.0,0.0,0.0,0.0,0.0,0.0,0.0,0.0,0.0,0.0,0.0,0.0,0.0,0.0,0.0,0.0,0.0,0.0,0.0,0.0,0.0,0.0,0.0,0.0,0.0,0.0,0.0,0.0,0.0,0.0,0.0,0.0,0.0,0.0,0.0,0.0,0.0,0.0,0.0,0.0,0.0,0.0,0.0,0.0,0.0,0.0,0.0,0.0,0.0,0.0,0.0,0.0,0.0,0.0,0.0,0.0,0.0,0.0,0.0,0.0,0.0,0.0,0.0,0.0,0.0,0.0,0.0,0.0,0.0,0.0,0.0,0.0,0.0,0.0,0.0,0.0,0.0,4.275,4.325,4.329,4.329,4.327,4.327,4.327,4.321,0.0,0.0,0.0,0.0,0.0,0.0,0.0,0.0,0.0,0.0,0.0,0.0,0.0,0.0,0.0,0.0,0.0,0.0,0.0,0.0,0.0,0.0,0.0,0.0,0.0,0.0,0.0,0.0,0.0,0.0,0.0,0.0,0.0,0.0,0.0,0.0,0.0,0.0,0.0,0.0,0.0,0.0,0.0,0.0,0.0,0.0,0.0,0.0,0.0,0.0,0.0,0.0,0.0,0.0,0.0,0.0,0.0,0.0,0.0,0.0,0.0,0.0,0.0,0.0,0.0,0.0,0.0,0.0,0.0,0.0,0.0,0.0,0.0,0.0,0.0,0.0,0.0,0.0,0.0,0.0,0.0,0.0,0.0,0.0,0.0,0.0,0.0,0.0,0.0,0.0,0.0,0.0,0.0,0.0,0.0,0.0,0.0,0.0,0.0,0.0,0.0,0.0,0.0,0.0,4.322,4.329,4.329,4.323,4.3041,4.321,4.315,4.2809,0.0,0.0,0.0,0.0,0.0,0.0,0.0,0.0,0.0,0.0,0.0,0.0,0.0,0.0,0.0,0.0,0.0,0.0,0.0,0.0,0.0,0.0,0.0,0.0,0.0,0.0,0.0,0.0,0.0,0.0,0.0,0.0,0.0,0.0,0.0,0.0,0.0,0.0,0.0,0.0,0.0,0.0,0.0,0.0,0.0,0.0,0.0,0.0,0.0,0.0,0.0,0.0,0.0,0.0,0.0,0.0,0.0,0.0,0.0,0.0,0.0,0.0,0.0,0.0,0.0,0.0,0.0,0.0,0.0,0.0,0.0,0.0,0.0,0.0,0.0,0.0,0.0,0.0,0.0,0.0,0.0,0.0,0.0,0.0,0.0,0.0,0.0,0.0,0.0,0.0,0.0,0.0,0.0,0.0,0.0,0.0,0.0,0.0,0.0,0.0,0.0,0.0,0.0,4.3938,4.4237,4.3878,4.4177,4.4305,4.4121,4.4162,4.408,4.3741,4.3885,0.0,0.0,0.0,0.0,0.0,0.0,0.0,0.0,0.0,0.0,0.0,0.0,0.0,0.0,0.0,0.0,0.0,0.0,0.0,0.0,0.0,0.0,0.0,0.0,0.0,0.0,0.0,0.0,0.0,0.0,0.0,0.0,0.0,0.0,0.0,0.0,0.0,0.0,0.0,0.0,0.0,0.0,0.0,0.0,0.0,0.0,0.0,0.0,0.0,0.0,0.0,0.0,0.0,0.0,0.0,0.0,0.0,0.0,0.0,0.0,0.0,0.0,0.0,0.0,0.0,0.0,0.0,0.0,0.0,0.0,0.0,0.0,0.0,0.0,0.0,0.0,0.0,0.0,0.0,0.0,0.0,0.0,0.0,0.0,0.0,0.0,0.0,0.0,0.0,0.0,0.0,0.0,0.0,0.0,0.0,0.0,0.0,0.0,0.0,0.0,0.0,0.0,4.4553,4.495,4.4504,4.4881,4.5075,4.4908,4.4908,4.4782,4.4485,4.4507,0.0,0.0,0.0,0.0,0.0,0.0,0.0,0.0,0.0,0.0,0.0,0.0,0.0,0.0,0.0,0.0,0.0,0.0,0.0,0.0,0.0,0.0,0.0,0.0,0.0,0.0,0.0,0.0,0.0,0.0,0.0,0.0,0.0,0.0,0.0,0.0,0.0,0.0,0.0,0.0,0.0,0.0,0.0,0.0,0.0,0.0,0.0,0.0,0.0,0.0,0.0,0.0,0.0,0.0,0.0,0.0,0.0,0.0,0.0,0.0,0.0,0.0,0.0,0.0,0.0,0.0,0.0,0.0,0.0,0.0,0.0,0.0,0.0,0.0,0.0,0.0,0.0,0.0,0.0,0.0,0.0,0.0,0.0,0.0,0.0,0.0,0.0,0.0,0.0,0.0,0.0,0.0,0.0,0.0,0.0,0.0,0.0,0.0,0.0,0.0,0.0,0.0,4.4744,4.4731,4.4932,4.4773,4.4626,4.4626,4.4626,4.4464,4.4065,4.4237,0.0,0.0,0.0,0.0,0.0,0.0,0.0,0.0,0.0,0.0,0.0,0.0,0.0,0.0,0.0,0.0,0.0,0.0,0.0,0.0,0.0,0.0,0.0,0.0,0.0,0.0,0.0,0.0,0.0,0.0,0.0,0.0,0.0,0.0,0.0,0.0,0.0,0.0,0.0,0.0,0.0,0.0,0.0,0.0,0.0,0.0,0.0,0.0,0.0,0.0,0.0,0.0,0.0,0.0,0.0,0.0,0.0,0.0,0.0,0.0,0.0,0.0,0.0,0.0,0.0,0.0,0.0,0.0,0.0,0.0,0.0,0.0,0.0,0.0,0.0,0.0,0.0,0.0,0.0,0.0,0.0,0.0,0.0,0.0,0.0,0.0,0.0,0.0,0.0,0.0,0.0,0.0,0.0,0.0,0.0,0.0,0.0,0.0,0.0,0.0,0.0,0.0,4.5384,4.5717,0.0,4.565,4.5777,4.5625,4.5603,4.5471,4.5191,0.0,0.0,0.0,0.0,0.0,0.0,0.0,0.0,0.0,0.0,0.0,0.0,0.0,0.0,0.0,0.0,0.0,0.0,0.0,0.0,0.0,0.0,0.0,0.0,0.0,0.0,0.0,0.0,0.0,0.0,0.0,0.0,0.0,0.0,0.0,0.0,0.0,0.0,0.0,0.0,0.0,0.0,0.0,0.0,0.0,0.0,0.0,0.0,0.0,0.0,0.0,0.0,0.0,0.0,0.0,0.0,0.0,0.0,0.0,0.0,0.0,0.0,0.0,0.0,0.0,0.0,0.0,0.0,0.0,0.0,0.0,0.0,0.0,0.0,0.0,0.0,0.0,0.0,0.0,0.0,0.0,0.0,0.0,0.0,0.0,0.0,0.0,0.0,0.0,0.0,0.0,0.0,0.0,0.0,0.0,0.0,0.0,0.0,0.0,0.0,0.0,0.0,4.5153,4.5845,4.6234,0.0,4.6138,4.6314,4.6225,4.6135,4.6046,4.5917,0.0,0.0,0.0,0.0,0.0,0.0,0.0,0.0,0.0,0.0,0.0,0.0,0.0,0.0,0.0,0.0,0.0,0.0,0.0,0.0,0.0,0.0,0.0,0.0,0.0,0.0,0.0,0.0,0.0,0.0,0.0,0.0,0.0,0.0,0.0,0.0,0.0,0.0,0.0,0.0,0.0,0.0,0.0,0.0,0.0,0.0,0.0,0.0,0.0,0.0,0.0,0.0,0.0,0.0,0.0,0.0,0.0,0.0,0.0,0.0,0.0,0.0,0.0,0.0,0.0,0.0,0.0,0.0,0.0,0.0,0.0,0.0,0.0,0.0,0.0,0.0,0.0,0.0,0.0,0.0,0.0,0.0,0.0,0.0,0.0,0.0,0.0,0.0,0.0,0.0,0.0,0.0,0.0,0.0,0.0,0.0,0.0,0.0,0.0,0.0,0.0,0.0,4.618,4.6023,4.5956,4.618,4.6023,4.5978,4.618,4.6001,4.5917,0.0,0.0,0.0,0.0,0.0,0.0,0.0,0.0,0.0,0.0,0.0,0.0,0.0,0.0,0.0,0.0,0.0,0.0,0.0,0.0,0.0,0.0,0.0,0.0,0.0,0.0,0.0,0.0,0.0,0.0,0.0,0.0,0.0,0.0,0.0,0.0,0.0,0.0,0.0,0.0,0.0,0.0,0.0,0.0,0.0,0.0,0.0,0.0,0.0,0.0,0.0,0.0,0.0,0.0,0.0,0.0,0.0,0.0,0.0,0.0,0.0,0.0,0.0,0.0,0.0,0.0,0.0,0.0,0.0,0.0,0.0,0.0,0.0,0.0,0.0,0.0,0.0,0.0,0.0,0.0,0.0,0.0,0.0,0.0,0.0,0.0,0.0,0.0,0.0,0.0,0.0,0.0,0.0,0.0,0.0,0.0,0.0,0.0,0.0,0.0,0.0,0.0,0.0,4.5978,4.5962,4.594,4.5978,4.5962,4.594,4.5978,4.5911,4.5917,4.5917,0.0,0.0,0.0,0.0,0.0,0.0,0.0,0.0,0.0,0.0,0.0,0.0,0.0,0.0,0.0,0.0,0.0,0.0,0.0,0.0,0.0,0.0,0.0,0.0,0.0,0.0,0.0,0.0,0.0,0.0,0.0,0.0,0.0,0.0,0.0,0.0,0.0,0.0,0.0,0.0,0.0,0.0,0.0,0.0,0.0,0.0,0.0,0.0,0.0,0.0,0.0,0.0,0.0,0.0,0.0,0.0,0.0,0.0,0.0,0.0,0.0,0.0,0.0,0.0,0.0,0.0,0.0,0.0,0.0,0.0,0.0,0.0,0.0,0.0,0.0,0.0,0.0,0.0,0.0,0.0,0.0,0.0,0.0,0.0,0.0,0.0,0.0,0.0,0.0,0.0,0.0,0.0,0.0,0.0,0.0,0.0,0.0,0.0,0.0,0.0,0.0,0.0,4.5917,4.5917,4.5917,4.5917,4.5917,4.5917,4.5917,4.5917,4.5917,4.5917,0.0,0.0,0.0,0.0,0.0,0.0,0.0,0.0,0.0,0.0,0.0,0.0,0.0,0.0,0.0,0.0,0.0,0.0,0.0,0.0,0.0,0.0,0.0,0.0,0.0,0.0,0.0,0.0,0.0,0.0,0.0,0.0,0.0,0.0,0.0,0.0,0.0,0.0,0.0,0.0,0.0,0.0,0.0,0.0,0.0,0.0,0.0,0.0,0.0,0.0,0.0,0.0,0.0,0.0,0.0,0.0,0.0,0.0,0.0,0.0,0.0,0.0,0.0,0.0,0.0,0.0,0.0,0.0,0.0,0.0,0.0,0.0,0.0,0.0,0.0,0.0,0.0,0.0,0.0,0.0,0.0,0.0,0.0,0.0,0.0,0.0,0.0,0.0,0.0,0.0,0.0,0.0,0.0,0.0,0.0,0.0,0.0,0.0,0.0,0.0,0.0,0.0,4.5917,4.5917,4.5917,4.5917,4.5917,4.5917,4.5917,4.5917,4.5917,4.5917,0.0,0.0,0.0,0.0,0.0,0.0,0.0,0.0,0.0,0.0,0.0,0.0,0.0,0.0,0.0,0.0,0.0,0.0,0.0,0.0,0.0,0.0,0.0,0.0,0.0,0.0,0.0,0.0,0.0,0.0,0.0,0.0,0.0,0.0,0.0,0.0,0.0,0.0,0.0,0.0,0.0,0.0,0.0,0.0,0.0,0.0,0.0,0.0,0.0,0.0,0.0,0.0,0.0,0.0,0.0,0.0,0.0,0.0,0.0,0.0,4.1833,0.0,0.0,0.0,0.0,0.0,0.0,0.0,0.0,0.0,0.0,0.0,0.0,0.0,0.0,0.0,0.0,0.0,0.0,0.0,0.0,0.0,0.0,0.0,0.0,0.0,0.0,0.0,0.0,0.0,0.0,0.0,0.0,0.0,0.0,0.0,0.0,0.0,0.0,0.0,0.0,0.0,4.5917,4.5917,4.5917,4.5917,4.5917,4.5917,4.5917,4.5917,4.5917,4.5917,4.5917,0.0,0.0,0.0,0.0,0.0,0.0,0.0,0.0,0.0,0.0,0.0,0.0,0.0,0.0,0.0,0.0,0.0,0.0,0.0,0.0,0.0,0.0,0.0,0.0,0.0,0.0,0.0,0.0,0.0,0.0,0.0,0.0,0.0,0.0,0.0,0.0,0.0,0.0,0.0,0.0,0.0,0.0,0.0,0.0,0.0,0.0,0.0,0.0,0.0,0.0,0.0,0.0,0.0,0.0,0.0,0.0,0.0,0.0,0.0,0.0,4.1942,0.0,0.0,0.0,0.0,0.0,0.0,0.0,0.0,0.0,0.0,0.0,0.0,0.0,0.0,0.0,0.0,0.0,0.0,0.0,0.0,0.0,0.0,0.0,0.0,0.0,0.0,0.0,0.0,0.0,0.0,0.0,0.0,0.0,0.0,0.0,0.0,0.0,0.0,0.0,0.0,4.5917,4.5917,4.5917,4.5917,4.5917,4.5917,4.5917,4.5917,4.5917,4.5917,4.5917,0.0,0.0,0.0,0.0,0.0,0.0,0.0,0.0,0.0,0.0,0.0,0.0,0.0,0.0,0.0,0.0,0.0,0.0,0.0,0.0,0.0,0.0,0.0,0.0,0.0,0.0,0.0,0.0,0.0,0.0,0.0,0.0,0.0,0.0,0.0,0.0,0.0,0.0,0.0,0.0,0.0,0.0,0.0,0.0,0.0,0.0,0.0,0.0,0.0,0.0,0.0,0.0,0.0,4.1255,4.1507,4.1639,4.1758,4.2003,4.2284,4.1946,4.2428,4.3407,0.0,0.0,0.0,0.0,0.0,0.0,0.0,0.0,0.0,0.0,0.0,0.0,0.0,0.0,0.0,0.0,0.0,0.0,0.0,0.0,0.0,0.0,0.0,0.0,0.0,4.5917,4.5917,0.0,0.0,0.0,0.0,0.0,0.0,0.0,0.0,0.0,0.0,0.0,0.0,4.604,4.6156,4.6237,4.6237,4.6237,4.6237,4.6237,4.6237,4.6237,4.6237,4.6237,4.6179,0.0,0.0,0.0,0.0,0.0,0.0,0.0,0.0,0.0,0.0,0.0,0.0,0.0,0.0,0.0,0.0,0.0,0.0,0.0,0.0,0.0,0.0,0.0,0.0,0.0,0.0,0.0,0.0,0.0,0.0,0.0,0.0,4.0247,4.0924,0.0,0.0,0.0,0.0,0.0,0.0,0.0,0.0,0.0,0.0,0.0,0.0,0.0,4.1733,4.1953,4.2149,4.2177,4.2066,4.1388,4.1466,4.2139,4.0629,4.0819,4.2273,4.1479,0.0,4.3796,4.437,0.0,0.0,0.0,0.0,0.0,0.0,0.0,0.0,0.0,0.0,0.0,0.0,0.0,0.0,0.0,0.0,0.0,0.0,0.0,0.0,0.0,0.0,4.5917,4.5917,4.5917,4.5917,0.0,4.5917,4.5917,4.5917,4.5917,0.0,0.0,0.0,0.0,0.0,0.0,0.0,4.6685,4.7201,4.7544,4.7544,4.7544,4.7544,4.7544,4.7544,4.7544,4.7544,4.7544,4.7288,4.6714,4.723,0.0,0.0,0.0,0.0,0.0,0.0,0.0,0.0,0.0,0.0,0.0,0.0,0.0,0.0,0.0,0.0,0.0,0.0,0.0,0.0,0.0,0.0,0.0,0.0,0.0,0.0,0.0,0.0,0.0,4.0337,4.1074,4.1373,4.1403,4.1333,0.0,0.0,0.0,0.0,0.0,0.0,0.0,0.0,0.0,4.1236,4.1708,4.1572,4.0796,4.1301,4.1301,4.0773,4.0698,4.0855,4.1211,4.0749,4.1004,4.1722,4.1341,4.1866,4.3027,4.3291,4.3567,4.3962,0.0,0.0,0.0,0.0,4.6734,4.669,4.6469,4.638,0.0,0.0,0.0,0.0,0.0,0.0,0.0,0.0,0.0,0.0,0.0,0.0,0.0,4.5917,4.5917,4.5982,4.633,4.6417,4.633,0.0,4.6156,4.6417,4.6417,0.0,0.0,0.0,0.0,4.7375,4.7375,4.7631,4.7805,4.7805,4.7805,4.7805,4.7805,4.7805,4.7805,4.7805,4.7805,4.7689,4.7375,4.7637,4.7544,0.0,0.0,0.0,0.0,0.0,0.0,0.0,0.0,0.0,0.0,0.0,0.0,0.0,0.0,0.0,0.0,0.0,0.0,0.0,0.0,0.0,0.0,0.0,0.0,0.0,0.0,0.0,0.0,4.1343,4.1626,4.1545,4.1497,4.1293,0.0,0.0,0.0,0.0,0.0,0.0,4.1252,4.1645,4.154,4.0871,4.1404,4.1136,3.9946,4.0641,4.0593,3.9824,4.024,4.0422,4.0448,4.089,4.1098,4.1098,4.1098,4.1423,4.1934,4.2215,4.2338,4.2458,4.4032,4.4479,4.444,4.5953,4.6491,4.6447,4.6202,4.6135,4.609,4.5962,0.0,4.5917,4.5917,0.0,0.0,0.0,0.0,4.5917,4.5917,4.6011,4.6127,4.6127,4.6243,4.6505,4.6946,4.7062,4.694,0.0,4.6766,4.7062,4.7062,0.0,0.0,0.0,0.0,4.8014,4.8014,4.8183,4.8299,4.8299,4.8009,4.7961,4.8275,4.8009,4.7865,4.7865,4.8104,4.7975,4.7224,4.7607,4.7549,4.6943,0.0,0.0,0.0,0.0,0.0,0.0,0.0,0.0,0.0,0.0,0.0,0.0,0.0,0.0,0.0,0.0,0.0,0.0,0.0,0.0,0.0,0.0,0.0,0.0,0.0,0.0,0.0,0.0,0.0,4.1995,4.1757,0.0,0.0,0.0,0.0,4.1013,4.1032,4.0904,4.0649,4.0652,4.0618,4.0455,4.0236,4.0348,4.0818,4.0868,4.0742,4.044,4.0465,4.0491,4.0491,4.0516,4.0516,4.0516,4.0516,4.0542,4.0694,4.1885,4.2804,4.3539,4.4548,4.4944,4.5035,4.5898,4.6225,4.6202,4.6007,4.5917,4.5917,4.5917,4.5917,4.5917,4.5917,4.5917,0.0,0.0,4.5917,4.5917,4.5917,4.633,4.6743,4.6743,4.723,4.7718,4.7747,4.7747,4.7747,0.0,4.7747,4.7747,4.7747,0.0,4.7805,4.7805,4.8304,4.8658,4.8658,4.9204,4.9606,4.9606,4.8638,4.8414,4.9508,4.8589,4.7988,4.7988,4.9014,4.8382,4.5629,4.7121,4.6924,4.4608,4.5151,0.0,0.0,0.0,0.0,0.0,0.0,0.0,0.0,0.0,0.0,0.0,0.0,0.0,0.0,0.0,0.0,0.0,0.0,0.0,0.0,0.0,0.0,0.0,0.0,0.0,0.0,0.0,0.0,4.1211,4.1072,0.0,4.0318,4.0079,3.9841,3.9659,3.9924,4.0071,3.9974,4.0339,4.0527,4.046,4.0695,4.0927,4.1158,4.1492,4.162,4.1541,4.1541,4.1541,4.1541,4.1541,4.1541,4.1541,4.1541,4.1411,4.1306,4.1776,4.1696,4.1419,4.2398,4.2714,4.2738,4.4382,4.4989,4.5081,4.5685,4.5917,4.5917,4.5917,4.5917,4.5917,4.5917,4.6156,4.6482,4.6482,4.6795,4.7137,4.7137,4.7259,4.7433,4.7433,4.7631,4.7921,4.8304,4.8391,4.8508,4.8938,4.8682,4.8391,4.8391,4.8132,4.7921,4.7921,4.7494,4.7151,4.7151,4.7371,4.751,4.751,4.7151,4.7074,4.7485,4.7151,4.6919,4.6919,4.7306,4.7041,4.6021,4.6575,4.6493,4.5644,4.5181,4.5155,0.0,0.0,0.0,0.0,0.0,0.0,0.0,0.0,0.0,0.0,0.0,0.0,0.0,0.0,0.0,0.0,0.0,0.0,0.0,0.0,0.0,0.0,0.0,0.0,0.0,0.0,4.0957,4.054,4.0441,4.0218,3.9707,3.9751,3.9568,3.8984,3.9545,3.9877,3.9751,4.0313,4.0671,4.0773,4.1207,4.1436,4.1436,4.1792,4.2019,4.2117,4.2117,4.2219,4.2397,4.2397,4.2397,4.2397,4.2397,4.2316,4.2128,4.1951,4.1447,4.0895,4.1721,4.1921,4.1971,4.3679,4.4574,4.5049,4.616,4.6556,4.6556,4.6556,4.6556,4.6556,4.6556,4.6824,4.712,4.712,4.7462,4.7805,4.7805,4.795,4.8101,4.8101,4.8299,4.856,4.8943,4.9059,4.9175,4.9606,4.932,4.8909,4.8546,4.8219,4.808,4.8302,4.7351,4.6832,4.7417,4.7129,4.6864,4.6864,4.6544,4.6464,4.6837,4.6518,4.6303,4.6303,4.6678,4.6544,4.5764,4.6088,4.6115,4.5736,4.4843,4.458,4.4994,0.0,0.0,0.0,0.0,0.0,0.0,0.0,0.0,0.0,0.0,0.0,0.0,0.0,0.0,0.0,0.0,0.0,0.0,0.0,0.0,0.0,0.0,0.0,4.0752,4.0658,4.05,4.0106,3.9878,3.9499,3.8901,3.9117,3.9297,3.9246,4.0007,4.0389,4.0159,4.0641,4.105,4.131,4.1583,4.1755,4.1755,4.178,4.1951,4.2288,4.2288,4.2537,4.3065,4.3065,4.3065,4.3065,4.3065,4.3065,4.3014,4.2487,4.2288,4.2295,4.2706,4.284,4.2971,4.4026,4.5156,4.6309,4.7423,4.7805,4.7805,4.7805,4.7805,4.7805,4.7805,4.7805,4.7834,4.7863,4.7863,4.7892,4.7921,4.8362,4.8803,4.8803,4.9291,4.9751,4.9751,4.9751,4.9751,4.9751,4.9727,4.933,4.8201,4.7974,4.8173,4.8813,4.788,0.0,4.9422,4.8625,4.7892,4.7892,4.69,4.6677,4.7783,4.6872,4.6254,4.6254,4.7288,4.69,4.4705,4.5659,4.5716,4.4618,4.4062,4.3394,4.2534,0.0,0.0,0.0,0.0,0.0,0.0,0.0,0.0,0.0,0.0,0.0,0.0,0.0,0.0,0.0,0.0,0.0,0.0,0.0,0.0,0.0,3.9987,3.9941,3.9773,3.975,3.9633,3.9263,3.9192,3.922,3.9424,3.9524,3.9725,4.0101,4.0356,4.0634,4.0958,4.1108,4.1413,4.1924,4.2398,4.2821,4.3224,4.3627,4.3847,4.394,4.394,4.4016,4.4166,4.4166,4.4166,4.4166,4.4166,4.4166,4.4166,4.4016,4.394,4.3793,4.2307,4.1757,4.1971,4.3846,4.5724,4.7376,4.7711,4.7805,4.7805,4.7805,4.7805,4.7805,4.7805,4.8101,4.8566,4.9054,4.9519,5.0013,5.0452,5.066,5.0805,5.0805,5.0921,5.1091,5.1091,5.1091,5.1091,5.1091,5.0376,4.9512,4.8701,4.7564,4.6834,4.7021,4.6076,0.0,4.5974,4.5745,4.5543,4.5543,4.5256,4.5199,4.5514,4.5256,4.5055,4.5055,4.5371,4.5256,4.4618,4.4908,4.4937,4.4618,4.4261,4.3966,0.0,0.0,0.0,0.0,0.0,0.0,0.0,0.0,0.0,0.0,0.0,0.0,0.0,0.0,0.0,0.0,0.0,0.0,0.0,0.0,0.0,0.0,3.9788,3.972,3.9538,3.9335,3.9214,3.9246,3.9245,3.9446,3.9973,4.0049,4.0275,4.08,4.0826,4.1076,4.1656,4.1907,4.2283,4.2864,4.3388,4.3815,4.4141,4.4439,4.4715,4.4995,4.4995,4.5066,4.5292,4.5292,4.5292,0.0,4.5292,4.5292,4.5292,4.507,4.4995,0.0,0.0,0.0,0.0,0.0,4.6848,4.8063,4.9033,4.9378,4.9378,4.9378,4.9378,4.9378,4.9378,4.964,4.9992,5.0394,5.0772,5.1149,5.1501,5.1588,5.1588,5.1588,5.1588,5.1461,5.0972,5.0841,5.0686,5.0192,4.9301,0.0,4.8137,4.707,4.6389,4.668,4.5729,4.5221,4.5977,4.5619,4.5292,4.5292,4.5292,4.5292,4.5292,4.5292,0.0,0.0,0.0,4.5026,4.4908,4.5026,0.0,0.0,0.0,4.4161,4.3767,0.0,0.0,0.0,4.231,4.2343,0.0,0.0,0.0,0.0,0.0,0.0,0.0,0.0,0.0,0.0,0.0,0.0,0.0,0.0,0.0,0.0,4.0216,4.0101,3.975,3.9296,3.917,3.9647,3.9747,3.9973,4.0449,4.0549,4.0826,4.1453,4.1503,4.1781,4.2436,0.0,0.0,0.0,0.0,4.4765,4.4865,4.4865,4.5196,4.5773,4.5773,4.6024,4.6476,4.6476,4.6476,4.6476,4.6476,4.6476,4.6451,4.5974,4.5773,4.5673,4.492,4.4676,4.5055,4.7289,4.8165,4.8624,5.0815,0.0,0.0,5.1588,5.1588,5.1588,5.1588,5.1588,5.1617,5.1675,5.1704,5.1733,5.1791,5.1791,5.1791,5.1791,5.1791,5.1485,5.0257,4.9992,4.9648,4.8464,4.7677,4.7221,4.7221,4.669,4.6505,4.7085,4.6258,4.6138,4.7691,4.6938,4.6301,4.6301,0.0,0.0,4.6301,4.6301,4.6301,4.6301,4.5999,4.5666,4.5361,4.5605,4.5382,4.4588,4.4558,4.4132,4.337,4.3341,4.3221,4.2958,4.3397,4.3443,0.0,0.0,0.0,0.0,0.0,0.0,0.0,0.0,0.0,0.0,0.0,0.0,0.0,0.0,0.0,3.988,3.9829,3.9777,3.9698,3.9597,3.9572,3.9672,4.0099,4.04,4.0474,4.0901,4.1578,4.2585,4.266,4.3087,4.4091,4.4242,4.4568,4.5146,4.5271,4.5748,4.6622,4.6622,4.6873,4.7431,0.0,0.0,4.7606,4.7606,4.7606,4.7606,4.7606,4.7606,4.7581,4.7481,4.7431,4.7255,4.5317,4.517,4.6141,4.7592,4.8678,4.9664,5.11,5.1588,5.1588,5.1588,5.1588,5.1588,5.1588,5.1588,0.0,5.2249,5.2423,5.2539,5.3007,5.3126,5.3126,5.3126,5.3126,5.2809,5.158,5.1337,5.0984,4.9771,4.8638,4.7908,4.7908,4.7008,4.6327,4.6458,4.63,4.6265,4.6606,4.6451,4.6301,4.6301,4.6301,4.6301,4.6301,4.6301,4.6301,4.6301,4.5999,4.5757,4.5696,4.5514,4.5312,4.5153,4.4878,4.4652,4.4494,4.4218,4.4065,4.3979,4.3319,4.2938,0.0,0.0,0.0,0.0,0.0,0.0,0.0,0.0,0.0,0.0,0.0,4.1224,4.0818,0.0,3.993,3.9724,3.9697,3.9697,3.9697,3.9923,4.0099,4.0099,4.035,4.0727,4.1306,4.1831,4.2509,4.3338,4.3639,4.4166,4.502,4.5045,4.5447,4.6276,4.6301,4.6702,4.7475,4.75,4.7626,4.7908,4.7908,4.7908,4.7908,4.7908,4.7908,4.7908,4.7908,4.7908,4.7908,4.7908,4.7908,4.7807,4.6702,4.661,4.7239,4.85,4.9306,5.0069,5.1921,5.2543,5.265,5.329,5.3474,5.3474,5.3474,5.3474,5.3588,5.3907,5.3539,5.3112,5.3426,5.3017,5.2547,5.2547,5.2547,5.2212,5.0997,5.0739,5.0394,4.9137,4.842,4.7995,4.7995,4.7506,4.6928,4.6401,4.6522,4.6697,4.6697,4.6923,4.7104,4.7104,4.7104,4.7104,4.7104,4.6945,4.6699,4.639,4.6112,4.5786,4.5446,4.5202,4.4963,4.481,4.4656,4.4563,4.4563,4.4378,4.4285,4.4292,4.3763,4.3553,0.0,0.0,0.0,0.0,0.0,0.0,0.0,0.0,4.0881,4.1194,4.0826,4.0547,4.0841,4.0236,3.9697,3.9697,3.9697,3.9747,3.9848,4.0249,4.0575,4.0802,4.0827,4.1178,4.2112,4.2788,4.3363,4.3915,4.4439,4.5045,4.5623,4.5748,4.6225,4.7074,4.7199,4.75,4.8083,4.8083,4.8134,4.8234,4.8234,4.8234,4.8234,4.8234,4.8234,4.8234,4.8234,4.8234,4.8234,4.8234,4.8234,4.8234,4.8234,4.8234,4.8365,4.9407,4.9784,5.0116,5.2358,5.3132,5.3302,5.4313,5.484,5.5032,5.5032,5.5197,5.5416,5.5416,5.448,5.3501,5.3501,5.256,5.16,5.16,5.16,5.125,5.0056,4.9784,4.9421,4.8156,4.7908,4.7908,4.7908,4.7908,4.7606,4.6753,4.6973,4.7249,4.7249,4.7626,4.7908,4.7908,4.7908,4.7877,4.7814,4.7495,4.7055,4.6516,4.6284,4.5914,4.5379,4.5126,4.4908,4.4628,4.4628,4.4628,4.4628,4.4628,4.4628,4.4628,4.4628,4.4508,3.9097,3.9437,3.9848,3.988,3.9694,3.9459,0.0,0.0,4.0231,3.9396,4.023,4.0867,4.0032,3.98,3.9697,3.9697,3.9697,3.9873,4.035,4.0449,4.0877,4.1884,4.2009,4.2062,4.2213,4.314,4.394,4.4464,4.507,4.5623,4.6175,4.6647,4.6973,4.7099,4.755,4.8109,4.8693,4.8718,4.8944,4.9414,4.9414,4.9414,4.9414,4.9414,4.9414,4.9414,4.9414,4.9414,4.9414,4.9414,4.9414,4.9414,4.9414,4.9414,4.9449,4.9717,4.9784,4.9996,5.1338,5.1807,5.1836,5.1982,5.279,5.3726,5.3726,5.448,5.5416,5.5416,5.448,5.3501,5.3501,5.256,5.16,5.16,5.16,5.125,5.0056,4.9784,4.9421,4.8156,4.7908,4.7908,4.7908,4.7908,4.7857,4.7757,4.7782,4.7832,4.7832,4.7883,4.7908,4.7908,4.7908,4.7783,4.7464,4.7174,4.6897,4.6834,4.6531,4.6348,4.6253,4.5949,4.5742,4.571,4.571,4.571,4.571,4.571,4.571,4.571,4.571,4.5205,3.8095,3.8428,3.8845,3.8845,3.8971,3.9113,3.9113,3.9572,3.988,3.9448,3.988,4.0185,3.98,3.9697,3.9697,0.0,3.9973,4.0249,4.0449,4.1078,4.1658,4.2135,4.2738,4.314,4.314,4.3815,4.4518,4.507,4.5648,4.62,4.6722,4.6973,4.74,4.8058,4.8309,4.8686,4.9238,4.9296,4.9364,4.959,4.959,4.959,4.959,4.959,4.959,4.959,4.959,4.959,4.959,4.959,4.959,4.959,4.959,4.959,4.9604,4.9666,4.9683,4.9871,5.1119,5.152,5.1672,5.2452,5.3048,5.349,5.349,5.3871,5.4278,5.4278,5.3345,5.2365,5.2365,5.1394,5.0437,5.0437,5.0437,5.0307,4.9777,4.9683,4.9551,4.8982,4.8887,4.8887,4.8887,4.8887,4.8887,4.8887,4.8611,4.841,4.841,4.8686,4.8823,4.8632,4.8409,4.8177,4.779,4.7629,4.7467,4.7272,4.6819,4.6561,4.6561,4.6143,4.5902,4.5902,4.5902,4.5902,4.5902,4.5902,4.5902,4.5902,4.5902,4.5662,3.7504,3.7814,3.8241,3.8241,3.8693,3.912,3.912,3.9421,3.9697,3.9697,3.9697,3.9697,3.9697,3.9697,3.9747,3.9898,4.0249,4.0626,4.0927,4.1683,4.2286,4.2612,4.3341,4.3915,4.4242,4.4618,4.5045,4.5447,4.6125,4.6672,4.7074,4.74,4.7958,4.8768,4.8944,4.922,4.959,4.959,4.959,4.959,4.959,4.959,4.959,4.959,4.959,4.959,4.959,4.959,4.9615,4.9766,4.9816,4.9841,4.9992,5.0067,5.0067,5.0067,4.9866,4.9751,5.0664,5.0954,5.1142,5.2108,5.2662,5.2937,5.2937,5.3211,5.351,5.351,5.2539,5.1492,5.1492,5.0537,4.959,4.959,4.959,4.959,4.959,4.959,4.959,4.959,4.959,4.959,4.959,4.959,4.959,4.959,4.9421,4.9131,4.8917,4.9114,4.9267,4.9105,4.8706,4.8313,4.8026,4.7927,4.7762,4.7497,4.7136,4.6944,4.6944,4.6559,4.6335,4.6335,4.6335,4.6335,4.6335,4.6335,4.6335,4.6335,4.6335,4.6335,3.799,3.8391,3.8869,3.8869,3.9296,3.9672,3.9672,3.9697,3.9697,3.9697,3.9697,3.9697,3.9697,3.9697,3.9873,4.04,4.0474,4.0877,4.1984,4.2187,4.2587,4.3614,4.379,4.4242,0.0,4.5447,4.5472,4.5497,4.6502,4.7074,4.7099,4.8134,4.8768,4.8793,4.9289,4.9565,4.959,4.959,4.959,4.959,4.959,4.959,4.959,4.959,4.959,4.959,4.959,4.959,4.964,5.0167,5.0393,5.0444,5.1021,5.1255,5.1255,5.1255,5.0544,4.9622,4.9654,4.9654,4.9654,4.9719,5.0537,5.1554,5.1554,5.2478,5.351,5.351,5.2539,5.1492,5.1492,5.0537,4.959,4.959,4.959,4.959,4.959,4.959,4.959,4.959,4.959,4.959,4.959,4.959,4.959,4.959,5.0042,5.0037,4.9219,4.8812,4.8739,4.9072,4.8453,4.8026,4.7993,4.7696,4.7497,4.7497,4.7473,4.7473,4.7473,4.7473,4.7449,4.7449,4.7449,4.7449,4.7449,4.7449,4.7449,4.7449,4.7449,4.7449,3.8592,3.9019,3.9446,3.9446,3.9572,3.9697,3.9697,3.9697,3.9697,3.9697,3.9973,4.0249,4.0249,4.0524,4.0826,4.1001,4.1379,4.1758,4.2162,4.2813,4.3416,4.3765,4.4468,0.0,0.0,0.0,0.0,4.6496,4.6898,4.7425,4.8184,4.8592,4.8969,4.9314,4.949,4.959,4.959,4.959,4.959,4.959,4.959,4.959,4.959,4.959,4.9791,5.0142,5.0142,5.0368,5.072,5.0921,5.0996,5.1021,5.1197,5.1306,5.1306,5.1306,5.1079,5.0645,5.0268,5.0142,5.0067,4.9715,4.9886,5.0245,5.0245,5.0563,5.0911,5.0911,5.0594,5.0245,5.0245,4.9918,4.959,4.959,4.959,4.959,4.959,4.9891,5.0142,5.0142,5.0444,5.072,5.072,5.072,5.0654,5.0364,5.0157,5.0074,5.0149,4.9633,4.9298,4.9432,4.9029,4.8725,4.8725,4.8623,4.8555,4.8555,4.8555,4.8555,4.8555,4.8219,4.8026,4.8026,4.769,4.7497,4.7497,4.7497,4.7497,4.7521,4.7858,4.7758,3.9195,3.9446,3.9697,3.9697,3.9697,3.9697,3.9697,3.9697,3.9697,3.9697,4.0124,4.0499,4.0499,4.0951,4.1378,4.1605,4.1959,4.2311,4.2713,4.3363,4.394,4.4367,4.5045,4.5648,0.0,0.0,0.0,4.7048,4.7475,4.8033,4.8768,4.8994,4.9213,4.959,4.959,4.959,4.959,4.959,4.959,4.959,4.959,4.969,4.9891,4.9891,5.0193,5.072,5.072,5.0946,5.1297,5.1498,5.1574,5.1599,5.18,5.1875,5.1875,5.1875,5.1875,5.1749,5.0996,5.072,5.067,5.0318,5.0193,5.0193,5.0193,5.0193,5.0193,5.0193,5.0193,5.0193,5.0193,5.0193,5.0193,5.0193,5.0193,5.0193,5.0193,5.0469,5.0687,5.0555,5.0822,5.1039,5.0905,5.0871,5.0854,5.0817,5.0385,5.0203,5.0486,4.9903,4.946,4.9597,4.9324,4.9119,4.9119,4.9119,4.9119,4.9119,4.9119,4.9119,4.9119,4.8748,4.8579,4.8579,4.8243,4.805,4.805,4.805,4.805,4.8074,4.814,4.7875,3.9697,3.9697,3.9697,3.9697,3.9697,3.9697,3.9697,3.9722,3.9747,3.9747,4.0199,4.0601,0.0,0.0,4.1553,4.2135,4.2263,4.2612,4.3639,4.3815,4.4242,0.0,0.0,0.0,0.0,0.0,0.0,4.7199,0.0,4.8818,4.8843,4.9314,4.959,4.959,4.959,4.959,4.959,4.9615,4.964,4.964,4.9665,4.9967,5.0469,5.0469,5.077,5.1356,5.1356,5.1381,5.1398,5.1925,5.2151,5.2201,5.2694,5.2895,5.2895,5.2895,5.2895,5.2744,5.1724,5.1348,5.1356,5.1331,5.1306,5.1306,5.1306,5.1306,5.1306,5.1306,5.1306,5.1306,5.1306,5.1272,5.1272,5.1306,5.1272,5.1272,5.1272,5.1297,5.1222,5.0804,5.0728,5.0652,5.0247,5.0179,5.0376,5.0926,5.0689,5.0391,5.0278,4.9626,4.9294,4.9601,4.9362,4.9191,4.9191,4.9191,4.9191,4.9191,4.9191,4.9191,4.9191,4.9167,4.9143,4.9143,4.9119,4.9119,4.9119,4.9119,4.9084,4.9016,4.8258,4.79,3.9697,3.9697,3.9697,3.9697,3.9697,3.9697,3.9697,4.0023,4.03,4.03,4.1078,4.1758,4.1758,4.221,0.0,4.2763,4.2788,0.0,4.3714,4.4141,0.0,4.5397,0.0,4.6798,4.7074,4.7883,0.0,0.0,4.8642,4.8994,4.9364,4.9515,4.959,4.959,4.959,4.959,4.959,5.0017,5.0218,5.0218,5.0645,5.0921,5.1071,5.1071,5.1373,5.19,5.19,5.2126,5.2528,5.2619,5.2694,5.2694,5.2845,5.2895,5.2895,5.2895,5.2895,5.2845,5.2569,5.2226,5.1825,5.1423,5.1306,5.1306,5.1306,5.1306,5.1306,5.1306,5.1306,5.1306,5.1306,5.1072,5.0913,5.1239,5.1072,5.0846,5.0846,5.1406,5.1697,5.1027,5.1245,5.1506,5.1403,5.1368,5.1417,5.1564,5.1227,5.0968,5.0951,5.0567,5.0322,5.0392,5.0357,5.0287,5.0287,5.0287,5.0287,5.0287,5.0287,5.0287,5.0287,4.9913,4.9696,4.9696,4.9311,4.9119,4.9119,4.9119,4.881,4.8223,4.8392,4.7875,3.9697,3.9697,3.9697,3.9697,3.9697,3.9747,3.9998,4.03,4.0549,4.08,4.1555,4.2213,4.2213,4.2637,4.3014,0.0,0.0,0.0,4.4091,4.4644,4.5296,0.0,4.6722,0.0,4.7807,4.841,4.8894,0.0,4.917,4.9264,4.9565,4.959,4.959,4.959,4.959,4.9715,4.9967,5.0519,5.0795,5.0795,5.1122,5.1398,5.1649,5.1649,5.195,5.2477,0.0,5.2594,5.2895,5.2895,5.2895,5.2895,5.2895,5.2895,5.2895,5.2895,5.2895,5.2895,5.2895,5.2694,5.2427,5.2101,5.2,5.2,5.2,5.2,5.2,5.2,5.2,5.2,5.2,5.1831,5.1671,5.1763,5.1705,5.1637,5.1467,5.1852,5.2008,5.125,5.1216,5.133,5.133,5.133,5.133,5.133,5.113,5.0989,5.0989,5.0837,5.0696,5.0696,5.0696,5.0696,5.0696,5.0696,5.0696,5.0696,5.0696,5.0696,5.0696,5.0407,5.0274,5.0274,4.995,4.9782,4.9782,4.9469,4.9025,4.8568,4.8233,4.7581,3.9697,3.9697,3.9697,3.9697,3.9747,3.9923,4.0374,4.0626,4.0877,4.1327,4.1882,4.2338,4.2386,4.2788,4.314,4.3215,4.3589,4.4116,4.464,4.5171,4.5899,4.6973,4.7174,4.7631,4.8693,4.8868,4.912,4.9565,4.959,4.959,4.959,4.959,4.9615,4.969,4.9766,5.0042,5.0486,5.1096,5.1431,5.1431,5.1473,5.1749,5.2226,5.2226,5.2477,5.2895,5.2895,0.0,5.2895,5.2895,5.2861,5.2826,5.2826,5.2792,5.2757,5.2757,5.2757,5.2757,5.2757,5.2757,5.2757,5.2861,5.2895,5.2895,5.2861,5.2826,5.2826,5.2826,5.2792,5.2757,5.2826,5.2757,5.2594,5.2377,5.2515,5.2585,5.2283,5.2213,5.197,5.1317,5.0919,5.0696,5.0696,5.0696,5.0696,5.0696,5.0696,5.0696,5.0696,5.0696,5.0696,5.0696,5.0696,5.0696,5.0696,5.0696,5.0696,5.0696,5.0696,5.0696,5.0696,5.0696,5.0696,5.0696,5.0696,5.0625,5.0554,4.983,4.9401,4.915,4.7808,4.7038,3.9697,3.9697,3.9697,3.9697,4.0049,4.04,4.0474,4.1229,4.1934,4.2009,4.2487,4.3014,4.3438,4.3589,4.3815,4.4267,4.4389,4.4694,4.5246,4.5422,4.5899,0.0,4.7475,4.8033,4.8743,4.922,0.0,0.0,0.0,4.959,4.959,4.959,4.9791,5.0268,5.0745,5.1046,5.1122,5.1674,5.1975,5.1975,5.2427,5.2644,5.2744,5.2744,5.2795,5.2895,5.2895,0.0,5.2895,5.2895,5.2757,5.2481,5.2481,5.2273,5.1995,5.1995,5.1995,5.1995,5.1995,5.1995,5.2099,5.2688,5.2895,5.2861,5.2585,5.2481,5.2481,5.2481,5.2273,5.2064,5.2412,5.2005,5.1586,5.1831,5.1691,5.1457,5.1422,5.1201,5.1049,5.1176,5.0919,5.0696,5.0696,5.0696,5.0696,5.0696,5.0696,5.0696,5.0696,5.0696,5.0696,5.0696,5.0696,5.0696,5.0696,5.0696,5.0696,5.0696,5.0696,5.0696,5.0696,5.0696,5.0696,5.0696,5.0696,5.0377,4.9688,4.958,4.8861,4.7589,4.7296,4.6314,3.9697,3.9697,3.9772,4.0049,4.0325,4.0676,4.1229,4.1808,4.2288,4.2562,4.3039,4.3489,4.374,4.4041,4.4288,4.4564,4.4869,4.5171,4.5447,4.5974,4.6652,4.74,4.8033,4.8586,4.9138,4.9439,4.9715,4.9992,0.0,5.0017,5.0017,5.0318,5.0594,5.087,5.1423,5.1699,5.1699,5.2251,5.2528,5.2528,5.277,5.2895,5.2895,5.2895,5.2895,5.2895,5.2895,0.0,5.2895,5.2895,5.2826,5.2654,5.2654,5.2446,5.2134,5.2134,5.1995,5.182,5.182,5.182,5.1855,5.2203,5.2342,5.2308,5.2134,5.2099,5.2099,5.2099,5.196,5.1855,5.2064,5.1796,5.1516,5.1481,5.1341,5.1211,5.1211,5.106,5.0954,5.0919,5.0802,5.0696,5.0696,5.0696,5.0696,5.0696,5.0696,5.0696,5.0696,5.0696,5.0696,5.0696,5.0696,5.0696,5.0696,5.0696,5.0696,5.0696,5.0696,5.0696,5.0696,5.0696,5.0519,5.0068,5.0068,4.9711,4.892,4.8499,4.7918,4.7149,4.6129,4.5122,3.9697,3.9772,3.9973,4.0374,4.0675,4.1103,4.2011,4.2313,4.2487,4.2914,4.3413,4.384,4.3966,4.4443,4.4815,4.4941,4.5372,4.5673,4.5673,4.6496,4.7299,4.7857,4.841,0.0,4.954,4.969,0.0,5.0393,0.0,0.0,5.0619,5.1147,5.1448,5.1448,5.2,5.2277,5.2277,5.2669,5.2895,5.2895,5.2895,5.2895,5.2895,5.2895,5.2895,5.2895,5.2895,0.0,0.0,5.2895,5.2861,5.2792,5.2688,5.2446,5.2109,5.204,5.1855,5.1576,5.1576,5.1576,5.1576,5.1576,5.1681,5.1786,5.1716,5.1681,5.1681,5.1681,5.1611,5.1576,5.1656,5.1611,5.1506,5.1165,5.1095,5.1095,5.1095,5.1095,5.1025,5.0731,5.0696,5.0696,5.0696,5.0696,5.0696,5.0696,5.0696,5.0696,5.0696,5.0696,5.0696,5.0696,5.0696,5.0696,5.0696,5.0696,5.0696,5.0696,5.0696,5.0696,5.0696,5.0696,5.0211,4.9126,4.9342,4.8766,4.7347,4.7002,4.6574,4.6092,4.4537,4.3667,3.9697,4.0049,4.045,4.0501,4.1279,4.206,4.2187,4.2562,4.2939,4.2989,4.3413,4.3966,4.4439,4.502,4.5573,4.6075,4.62,4.6225,4.6225,4.6722,4.7299,4.7857,0.0,0.0,4.954,5.0042,5.0368,5.0386,0.0,0.0,5.1222,5.1724,5.2026,5.2026,5.2578,5.282,5.282,5.287,5.2895,5.2895,5.2895,5.2895,5.2895,5.2895,5.2895,5.2895,5.2895,0.0,0.0,5.2895,5.2723,5.2412,5.2064,5.1656,5.1247,5.0978,5.0837,5.0802,5.0802,5.0802,5.0802,5.0802,5.126,5.1751,5.1376,5.1247,5.1247,5.1247,5.1025,5.0873,5.1201,5.1025,5.0802,5.0731,5.0731,5.0731,5.0731,5.0731,5.0731,5.0696,5.0696,5.0696,5.0696,5.0696,5.0696,5.0696,5.0696,5.0696,5.0696,5.0696,5.0696,5.0696,5.0696,5.0696,5.0696,5.0696,5.0696,5.0696,5.0696,5.0696,5.0696,5.0696,4.9795,4.79,4.8923,4.7667,4.3945,4.4982,4.4553,4.2772,4.258,4.1888,4.0099,4.035,4.0676,4.1356,4.1858,4.2261,4.2612,4.2838,4.309,4.3413,4.3915,4.4468,4.5045,4.5598,4.605,4.6276,4.6301,4.6301,4.6301,4.7054,4.7682,4.7883,4.8711,4.9364,0.0,0.0,5.0695,5.1373,0.0,0.0,5.2277,5.2477,5.2569,5.2569,5.277,5.2895,5.2895,5.2895,5.2895,5.2895,5.2895,5.2895,5.2895,5.2895,5.2895,5.2895,5.2895,0.0,0.0,5.2619,5.2377,5.203,5.1855,5.1551,5.1176,5.106,5.0873,5.0696,5.0696,5.0696,5.0696,5.0696,5.0908,5.1119,5.0943,5.0884,5.0884,5.0884,5.0802,5.0731,5.0873,5.0802,5.0696,5.0696,5.0696,5.0696,5.0696,5.0696,5.0696,5.0696,5.0696,5.0696,5.0696,5.0696,5.0696,5.0696,5.0696,5.0696,5.0696,5.0696,5.0696,5.0696,5.0696,5.0696,5.0696,5.0696,5.0696,5.0696,5.0696,5.0696,5.0696,5.0211,4.9018,4.7023,4.7726,4.6367,4.2769,4.4025,4.3835,4.2273,4.154,4.0958,4.0349,4.06,4.0978,4.1934,4.2338,4.2537,4.2914,4.3014,4.3165,4.3689,4.4242,4.4765,4.5372,4.5949,4.6301,4.6301,4.6301,4.6301,4.6301,4.723,4.7908,4.7908,0.0,4.9665,0.0,5.0494,5.1322,5.2277,0.0,0.0,5.2895,5.2895,5.2895,5.2895,5.2895,5.2895,5.2895,5.2895,5.2895,5.2895,5.2895,5.2895,5.2895,5.2792,5.2757,5.2757,5.2619,0.0,0.0,5.2238,5.2064,5.1786,5.1681,5.1446,5.1176,5.1095,5.0884,5.0696,5.0696,5.0696,5.0696,5.0696,5.0696,5.0696,5.0696,5.0696,5.0696,5.0696,5.0696,5.0696,5.0696,5.0696,5.0696,5.0696,5.0696,5.0696,5.0696,5.0696,5.0696,5.0696,5.0696,5.0696,5.0696,5.0696,5.0696,5.0696,5.0696,5.0696,5.0696,5.0696,5.0696,5.0696,5.0696,5.0696,5.0696,5.0696,5.0696,5.0696,5.0696,5.059,5.0353,4.9795,4.8272,4.5655,4.6292,4.5025,4.1772,4.2675,4.2637,4.1733,4.0509,3.9922,4.0349,4.0876,4.1428,4.2034,4.2587,4.2989,4.3014,4.3014,4.3165,4.3689,4.4242,4.4765,4.5372,4.5949,4.6301,4.6301,4.6301,4.6301,4.6301,4.723,4.7908,4.7908,4.8912,4.9816,5.0336,5.1423,5.2327,5.2845,0.0,0.0,5.2895,5.2895,5.2895,5.2895,5.2895,5.2895,5.2895,5.2895,5.2895,5.2895,5.2895,5.2895,5.2895,5.2585,5.2412,0.0,0.0,0.0,0.0,5.182,5.182,5.1751,5.1376,5.1211,5.1141,5.0837,5.0696,5.0696,5.0696,5.0696,5.0696,5.0696,5.0696,5.0696,5.0696,5.0696,5.0696,5.0696,5.0696,5.0696,5.0696,5.0696,5.0696,5.0696,5.0696,5.0696,5.0696,5.0696,5.0696,5.0696,5.0696,5.0696,5.0696,5.0696,5.0696,5.0696,5.0696,5.0696,5.0696,5.0696,5.0696,5.0696,5.0696,5.0696,5.0696,5.0696,5.0696,5.0696,5.0696,5.0341,4.9544,4.9509,4.7631,4.3604,4.472,4.3739,4.0509,4.0548,4.0548,4.0509,3.9233,3.86,4.0901,4.148,4.206,4.2612,4.2864,4.3014,4.3014,4.3291,4.3689,4.4242,4.4819,4.5397,4.5949,4.62,4.6301,4.6301,4.6301,4.6301,4.6301,4.723,4.7908,4.7908,4.9238,5.0393,0.0,0.0,5.2029,5.2845,0.0,0.0,5.2895,5.2895,5.2895,5.2895,5.2895,5.2895,5.2895,5.2895,5.2895,5.2895,5.2895,5.2895,5.2895,5.255,5.2412,0.0,0.0,0.0,0.0,5.1411,5.1236,5.1049,5.0908,5.0873,5.0873,5.0731,5.0696,5.0696,5.0696,5.0696,5.0696,5.0696,5.0696,5.0696,5.0696,5.0696,5.0696,5.0696,5.0696,5.0696,5.0696,5.0696,5.0696,5.0696,5.0696,5.0696,5.0696,5.0696,5.0696,5.0696,5.0696,5.0696,5.0696,5.0696,5.0696,5.0696,5.0696,5.0282,4.9198,4.9054,4.9054,4.9054,4.9054,4.9509,5.0625,5.0696,5.0483,4.9902,4.989,4.9532,4.8776,4.8209,4.692,4.4757,4.4628,4.321,4.0509,4.0509,4.004,3.9193,3.8798,3.86,4.1505,4.1909,4.2338,4.2864,4.3014,4.3014,4.3014,4.3413,4.3966,4.4489,4.507,4.5648,4.62,4.6301,4.6301,4.6301,4.6301,4.6301,4.6301,4.723,4.7996,4.8327,4.9646,0.0,0.0,5.134,5.1911,0.0,0.0,0.0,5.2688,5.2723,5.2654,5.2481,5.2757,5.2895,5.2895,5.2895,5.2895,5.2895,5.2895,5.2895,5.2895,5.255,5.2342,0.0,0.0,0.0,0.0,5.1025,5.0884,5.0696,5.0696,5.0696,5.0696,5.0696,5.0696,5.0696,5.0696,5.0696,5.0696,5.0696,5.0696,5.0696,5.0696,5.0696,5.0696,5.0696,5.0696,5.0696,5.0696,5.0696,5.0696,5.0696,5.0246,4.9961,5.0554,4.9723,4.9054,4.9688,4.9306,4.8874,4.8874,4.8874,4.8874,4.8874,4.8874,4.8526,4.7521,4.7375,4.7375,4.7375,4.7375,4.774,4.8598,4.9652,5.0033,4.9544,4.8802,4.8018,4.7273,4.6292,4.5079,4.3511,4.3057,4.2022,4.0509,4.0509,3.9844,3.86,3.86,3.86,0.0,4.2263,4.2389,4.2889,4.3014,4.3014,4.3014,4.3438,0.0,4.4489,4.5121,4.5698,4.6225,4.6301,4.6301,4.6301,4.6301,4.6301,4.6301,4.723,4.8209,4.8988,5.0074,0.0,5.0266,5.1147,5.1925,0.0,0.0,0.0,5.2377,5.2377,5.2203,5.182,5.2481,5.2861,5.2861,5.2861,5.2895,5.2895,5.2895,5.2895,5.2895,5.255,5.2203,0.0,0.0,0.0,0.0,5.0696,5.0696,5.0696,5.0696,5.0696,5.0696,5.0696,5.0696,5.0696,5.0696,5.0696,5.066,5.0554,5.0519,5.0519,5.0388,5.0519,5.0696,5.0696,5.0625,5.0519,5.0519,5.0448,5.0377,5.0377,4.9198,4.8526,5.0033,4.8018,4.6344,4.7836,4.6935,4.5878,4.5878,4.5878,4.5878,4.5878,4.5878,4.5841,4.5729,4.5729,4.5729,4.5729,4.5692,4.558,4.5313,4.7704,4.9162,4.909,4.7338,4.5915,4.5095,4.4004,4.2519,4.0666,4.0548,4.047,4.0353,4.0353,3.9765,3.86,3.86,3.8618,4.2537,0.0,4.2838,4.2964,4.3014,4.3014,0.0,4.374,4.4439,4.4564,4.5422,4.615,4.6276,4.6301,4.6301,4.6301,4.6301,4.6301,4.6301,4.723,4.8209,4.8988,5.0074,5.0679,5.0578,5.1053,5.1516,0.0,0.0,5.1621,5.1925,5.196,5.189,5.182,5.2273,5.2515,5.2515,5.2515,5.2654,5.2895,5.2895,5.2895,5.2895,5.255,5.2203,0.0,0.0,0.0,5.0696,5.0696,5.0696,5.0696,5.0696,5.0696,5.0696,5.0696,5.0696,5.0696,5.0696,5.0696,5.0483,4.9234,4.8874,4.8634,4.7411,4.8766,5.0696,5.0696,4.9795,4.8874,4.8874,4.7945,4.7045,4.7045,4.6751,4.6566,4.6971,4.6433,4.5989,4.6396,4.6159,4.5878,4.5878,4.5878,4.5878,4.5878,4.5878,4.5453,4.4214,4.4063,4.4063,4.4063,4.3777,4.4058,4.5201,4.593,4.5893,4.4961,4.4473,4.3853,4.3057,4.2751,4.2368,4.1888,4.0958,4.0001,3.9035,3.9035,3.8877,3.86,3.86,3.8765,4.2788,4.3014,4.3014,4.3014,4.3014,4.3014,4.3014,4.384,4.4589,4.4589,4.5493,4.6301,4.6301,4.6301,4.6301,4.6301,4.6301,4.6476,4.6979,4.7782,4.8521,4.9125,4.9924,5.045,0.0,5.0819,5.1201,0.0,0.0,5.1306,5.1516,5.1516,5.1446,5.1295,5.1506,5.189,5.2387,5.255,5.2654,5.2688,5.2826,5.2826,5.2688,5.2654,5.2342,0.0,0.0,0.0,5.0696,5.0696,5.0696,5.0696,5.0696,5.0696,5.0696,5.0696,5.0696,5.059,4.983,4.9126,4.8345,4.7485,4.7192,4.7045,4.6137,4.7118,4.849,4.849,4.7872,4.7192,4.7192,4.6544,4.5878,4.5878,4.5341,4.4982,4.5729,4.4779,4.3949,4.4666,4.4214,4.3743,4.3743,4.3743,4.3743,4.3743,4.3743,4.3439,4.2542,4.2427,4.2427,4.2427,4.206,4.2079,4.2749,4.2652,4.2805,4.3453,4.2634,4.1925,4.1501,4.0919,4.0607,4.0607,3.9962,3.9312,3.86,3.8783,3.8875,3.8875,3.9098,3.93,4.2864,4.3014,4.3014,4.3014,4.3014,4.3014,4.3014,4.384,4.4589,4.4589,4.5493,4.6301,4.6301,4.6301,4.6301,4.6301,4.6316,4.6656,4.7627,4.8252,4.8803,4.9173,4.9695,0.0,5.036,5.0594,5.0943,0.0,0.0,5.113,5.113,5.113,5.0989,5.0696,5.0802,5.133,5.2308,5.2585,5.2654,5.2481,5.2757,5.2757,5.2481,5.2792,5.2515,5.182,0.0,0.0,5.0696,5.0696,5.0696,5.0696,5.0696,5.0696,5.066,5.0448,5.0317,5.0104,4.849,4.7045,4.5841,4.5617,4.5543,4.5468,4.5266,4.5191,4.5191,4.5191,4.5356,4.5543,4.5543,4.5378,4.5191,4.5191,4.4138,4.3515,4.4891,4.3078,4.1579,4.2905,4.21,4.1211,4.1211,4.1211,4.1211,4.1211,4.1211,4.1211,4.1211,4.1211,4.1172,4.1094,4.0685,4.0255,3.9823,3.943,4.0217,4.2576,4.1132,4.0197,4.0197,3.9193,3.86,3.86,3.8655,3.8692,3.8692,3.9095,3.9318,3.9336,3.9726,3.9909,4.2864,4.3014,4.3014,4.3014,4.3014,4.3014,4.3014,4.384,4.4589,4.4589,4.5493,4.6301,4.6301,4.6301,4.6301,4.6301,4.6429,4.6675,4.7012,0.0,4.8125,4.8807,0.0,4.986,5.036,5.0594,5.0731,0.0,0.0,5.0767,5.0767,5.0767,5.0731,5.0696,5.1295,5.1716,5.189,5.196,5.2273,5.2826,5.2895,5.2861,5.2826,5.2895,5.2515,5.182,0.0,5.1401,5.0696,5.0696,5.0696,5.0696,5.0696,5.0696,5.0519,4.9162,4.867,4.8417,4.6824,4.61,4.5655,4.4327,4.3873,4.3608,4.2331,4.1927,4.1927,4.1927,4.2887,4.3873,4.3873,4.2925,4.1927,4.1927,4.1734,4.1618,4.1889,4.154,4.1288,4.1502,4.1366,4.1211,4.1211,4.1211,4.1211,4.1211,4.1211,4.1211,4.1211,4.1211,4.1055,4.0627,4.0255,3.9823,3.943,3.8956,3.8917,3.9333,3.9056,3.8877,3.8877,3.8719,3.86,3.86,3.893,3.9095,3.9095,3.9597,3.9781,3.9781,3.9854,4.0074,4.2939,4.3014,4.3014,4.3014,4.3014,4.309,4.3363,4.4041,4.469,4.502,4.5748,4.6301,4.6301,4.6301,4.6371,4.6672,4.7051,4.7383,4.7608,4.8095,4.8641,0.0,0.0,4.9913,5.0739,5.0739,5.0767,0.0,0.0,0.0,5.0696,5.0696,5.0696,5.0696,5.1201,5.1586,5.182,5.203,5.2308,5.2654,5.2826,5.2826,5.2654,5.2826,5.2515,5.182,0.0,5.1401,5.0625,4.9759,4.9401,4.9329,4.8453,4.8127,4.8018,4.7265,4.6433,4.558,4.487,4.4063,4.3248,4.2503,4.2254,4.2139,4.1385,4.1211,4.1211,4.1211,4.1734,4.2254,4.2254,4.1734,4.1211,4.1211,4.1211,4.1211,4.1211,4.1211,4.1211,4.1211,4.1211,4.1211,4.1211,4.1211,4.1211,4.1211,4.1211,4.1211,4.1211,4.0958,4.0763,4.0509,3.9941,3.9509,3.9312,3.8877,3.86,3.86,3.86,3.86,3.86,3.8801,3.8911,3.8911,3.9355,3.9597,3.9557,4.0019,4.0221,4.0221,4.0442,4.0644,4.3014,4.3014,4.3014,4.3014,4.3014,4.314,4.3689,4.4188,4.4765,4.5372,4.5924,4.6301,4.6301,4.6301,4.6502,4.7023,4.7488,4.7883,4.8107,4.8556,4.901,4.9417,4.9495,4.9907,5.0974,5.0873,5.0802,0.0,0.0,0.0,5.0696,5.0837,5.0908,5.0837,5.1236,5.1621,5.196,5.2342,5.2515,5.2515,5.2792,5.2757,5.2515,5.2688,5.2412,5.1786,5.1716,5.1095,5.0033,4.8802,4.8091,4.7594,4.6381,4.5655,4.5319,4.5319,4.4327,4.2943,4.2943,4.2177,4.1211,4.1211,4.1211,4.1211,4.1211,4.1211,4.1211,4.1211,4.1211,4.1211,4.1211,4.1211,4.1211,4.1211,4.1211,4.1211,4.1211,4.1211,4.125,4.1348,4.1328,4.1328,4.1328,4.1328,4.1328,4.123,4.1211,4.1172,4.1055,4.0705,4.047,4.037,3.9798,3.9459,3.9433,3.9114,3.8893,3.8893,3.8783,3.8783,3.8875,3.9208,3.9373,3.9373,3.9817,4.0038,4.0038,4.0442,4.0644,4.0662,4.0956,4.1102,4.3014,4.3014,4.3014,4.3014,4.3014,4.314,4.3689,4.4188,4.4765,4.5372,4.5924,4.6301,4.6301,4.6301,4.6502,4.7023,4.7271,4.7505,4.7698,0.0,4.8349,4.9067,4.9153,4.9562,5.0635,5.0696,5.0696,0.0,0.0,0.0,5.0731,5.1365,5.1551,5.1176,5.19,5.2342,5.2377,5.2688,5.2861,5.2861,5.2895,5.2895,5.2861,5.2585,5.2203,5.1786,5.1411,5.0198,4.8453,4.8345,4.7411,4.6063,4.5952,4.5004,4.3684,4.3684,4.2695,4.1366,4.1366,4.1288,4.1211,4.1211,4.1211,4.1211,4.1211,4.1211,4.1211,4.1211,4.1211,4.1211,4.1211,4.1211,4.1211,4.1211,4.1211,4.1211,4.1211,4.1211,4.1328,4.168,4.1758,4.1758,4.1758,4.1758,4.1621,4.1269,4.1211,4.1055,4.0627,4.0509,4.0349,3.9973,3.989,3.9857,3.9844,3.984,3.9799,3.9799,3.9392,3.9355,3.9781,3.9817,3.9836,3.9836,4.0258,4.046,4.0478,4.0864,4.1066,4.1066,4.1084,4.1102,4.3014,4.3014,4.3014,4.3014,4.3014,4.324,4.4116,4.4439,4.4865,4.5799,4.6175,4.6301,4.6301,4.6572,4.6973,4.75,4.7958,4.8344,4.8514,4.8698,4.8971,4.9364,4.9511,4.9958,5.0917,5.1025,5.1095,5.1365,0.0,0.0,5.1401,5.1646,5.1751,5.1586,5.2109,5.2412,5.2412,5.1782,5.1478,5.1478,5.2456,5.2895,5.2861,5.1537,5.0705,5.0246,4.8876,4.7717,4.6751,4.5729,4.4966,4.4327,4.3362,4.2618,4.2062,4.2062,4.1695,4.1211,4.1211,4.1211,4.1211,4.1211,4.1211,4.1211,4.1211,4.1211,4.1211,4.1211,4.1211,4.1211,4.1211,4.1211,4.125,4.1504,4.1562,4.1641,4.1894,4.1953,4.1992,4.2148,4.2187,4.2187,4.2187,4.2187,4.2129,4.1973,4.1715,4.1516,4.1317,4.0838,4.0454,4.0301,4.0036,3.9888,3.9913,3.9891,4.0001,4.0258,3.9891,3.9726,3.9872,4.0129,4.0276,4.0276,4.068,4.0882,4.0882,4.1029,4.1102,4.1102,4.1102,4.1102,4.3014,4.3014,4.3039,4.3215,4.3237,4.3539,4.4644,4.4715,4.4916,4.6075,4.6301,4.6351,4.6522,4.6848,4.7324,0.0,4.8542,4.8835,4.8933,4.9249,4.9525,4.9616,4.999,5.0558,5.1303,5.1411,5.1516,5.1786,0.0,0.0,0.0,5.203,5.2099,5.1995,5.2377,5.2317,5.1841,5.1022,5.0363,4.9878,5.0952,5.1467,5.1397,4.9807,4.8948,4.8588,4.7,4.5878,4.5057,4.3949,4.321,4.2657,4.1618,4.1211,4.1211,4.1211,4.1211,4.1211,4.1211,4.1211,4.1211,4.1211,4.1211,4.1211,4.1211,4.1308,4.1367,4.1367,4.1465,4.1562,4.1562,4.1465,4.1484,4.1894,4.1992,4.207,4.2323,4.2382,4.2421,4.2598,4.2637,4.2637,4.2637,4.2637,4.2578,4.2401,4.204,4.1758,4.1597,4.0949,4.0518,4.0484,4.0368,4.0276,4.0276,4.0276,4.0387,4.068,4.0423,4.0276,4.0276,4.0533,4.0699,4.0699,4.0956,4.1102,4.1102,4.1102,4.1102,4.1102,4.1102,4.1102,4.3014,4.3014,4.314,4.3664,4.379,4.4091,4.5221,4.5045,4.4916,4.6075,4.6296,4.6476,4.6998,4.7124,4.7475,4.8617,4.8818,4.8764,4.8632,4.9372,4.9859,4.9718,5.0494,5.124,5.1747,5.182,5.182,5.182,0.0,0.0,0.0,5.2515,5.2757,5.2387,5.2723,5.2154,5.0611,5.0576,4.9807,4.8263,4.8263,4.8263,4.8263,4.7448,4.7082,4.7045,4.6211,4.4945,4.3456,4.3456,4.258,4.1211,4.1211,4.1211,4.1211,4.1211,4.1211,4.1211,4.1211,4.1211,4.1211,4.1211,4.1211,4.1211,4.1211,4.1465,4.1797,4.1797,4.2109,4.2382,4.2401,4.2129,4.1914,4.2304,4.2401,4.2401,4.2401,4.2401,4.2558,4.3008,4.3127,4.3127,4.3127,4.3127,4.293,4.246,4.204,4.1656,4.1173,4.0746,4.0507,4.052,4.0864,4.1102,4.1102,4.1102,4.1102,4.1102,4.1102,4.1102,4.1102,4.1102,4.1102,4.1102,4.1102,4.1102,4.1102,4.1102,4.1102,4.1102,4.1102,4.1102,4.3014,4.3014,4.314,4.3664,4.379,4.4091,4.5221,4.5347,4.5447,4.615,4.6597,4.6898,4.7074,4.7757,0.0,4.8743,4.9145,4.935,4.9332,4.9966,5.0447,5.0419,5.1088,5.1728,5.2179,5.2238,5.2342,5.255,0.0,0.0,0.0,5.2792,5.2387,5.1163,5.2258,5.1642,4.902,4.8984,4.819,4.6581,4.549,4.6159,4.8226,4.6285,4.5394,4.5303,4.34,4.2331,4.1869,4.1869,4.1618,4.1211,4.1211,4.1211,4.1211,4.1211,4.1211,4.1211,4.1211,4.1211,4.1211,4.1211,4.1211,4.1269,4.1523,4.1699,4.1855,4.2148,4.2284,4.25,4.2812,4.2793,4.2734,4.2851,4.2891,4.2969,4.3262,4.332,4.3359,4.3496,4.3516,4.3516,4.3516,4.3516,4.3394,4.2949,4.2518,4.194,4.1194,4.0985,4.0916,4.0919,4.1029,4.1102,4.1102,4.1102,4.1102,4.1102,4.1102,4.1102,4.1102,4.1102,4.1102,4.1102,4.1102,4.1102,4.1102,4.1102,4.1102,4.1102,4.1102,4.1102,4.3014,4.3165,4.3438,4.3991,4.4292,4.4719,4.5598,4.5824,4.5974,4.6496,4.6873,4.7224,4.7707,4.8335,0.0,4.9095,4.9389,4.9568,4.9501,5.0331,5.0887,5.0817,5.1659,5.2342,5.2585,5.2619,5.2688,5.2895,5.2895,0.0,0.0,5.2327,5.1572,5.0646,5.0917,4.9866,4.7389,4.7352,4.6544,4.4988,4.405,4.4595,4.6381,4.4591,4.3705,4.3477,4.1869,4.1211,4.1211,4.1211,4.1211,4.1211,4.1211,4.1211,4.1211,4.1211,4.1211,4.1211,4.1211,4.1211,4.125,4.1406,4.1426,4.1504,4.1914,4.2168,4.2363,4.2617,4.2812,4.2988,4.3262,4.332,4.332,4.332,4.332,4.3398,4.3652,4.3711,4.3711,4.3711,4.3711,4.3711,4.3711,4.3587,4.338,4.3151,4.2527,4.1882,4.1187,4.1102,4.1102,4.1102,4.1102,4.1102,4.1102,4.1102,4.1102,4.1102,4.1102,4.1102,4.1102,4.1102,4.1102,4.1102,4.1102,4.1102,4.1102,4.1102,4.1102,4.1102,4.1102,4.1102,4.309,4.3463,4.4016,4.4568,4.5146,4.5698,4.62,4.6351,4.6496,4.6998,4.7149,4.7531,4.8617,4.8843,4.9044,4.9515,4.959,4.9564,4.9421,5.0522,5.1239,5.1116,5.2167,5.2895,5.2895,5.2895,5.2895,5.2895,5.2895,0.0,5.2698,5.1373,5.047,5.0162,4.8948,4.7462,4.5714,4.5803,4.5138,4.3615,4.3615,4.3577,4.3539,4.2754,4.2139,4.1734,4.1366,4.1211,4.1211,4.1211,4.1211,4.1211,4.1211,4.1211,4.1211,4.1211,4.1211,4.1211,4.1211,4.123,4.1289,4.168,4.1836,4.1933,4.2363,4.2754,4.3127,4.3125,4.3418,4.3711,4.3711,4.3711,4.3711,4.3711,4.3711,4.3711,4.3711,4.3711,4.3711,4.3711,4.3711,4.3711,4.367,4.3339,4.3068,4.2985,4.2216,4.1504,4.1145,4.1102,4.1102,4.1102,4.1102,4.1102,4.1102,4.1102,4.1102,4.1102,4.1102,4.1102,4.1102,4.1102,4.1102,4.1102,4.1102,4.1102,4.1102,4.1102,4.1102,4.1102,4.1102,4.106,4.3614,4.4016,4.4564,4.5171,4.5723,4.6175,4.6276,4.6622,4.6973,4.7074,4.7425,4.7958,4.8667,4.9145,4.9464,4.9565,4.959,4.9726,5.0114,5.0821,5.144,5.1822,5.2475,5.2895,5.2895,5.2895,5.2895,5.2895,5.2895,0.0,5.1163,5.0787,4.9486,4.6963,4.7827,4.6949,4.4105,4.5303,4.5138,0.0,4.3615,4.3424,4.3119,4.26,4.2005,4.1327,4.125,4.1211,4.1211,4.1211,4.1211,4.1211,4.1211,4.1211,4.1211,4.1211,4.1211,4.1211,4.1211,4.1387,4.168,4.1777,4.2031,4.2383,4.2812,4.3008,4.3185,4.3476,4.3633,4.3711,4.3711,4.3711,4.3711,4.3711,4.3711,4.3711,4.3711,4.3711,4.3711,4.3711,4.3711,4.3587,4.3275,4.3151,4.286,4.2132,4.1546,4.1229,4.1102,4.1102,4.1102,4.1102,4.1102,4.1102,4.1102,4.1102,4.1102,4.1102,4.1102,4.1102,4.1102,4.1102,4.1102,4.1102,4.1102,4.1102,4.1102,4.1102,4.1102,4.1102,4.1102,4.0723,4.4116,4.4618,4.5171,4.5748,4.61,4.6301,4.6301,4.6697,4.7174,4.7425,4.7933,4.8485,4.9063,4.9389,4.959,4.959,4.959,4.9801,5.0464,5.0972,5.1271,5.1117,5.2178,5.2594,5.1851,5.2491,5.2594,5.1851,5.1782,5.1128,4.9593,4.8745,4.7585,4.5952,4.6011,4.525,4.3615,4.4407,4.4407,4.3615,4.3615,4.331,4.2697,4.2313,4.1773,4.1211,4.1211,4.1211,4.1211,4.1211,4.1211,4.1211,4.1211,4.1211,4.1211,4.1211,4.1211,4.1211,4.1211,4.1445,4.1836,4.2031,4.2383,4.2812,4.3242,4.3379,4.3418,4.3633,4.3711,4.3711,4.3711,4.3711,4.3711,4.3711,4.3711,4.3711,4.3711,4.3711,4.3711,4.3711,4.3546,4.3358,4.3151,4.2735,4.2216,4.1504,4.121,4.1102,4.1102,4.1102,4.1102,4.1102,4.1102,4.1102,4.1102,4.1102,4.1102,4.1102,4.1102,4.1102,4.1102,4.1102,4.1102,4.1102,4.1102,4.1102,4.1102,4.1102,4.1102,4.1102,4.1102,4.0596,4.4614,4.5196,4.5748,4.62,4.6301,4.6301,4.6301,4.6772,4.735,4.7832,4.836,4.8969,4.949,4.959,4.959,4.959,4.959,4.9894,5.0697,5.1105,5.1076,5.055,5.1911,5.2421,5.1128,5.2154,5.2258,5.0717,5.0611,4.9807,4.7972,4.6618,4.5788,4.5527,4.4256,4.3615,4.3615,4.3615,4.3577,4.35,4.3424,4.3004,4.2293,4.1966,4.1579,4.1211,4.1211,4.1211,4.1211,4.1211,4.1211,4.1211,4.1211,4.1211,4.1211,4.1211,4.1211,4.123,4.1289,4.1562,4.1973,4.2402,4.2832,4.3242,4.3594,4.3711,4.3711,4.3711,4.3711,4.3711,4.3711,4.3711,4.3711,4.3711,4.3711,4.3711,4.3711,4.3711,4.367,4.3628,4.3214,4.286,4.286,4.2174,4.1504,4.1145,4.1102,4.1102,4.1102,4.1102,4.1102,4.1102,4.1102,4.1102,4.1102,4.1102,4.1102,4.1102,4.1102,4.1102,4.1102,4.1102,4.1102,4.1102,4.1102,4.1102,4.1102,4.1102,4.1018,4.085,4.085,4.0282,4.5347,4.5773,4.6225,4.6301,4.6301,4.6301,4.6301,4.7079,4.7832,4.7883,4.836,4.8969,4.949,4.959,4.959,4.959,4.959,4.9992,5.1088,5.1272,5.1573,5.2435,5.2732,5.2826,5.2594,5.2792,5.2258,5.0717,5.0611,4.9343,4.6396,4.6026,4.5266,4.3936,4.3729,4.3615,4.3615,4.3615,4.3424,4.3081,4.2715,4.2331,4.1889,4.1811,4.1579,4.1211,4.1211,4.1211,4.1211,4.1211,4.1211,4.1211,4.1211,4.1211,4.1211,4.1211,4.1211,4.1269,4.1582,4.1992,4.2422,4.2851,4.3281,4.3633,4.3691,4.3711,4.3711,4.3711,4.3711,4.3711,4.3711,4.3711,4.3711,4.3711,4.3711,4.3711,4.3711,4.3711,4.3587,4.3275,4.2466,4.1882,4.1882,4.1504,4.1145,4.1102,4.1102,4.1102,4.1102,4.1102,4.1102,4.1102,4.1102,4.1102,4.1102,4.1102,4.1102,4.1102,4.1102,4.1102,4.1102,4.1102,4.1102,4.1102,4.1102,4.1102,4.1102,4.1102,4.0681,3.9901,3.9901,3.8947,4.5874,4.6125,4.6301,4.6301,4.6301,4.6301,4.6301,4.7129,4.7908,4.7908,4.8611,4.9314,4.9565,4.959,4.959,4.959,4.959,4.9992,5.1155,5.0519,5.004,5.0279,5.0328,5.0328,5.0328,5.0328,5.0044,4.9343,4.8457,4.6986,4.4725,4.4612,4.4294,4.3615,4.3615,4.3615,4.3615,4.3386,4.3042,4.2659,4.2274,4.1966,4.1773,4.156,4.1366,4.1211,4.1211,4.1211,4.1211,4.1211,4.1211,4.1211,4.1211,4.1211,4.1211,4.1211,4.1211,4.1269,4.166,4.207,4.25,4.293,4.3359,4.3711,4.3711,4.3711,4.3711,4.3711,4.3711,4.3711,4.3711,4.3711,4.3711,4.3711,4.3711,4.3628,4.3421,4.3339,4.3173,4.2466,4.1988,4.1612,4.1378,4.1229,4.1102,4.1102,4.1102,4.1102,4.1102,4.1102,4.1102,4.1102,4.1102,4.1102,4.1102,4.1102,4.1102,4.1102,4.1102,4.1102,4.1102,4.1102,4.1102,4.1102,4.1102,4.1102,4.1102,4.0578,4.0113,3.9689,3.9135,3.8195,4.62,4.6301,4.6301,4.6301,4.6301,4.6301,4.6301,4.7129,4.7908,4.7908,4.8812,4.959,4.959,4.959,4.959,4.959,4.959,4.9862,5.0597,4.965,4.875,4.8364,4.8299,4.8299,4.8299,4.8299,4.8118,4.7717,4.6581,4.525,4.3691,4.3615,4.3615,4.3615,4.3615,4.3615,4.3615,4.3081,4.2659,4.2254,4.185,4.1657,4.1618,4.1327,4.1211,4.1211,4.1211,4.1211,4.1211,4.1211,4.1211,4.1211,4.1211,4.1211,4.1211,4.1211,4.1211,4.1289,4.1777,4.2168,4.2479,4.3066,4.3457,4.3711,4.3711,4.3711,4.3711,4.3711,4.3711,4.3711,4.3711,4.3711,4.3711,4.3711,4.3628,4.3463,4.3151,4.2902,4.255,4.1821,4.163,4.1462,4.1145,4.1102,4.1102,4.1102,4.1102,4.1102,4.1102,4.1102,4.1102,4.1102,4.1102,4.1102,4.1102,4.1102,4.1102,4.1102,4.1102,4.1102,4.1102,4.1102,4.1102,4.1102,4.0892,4.0765,4.0765,4.0028,3.9433,3.8965,3.828,3.7464,4.6301,4.6301,4.6301,4.6301,4.6301,4.6301,4.6301,4.7129,4.7908,4.7908,4.8812,4.959,4.959,4.959,4.959,4.959,4.959,4.9478,4.9072,4.8944,4.875,4.8364,4.8299,4.8299,4.8299,4.8299,4.7681,4.6137,4.5952,4.525,4.3691,4.3615,4.3615,4.3615,4.3615,4.3615,4.3615,4.283,4.2216,4.185,4.1444,4.1211,4.1211,4.1211,4.1211,4.1211,4.1211,4.1211,4.1211,4.1211,4.1211,4.1211,4.1211,4.1211,4.1211,4.1211,4.1211,4.1289,4.2109,4.2362,4.2518,4.3398,4.3691,4.3711,4.3711,4.3711,4.3711,4.3711,4.3711,4.3711,4.3711,4.3711,4.3711,4.3711,4.3421,4.3151,4.3109,4.2383,4.1737,4.1695,4.1378,4.1145,4.1102,4.1102,4.1102,4.1102,4.1102,4.1102,4.1102,4.1102,4.1102,4.1102,4.1102,4.1102,4.1102,4.1102,4.1102,4.1102,4.1102,4.1102,4.1102,4.1102,4.1102,4.1102,4.0258,3.9774,3.9774,3.9731,3.8777,3.7059,3.7016,3.6513,4.6301,4.6301,4.6301,4.6301,4.6301,4.6301,4.6301,4.7129,4.7908,4.7908,4.8812,4.959,4.959,4.959,4.959,4.959,4.959,4.9445,4.897,4.806,4.7244,4.6837,4.59,4.5676,4.6655,4.5862,4.5453,4.5878,4.4988,4.418,4.3653,4.3615,4.3615,4.3615,4.3615,4.3327,4.283,4.2313,4.1811,4.1405,4.1288,4.1211,4.1211,4.1211,4.1211,4.1211,4.1211,4.1211,4.1211,4.1211,4.1211,4.1211,4.1211,4.1211,4.1211,4.1211,4.1211,4.1328,4.2129,4.2382,4.2518,4.3418,4.3711,4.3711,4.3711,4.3711,4.3711,4.3711,4.3711,4.3711,4.3711,4.3504,4.3214,4.2924,4.2508,4.2216,4.2216,4.1946,4.1612,4.1378,4.1229,4.1102,4.1102,4.1102,4.1102,4.1102,4.1102,4.1102,4.1102,4.1102,4.1102,4.1102,4.1102,4.1102,4.1102,4.1102,4.1102,4.1102,4.1102,4.1102,4.1102,4.0512,4.0198,4.0198,3.9263,3.9093,3.9689,3.8477,3.7576,3.6886,3.634,3.5922,4.6301,4.6301,4.6301,4.6301,4.6301,4.6351,4.6552,4.728,4.7958,4.8159,4.8937,4.959,4.959,4.959,4.959,4.959,4.959,4.9257,4.8262,4.726,4.6213,4.5233,4.4218,4.4012,4.5025,4.4201,4.4012,4.5063,4.418,0.0,4.3615,4.3615,4.3539,4.3386,4.3272,4.2889,4.2216,4.1927,4.1579,4.1211,4.1211,4.1211,4.1211,4.1211,4.1211,4.1211,4.1211,4.1211,4.1211,4.1211,4.1211,4.1211,4.1211,4.1211,4.1211,4.1211,4.1211,4.1328,4.2129,4.2382,4.2518,4.3418,4.3711,4.3711,4.3711,4.3711,4.3711,4.3711,4.3587,4.3504,4.3504,4.3173,4.2735,4.2258,4.1923,4.1653,4.1546,4.1504,4.142,4.1145,4.1102,4.1102,4.1102,4.1102,4.1102,4.1102,4.1102,4.1102,4.1102,4.1102,4.1102,4.1102,4.1102,4.1102,4.1102,4.1102,4.1102,4.1102,4.1102,4.0976,4.0639,4.0028,3.9561,3.9221,3.8323,3.8152,3.8751,3.749,3.6757,3.647,3.5878,3.5617,0.0,0.0,0.0,4.6326,4.6326,4.6446,4.6998,4.7525,4.8083,4.8693,4.9245,4.959,4.959,4.959,4.959,4.959,4.959,4.8928,4.6924,4.663,4.5855,4.3886,4.3594,4.3615,4.3615,4.3615,4.3615,4.3615,4.3577,4.3577,4.3577,4.3577,4.3386,4.2966,4.2582,4.2177,4.1811,4.1773,4.1579,4.1211,4.1211,4.1211,4.1211,4.1211,4.1211,4.1211,4.1211,4.1211,4.1211,4.1211,4.1211,4.1211,4.1211,4.1211,4.1211,4.1211,4.1211,4.1328,4.2129,4.2382,4.2518,4.3418,4.3711,4.3711,4.3691,4.3691,4.3631,4.3672,4.3341,4.3029,4.3048,4.2716,4.2258,4.1779,4.1695,4.1588,4.1187,4.1102,4.1102,4.1102,4.1102,4.1102,4.1102,4.1102,4.1102,4.1102,4.1102,4.1102,4.1102,4.1102,4.1102,4.1102,4.1102,4.1102,4.1102,4.1102,4.1102,4.1102,4.106,4.0639,3.9749,3.9664,3.9195,3.8314,3.7351,3.6876,3.6876,3.686,3.6443,3.5589,3.5605,3.5605,4.6301,0.0,0.0,0.0,0.0,0.0,4.7581,4.8134,4.8617,4.8768,4.9245,4.959,4.959,4.959,4.959,4.959,4.959,4.9165,4.7865,4.7063,4.6113,4.4832,4.4067,4.3615,4.3615,4.3615,4.3615,0.0,4.331,4.3157,4.3157,4.2889,4.2677,4.2562,4.2197,4.1927,4.1811,4.1502,4.1327,4.1211,4.1211,4.1211,4.1211,4.1211,4.1211,4.1211,4.1211,4.1211,4.1211,4.1211,4.1211,4.1211,4.1211,4.1211,4.1211,4.1211,4.1211,4.1328,4.2129,4.2382,4.2518,4.3418,4.3711,4.3652,4.334,4.3057,4.2753,4.2403,4.2022,4.1713,4.1647,4.1575,4.1443,4.1323,4.1271,4.1229,4.1145,4.1102,4.1102,4.1102,4.1102,4.1102,4.1102,4.1102,4.1102,4.1102,4.1102,4.1102,4.1102,4.1102,4.1102,4.1102,4.1102,4.1102,4.1102,4.1102,4.1102,4.1102,4.0469,4.0086,4.0071,3.8821,3.8114,3.8091,3.7147,3.666,3.666,3.6463,3.6219,3.5971,3.6209,3.632,0.0,0.0,0.0,0.0,0.0,0.0,4.8134,4.8567,4.8868,4.9095,4.9364,4.959,4.959,4.959,4.959,4.959,4.959,4.9246,4.8247,4.7212,4.6211,4.5223,4.4187,4.3615,4.3615,4.3615,4.3539,4.3348,4.3119,4.2927,4.2774,4.239,4.2159,4.2159,4.1773,4.156,4.156,4.1327,4.1211,4.1211,4.1211,4.1211,4.1211,4.1211,4.1211,4.1211,4.1211,4.1211,4.1211,4.1211,4.1211,4.1211,4.1211,4.1211,4.1211,4.1211,4.1211,4.1328,4.2129,4.2382,4.2518,4.3418,4.3711,4.3611,4.3213,4.2833,4.2394,4.1922,4.148,4.1087,4.0878,4.0958,4.1083,4.1089,4.1102,4.1102,4.1102,4.1102,4.1102,4.1102,4.1102,4.1102,4.1102,4.1102,4.1102,4.1102,4.1102,4.1102,4.1102,4.1102,4.1102,4.1102,4.1102,4.1102,4.1102,4.1102,4.1007,4.0747,4.0193,3.9727,3.9286,3.8295,3.76,3.7412,3.6875,3.667,3.6813,3.6479,3.632,3.632,3.6511,3.659,0.0,0.0,0.0,0.0,0.0,0.0,4.8768,4.8894,4.9044,4.949,4.959,4.959,4.959,4.959,4.959,4.959,4.959,4.9287,4.8409,4.7418,4.6368,4.539,4.4363,4.3743,4.3615,4.3615,4.3462,4.3081,4.2966,4.2736,4.2293,4.1927,4.1734,4.1734,4.1405,4.1211,4.1211,4.1211,4.1211,4.1211,4.1211,4.1211,4.1211,4.1211,4.1211,4.1211,4.1211,4.1211,4.1211,4.1211,4.1211,4.1211,4.1211,4.1211,4.1211,4.1211,4.1211,4.1328,4.2129,4.2382,4.2518,4.3418,4.367,4.3567,4.3134,4.2661,4.2152,4.1685,4.1215,4.0822,4.0561,4.0772,4.1047,4.1084,4.1102,4.1102,4.1102,4.1102,4.1102,4.1102,4.1102,4.1102,4.1102,4.1102,4.1102,4.1102,4.1102,4.1102,4.1102,4.1102,4.1102,4.1102,4.1102,4.106,4.0934,4.097,4.0729,4.0084,3.9981,3.939,3.8085,3.7968,3.7538,3.6717,3.6717,3.6876,3.7194,3.6829,3.6686,3.6717,3.6717,3.6717,0.0,0.0,0.0,0.0,0.0,0.0,4.9314,4.9439,4.9464,4.9565,4.959,4.959,4.959,4.959,4.959,4.959,4.959,4.9518,4.9327,4.8452,4.7429,4.6439,4.5427,4.4507,4.3687,4.3615,4.3577,4.35,4.2889,4.2197,4.1483,4.1366,4.1327,4.1327,4.125,4.1211,4.1211,4.1211,4.1211,4.1211,4.1211,4.1211,4.1211,4.1211,4.1211,4.1211,4.1211,4.1211,4.1211,4.1211,4.1211,4.1211,4.1211,4.1211,4.1211,4.1211,4.1211,4.1328,4.2129,4.2382,4.2518,4.3418,4.3463,4.3115,4.2645,4.177,4.0721,3.9921,3.9627,3.9711,4.0331,4.057,4.0699,4.1029,4.1102,4.1102,4.1102,4.1102,4.1102,4.1102,4.1102,4.1102,4.1102,4.1102,4.1102,4.1102,4.1102,4.1102,4.1102,4.1102,4.1102,4.1102,4.1102,4.0807,4.0028,4.0204,4.0013,3.9132,3.868,3.8413,3.8375,3.7669,3.7344,3.7464,3.751,3.7496,3.756,3.7194,3.7178,3.751,3.751,3.751,0.0,0.0,0.0,4.9113,0.0,0.0,0.0,4.959,4.959,4.959,4.959,4.959,4.959,4.959,4.959,4.959,4.959,4.959,4.959,4.8738,4.8004,4.7781,4.6173,4.5008,4.4757,4.386,4.3119,4.2736,4.2159,4.1618,4.1211,4.1211,4.1211,4.1211,4.1211,4.1211,4.1211,4.1211,4.1211,4.1211,4.1211,4.1211,4.1211,4.1211,4.1211,4.1211,4.1211,4.1211,4.1211,4.1211,4.1211,4.1211,4.1211,4.1211,4.1211,4.1211,4.1211,4.1328,4.2129,4.2382,4.2498,4.3191,4.3256,4.2988,4.2261,4.1324,4.0321,3.945,3.952,3.9942,4.0405,4.0662,4.0864,4.1047,4.1102,4.1102,4.1102,4.1102,4.1102,4.1102,4.1102,4.1102,4.1102,4.1102,4.1102,4.1102,4.1102,4.1102,4.1102,4.1102,4.0934,4.0451,4.0427,4.0118,3.9312,3.9417,3.926,3.8712,3.8379,3.8211,3.8116,3.763,3.748,3.7717,3.7717,3.7717,3.7717,3.7496,3.7496,3.7717,3.7717,3.7717,0.0,0.0,0.0,0.0,0.0,4.959,0.0,0.0,0.0,4.959,4.959,4.959,4.959,0.0,0.0,4.9314,0.0,0.0,0.0,4.8846,0.0,4.8872,4.7206,4.5976,4.5908,4.4142,4.2697,4.1966,4.154,4.1288,4.1211,4.1211,4.1211,4.1211,4.1211,4.1211,4.1211,4.1211,4.1211,4.1211,4.1211,4.1211,4.1211,4.1211,4.1211,4.1211,4.1211,4.1211,4.1211,4.1211,4.1211,4.1211,4.1211,4.1211,4.1211,4.1211,4.1211,4.1289,4.2029,4.2261,4.2377,4.282,4.2902,4.2655,4.1634,4.093,4.035,3.9557,3.9887,4.0533,4.0607,4.0864,4.1102,4.1102,4.1102,4.1102,4.1102,4.1102,4.1102,4.1102,4.1102,4.1102,4.1102,4.1102,4.1102,4.1102,4.1102,4.1018,4.085,4.085,4.0451,3.9519,3.9504,3.9277,3.862,3.8642,3.8601,3.8231,3.8301,3.8145,3.7701,3.7717,3.7717,3.7717,3.7717,3.7717,3.7717,3.7717,3.7717,3.7717,3.7717,3.7717,0.0,0.0,0.0,0.0,4.9364,0.0,0.0,0.0,4.959,4.959,0.0,0.0,0.0,0.0,0.0,0.0,0.0,0.0,4.8234,4.9278,4.9834,4.9008,4.9123,4.8377,4.613,4.4142,4.2812,4.237,4.1966,4.1579,4.1211,4.1211,4.1211,4.1211,4.1211,4.1211,4.1211,4.1211,4.1211,4.1211,4.1211,4.1211,4.1211,4.1211,4.1211,4.1211,4.1211,4.1211,4.1211,4.1211,4.1211,4.1211,4.1211,4.1211,4.1211,4.1211,4.1211,4.125,4.171,4.1879,4.1952,4.2344,4.2174,4.1648,4.0386,4.024,4.0405,3.9946,4.0148,4.0588,4.0937,4.1066,4.1102,4.1102,4.1102,4.1102,4.1102,4.1102,4.1102,4.1102,4.1102,4.1102,4.1102,4.1102,4.1102,4.1102,4.1102,4.0807,3.9943,3.9858,3.9476,3.8537,3.8744,3.8559,3.7693,3.8174,3.8182,3.7296,3.757,3.7761,3.7717,3.7717,3.7717,3.7717,3.7717,3.7717,3.7717,3.7717,3.7717,3.7717,3.7717,3.7717,0.0,0.0,0.0,0.0,0.0,0.0,0.0,0.0,4.959,0.0,0.0,0.0,0.0,0.0,0.0,0.0,4.9289,0.0,0.0,0.0,5.0764,0.0,0.0,0.0,4.5223,4.4348,4.3345,4.1811,4.156,4.1366,4.1211,4.1211,4.1211,4.1211,4.1211,4.1211,4.1211,4.1211,4.1211,4.1211,4.1211,4.1211,4.1211,4.1211,4.1211,4.1211,4.1211,4.1211,4.1211,4.1211,4.1211,4.1211,4.1211,4.1211,4.1211,4.1211,4.1036,4.084,4.1301,4.1426,4.1487,4.1869,4.1714,4.1147,4.0152,4.0331,4.0717,4.0074,4.035,4.0901,4.1066,4.1102,4.1102,4.1102,4.1102,4.1102,4.1102,4.1102,4.1102,4.1102,4.1102,4.0934,4.0385,4.0765,4.0934,4.0385,4.03,3.9943,3.9007,3.8879,3.8537,3.7576,3.7825,3.7749,3.7035,3.743,3.7636,3.7478,3.7637,3.7717,3.7717,3.7717,3.7717,3.7717,3.7717,3.7717,3.7717,3.7717,3.7717,3.7717,3.7717,3.7717,4.9267,0.0,0.0,0.0,0.0,0.0,0.0,0.0,0.0,0.0,0.0,0.0,0.0,0.0,0.0,0.0,0.0,4.9615,0.0,5.0619,0.0,0.0,0.0,0.0,0.0,4.4327,4.321,4.1463,4.125,4.1211,4.1211,4.1211,4.1211,4.1211,4.1211,4.1211,4.1211,4.1211,4.1211,4.1211,4.1211,4.1211,4.1211,4.1211,4.1211,4.1211,4.1211,4.1211,4.1211,4.1211,4.1211,4.1211,4.1211,4.1133,4.0997,4.0997,4.0802,4.0528,4.0772,4.0868,4.1009,4.1388,4.1336,4.0974,4.0276,4.0552,4.0956,4.0258,4.0552,4.1102,4.1102,4.1102,4.1102,4.1102,4.1102,4.1102,4.1102,4.1102,4.1102,4.1102,4.0892,4.0512,3.9816,4.0258,4.0427,3.9476,3.9306,3.8965,3.8023,3.8022,3.7701,3.6791,3.7112,3.7221,3.6762,3.7067,3.7385,3.7701,3.7717,3.7717,3.7717,3.7717,3.7717,3.7717,3.7717,3.7717,3.7717,3.7717,3.7717,3.7717,3.7717,3.7717,0.0,0.0,0.0,4.904,0.0,0.0,0.0,0.0,4.959,0.0,0.0,0.0,0.0,0.0,0.0,0.0,0.0,0.0,0.0,0.0,0.0,0.0,0.0,0.0,0.0,4.3894,4.185,4.1773,4.1444,4.1211,4.1211,4.1211,4.1211,4.1211,4.1211,4.1211,4.1211,4.1211,4.1211,4.1211,4.1211,4.1211,4.1211,4.1211,4.1211,4.1211,4.1211,4.1211,4.1211,4.1211,4.1211,4.1211,4.1211,4.0919,4.0509,4.0509,4.0509,4.045,4.0076,4.0184,4.0612,4.0974,4.1102,4.1029,4.0607,4.0772,4.1011,4.0607,4.079,4.1102,4.1102,4.1102,4.1102,4.1102,4.1102,4.1102,4.1102,4.1102,4.1102,4.1102,4.0385,3.9731,3.9689,3.9731,3.9433,3.8494,3.8323,3.8023,3.7059,3.7287,3.7167,3.6214,3.6731,3.7099,3.7115,3.7448,3.7701,3.7717,3.7717,3.7717,3.7717,3.7717,3.7717,3.7717,3.7717,3.7717,3.7717,3.7717,3.7717,3.7717,3.7717,3.7717,0.0,0.0,4.8674,4.9007,0.0,0.0,0.0,0.0,0.0,0.0,0.0,0.0,0.0,0.0,0.0,0.0,0.0,0.0,0.0,0.0,0.0,0.0,0.0,0.0,0.0,0.0,4.3949,4.1579,4.1288,4.1211,4.1211,4.1211,4.1211,4.1211,4.1211,4.1211,4.1211,4.1211,4.1211,4.1211,4.1211,4.1211,4.1211,4.1211,4.1211,4.1211,4.1211,4.1211,4.1211,4.1211,4.1016,4.0763,4.0763,4.049,4.0137,4.0392,4.0157,3.9721,3.9854,3.9995,4.0203,4.0882,4.1102,4.1029,4.0625,4.079,4.1029,4.0625,4.079,4.1102,4.1102,4.1102,4.1102,4.1102,4.1102,4.1102,4.1102,4.0639,4.0155,4.0155,3.9433,3.858,3.7963,3.8097,3.8052,3.7437,3.7361,3.7115,3.6446,3.6503,3.6531,3.646,3.6845,3.7085,3.7085,3.7464,3.7717,3.7717,3.7717,3.7717,3.7717,3.7717,3.7717,3.7717,3.7717,3.7717,3.7717,3.7717,3.7717,3.7717,3.7717,3.7717,4.8909,4.882,0.0,4.9109,4.9149,0.0,4.9631,0.0,0.0,0.0,0.0,0.0,0.0,0.0,0.0,0.0,0.0,0.0,0.0,5.1373,0.0,0.0,0.0,0.0,0.0,4.5596,4.3911,4.2139,4.1502,4.1211,0.0,4.1211,4.1211,4.1211,4.1211,4.1211,4.1211,4.1211,4.1211,4.1211,4.1211,4.1211,4.1211,4.1211,4.1211,4.1211,4.1211,4.1211,4.1172,4.1016,4.0763,4.0509,4.0353,4.0059,3.9706,3.9962,3.9647,3.9147,3.9678,3.9891,4.0019,4.0845,4.1102,4.1047,4.0809,4.0901,4.1047,4.079,4.0901,4.1102,4.1102,4.1102,4.1102,4.1102,4.1102,4.1018,4.0681,4.0131,3.9604,3.9263,3.8555,3.7838,3.7214,3.7178,3.7029,3.6671,3.672,3.6663,3.6345,3.6384,3.6559,3.6765,3.7115,3.7321,3.7321,3.7528,3.7717,3.7717,3.7717,3.7717,3.7717,3.7717,3.7717,3.7717,3.7717,3.7717,3.7717,3.7717,3.7717,3.7717,3.7486,3.744]},{"header":{"parameterUnit":"m.s-1","parameterCategory":1,"la1":30.6,"la2":29.2853,"lo1":-89.7004,"lo2":-87.6739,"dy":0.0162,"dx":0.0183,"nx":112,"ny":82,"refTime":"2024-02-25T18:00:00:Z","depth":0,"parameterNumber":3,"parameterNumberName":"V-component_of_WINDS"},"data":[0.0,0.0,0.0,0.0,0.0,0.0,0.0,0.0,0.0,0.0,0.0,0.0,0.0,0.0,0.0,0.0,0.0,0.0,0.0,0.0,0.0,0.0,0.0,0.0,0.0,0.0,0.0,0.0,0.0,0.0,0.0,0.0,0.0,0.0,0.0,0.0,0.0,0.0,0.0,0.0,0.0,0.0,0.0,0.0,0.0,0.0,0.0,0.0,0.0,0.0,0.0,0.0,0.0,0.0,0.0,0.0,0.0,0.0,0.0,0.0,0.0,0.0,0.0,0.0,0.0,0.0,0.0,0.0,0.0,0.0,0.0,0.0,0.0,0.0,0.0,0.0,0.0,0.0,0.0,0.0,0.0,0.0,0.0,0.0,0.0,0.0,0.0,0.0,0.0,0.0,3.5832,3.6331,3.6405,3.6405,3.6428,3.6428,3.6428,3.6499,0.0,0.0,0.0,0.0,0.0,0.0,0.0,0.0,0.0,0.0,0.0,0.0,0.0,0.0,0.0,0.0,0.0,0.0,0.0,0.0,0.0,0.0,0.0,0.0,0.0,0.0,0.0,0.0,0.0,0.0,0.0,0.0,0.0,0.0,0.0,0.0,0.0,0.0,0.0,0.0,0.0,0.0,0.0,0.0,0.0,0.0,0.0,0.0,0.0,0.0,0.0,0.0,0.0,0.0,0.0,0.0,0.0,0.0,0.0,0.0,0.0,0.0,0.0,0.0,0.0,0.0,0.0,0.0,0.0,0.0,0.0,0.0,0.0,0.0,0.0,0.0,0.0,0.0,0.0,0.0,0.0,0.0,0.0,0.0,0.0,0.0,0.0,0.0,0.0,0.0,0.0,0.0,0.0,0.0,0.0,0.0,0.0,0.0,0.0,0.0,0.0,0.0,0.0,0.0,3.6306,3.6405,3.6405,3.6476,3.6639,3.6499,3.657,3.6968,0.0,0.0,0.0,0.0,0.0,0.0,0.0,0.0,0.0,0.0,0.0,0.0,0.0,0.0,0.0,0.0,0.0,0.0,0.0,0.0,0.0,0.0,0.0,0.0,0.0,0.0,0.0,0.0,0.0,0.0,0.0,0.0,0.0,0.0,0.0,0.0,0.0,0.0,0.0,0.0,0.0,0.0,0.0,0.0,0.0,0.0,0.0,0.0,0.0,0.0,0.0,0.0,0.0,0.0,0.0,0.0,0.0,0.0,0.0,0.0,0.0,0.0,0.0,0.0,0.0,0.0,0.0,0.0,0.0,0.0,0.0,0.0,0.0,0.0,0.0,0.0,0.0,0.0,0.0,0.0,0.0,0.0,0.0,0.0,0.0,0.0,0.0,0.0,0.0,0.0,0.0,0.0,0.0,0.0,0.0,0.0,0.0,0.0,0.0,0.0,0.0,0.0,0.0,3.6909,3.716,3.6859,3.711,3.7382,3.7599,3.7551,3.7648,3.7981,3.7814,0.0,0.0,0.0,0.0,0.0,0.0,0.0,0.0,0.0,0.0,0.0,0.0,0.0,0.0,0.0,0.0,0.0,0.0,0.0,0.0,0.0,0.0,0.0,0.0,0.0,0.0,0.0,0.0,0.0,0.0,0.0,0.0,0.0,0.0,0.0,0.0,0.0,0.0,0.0,0.0,0.0,0.0,0.0,0.0,0.0,0.0,0.0,0.0,0.0,0.0,0.0,0.0,0.0,0.0,0.0,0.0,0.0,0.0,0.0,0.0,0.0,0.0,0.0,0.0,0.0,0.0,0.0,0.0,0.0,0.0,0.0,0.0,0.0,0.0,0.0,0.0,0.0,0.0,0.0,0.0,0.0,0.0,0.0,0.0,0.0,0.0,0.0,0.0,0.0,0.0,0.0,0.0,0.0,0.0,0.0,0.0,0.0,0.0,0.0,0.0,0.0,0.0,3.7633,3.8011,3.7509,3.7911,3.8286,3.8482,3.8482,3.8629,3.897,3.8946,0.0,0.0,0.0,0.0,0.0,0.0,0.0,0.0,0.0,0.0,0.0,0.0,0.0,0.0,0.0,0.0,0.0,0.0,0.0,0.0,0.0,0.0,0.0,0.0,0.0,0.0,0.0,0.0,0.0,0.0,0.0,0.0,0.0,0.0,0.0,0.0,0.0,0.0,0.0,0.0,0.0,0.0,0.0,0.0,0.0,0.0,0.0,0.0,0.0,0.0,0.0,0.0,0.0,0.0,0.0,0.0,0.0,0.0,0.0,0.0,0.0,0.0,0.0,0.0,0.0,0.0,0.0,0.0,0.0,0.0,0.0,0.0,0.0,0.0,0.0,0.0,0.0,0.0,0.0,0.0,0.0,0.0,0.0,0.0,0.0,0.0,0.0,0.0,0.0,0.0,0.0,0.0,0.0,0.0,0.0,0.0,0.0,0.0,0.0,0.0,0.0,0.0,3.8554,3.8628,3.8333,3.8579,3.875,3.875,3.875,3.8994,3.9503,3.931,0.0,0.0,0.0,0.0,0.0,0.0,0.0,0.0,0.0,0.0,0.0,0.0,0.0,0.0,0.0,0.0,0.0,0.0,0.0,0.0,0.0,0.0,0.0,0.0,0.0,0.0,0.0,0.0,0.0,0.0,0.0,0.0,0.0,0.0,0.0,0.0,0.0,0.0,0.0,0.0,0.0,0.0,0.0,0.0,0.0,0.0,0.0,0.0,0.0,0.0,0.0,0.0,0.0,0.0,0.0,0.0,0.0,0.0,0.0,0.0,0.0,0.0,0.0,0.0,0.0,0.0,0.0,0.0,0.0,0.0,0.0,0.0,0.0,0.0,0.0,0.0,0.0,0.0,0.0,0.0,0.0,0.0,0.0,0.0,0.0,0.0,0.0,0.0,0.0,0.0,0.0,0.0,0.0,0.0,0.0,0.0,0.0,0.0,0.0,0.0,0.0,0.0,3.9365,3.9697,0.0,3.9596,3.9925,4.01,4.0125,4.0274,4.0646,0.0,0.0,0.0,0.0,0.0,0.0,0.0,0.0,0.0,0.0,0.0,0.0,0.0,0.0,0.0,0.0,0.0,0.0,0.0,0.0,0.0,0.0,0.0,0.0,0.0,0.0,0.0,0.0,0.0,0.0,0.0,0.0,0.0,0.0,0.0,0.0,0.0,0.0,0.0,0.0,0.0,0.0,0.0,0.0,0.0,0.0,0.0,0.0,0.0,0.0,0.0,0.0,0.0,0.0,0.0,0.0,0.0,0.0,0.0,0.0,0.0,0.0,0.0,0.0,0.0,0.0,0.0,0.0,0.0,0.0,0.0,0.0,0.0,0.0,0.0,0.0,0.0,0.0,0.0,0.0,0.0,0.0,0.0,0.0,0.0,0.0,0.0,0.0,0.0,0.0,0.0,0.0,0.0,0.0,0.0,0.0,0.0,0.0,0.0,0.0,0.0,0.0,3.9511,4.0205,4.059,0.0,4.0462,4.0795,4.0896,4.0997,4.1097,4.1299,0.0,0.0,0.0,0.0,0.0,0.0,0.0,0.0,0.0,0.0,0.0,0.0,0.0,0.0,0.0,0.0,0.0,0.0,0.0,0.0,0.0,0.0,0.0,0.0,0.0,0.0,0.0,0.0,0.0,0.0,0.0,0.0,0.0,0.0,0.0,0.0,0.0,0.0,0.0,0.0,0.0,0.0,0.0,0.0,0.0,0.0,0.0,0.0,0.0,0.0,0.0,0.0,0.0,0.0,0.0,0.0,0.0,0.0,0.0,0.0,0.0,0.0,0.0,0.0,0.0,0.0,0.0,0.0,0.0,0.0,0.0,0.0,0.0,0.0,0.0,0.0,0.0,0.0,0.0,0.0,0.0,0.0,0.0,0.0,0.0,0.0,0.0,0.0,0.0,0.0,0.0,0.0,0.0,0.0,0.0,0.0,0.0,0.0,0.0,0.0,0.0,0.0,4.0946,4.1122,4.1198,4.0946,4.1122,4.1173,4.0946,4.1147,4.1299,0.0,0.0,0.0,0.0,0.0,0.0,0.0,0.0,0.0,0.0,0.0,0.0,0.0,0.0,0.0,0.0,0.0,0.0,0.0,0.0,0.0,0.0,0.0,0.0,0.0,0.0,0.0,0.0,0.0,0.0,0.0,0.0,0.0,0.0,0.0,0.0,0.0,0.0,0.0,0.0,0.0,0.0,0.0,0.0,0.0,0.0,0.0,0.0,0.0,0.0,0.0,0.0,0.0,0.0,0.0,0.0,0.0,0.0,0.0,0.0,0.0,0.0,0.0,0.0,0.0,0.0,0.0,0.0,0.0,0.0,0.0,0.0,0.0,0.0,0.0,0.0,0.0,0.0,0.0,0.0,0.0,0.0,0.0,0.0,0.0,0.0,0.0,0.0,0.0,0.0,0.0,0.0,0.0,0.0,0.0,0.0,0.0,0.0,0.0,0.0,0.0,0.0,0.0,4.1173,4.1249,4.1274,4.1173,4.1249,4.1274,4.1173,4.1248,4.1299,4.1299,0.0,0.0,0.0,0.0,0.0,0.0,0.0,0.0,0.0,0.0,0.0,0.0,0.0,0.0,0.0,0.0,0.0,0.0,0.0,0.0,0.0,0.0,0.0,0.0,0.0,0.0,0.0,0.0,0.0,0.0,0.0,0.0,0.0,0.0,0.0,0.0,0.0,0.0,0.0,0.0,0.0,0.0,0.0,0.0,0.0,0.0,0.0,0.0,0.0,0.0,0.0,0.0,0.0,0.0,0.0,0.0,0.0,0.0,0.0,0.0,0.0,0.0,0.0,0.0,0.0,0.0,0.0,0.0,0.0,0.0,0.0,0.0,0.0,0.0,0.0,0.0,0.0,0.0,0.0,0.0,0.0,0.0,0.0,0.0,0.0,0.0,0.0,0.0,0.0,0.0,0.0,0.0,0.0,0.0,0.0,0.0,0.0,0.0,0.0,0.0,0.0,0.0,4.1299,4.1299,4.1299,4.1299,4.1299,4.1299,4.1299,4.1299,4.1299,4.1299,0.0,0.0,0.0,0.0,0.0,0.0,0.0,0.0,0.0,0.0,0.0,0.0,0.0,0.0,0.0,0.0,0.0,0.0,0.0,0.0,0.0,0.0,0.0,0.0,0.0,0.0,0.0,0.0,0.0,0.0,0.0,0.0,0.0,0.0,0.0,0.0,0.0,0.0,0.0,0.0,0.0,0.0,0.0,0.0,0.0,0.0,0.0,0.0,0.0,0.0,0.0,0.0,0.0,0.0,0.0,0.0,0.0,0.0,0.0,0.0,0.0,0.0,0.0,0.0,0.0,0.0,0.0,0.0,0.0,0.0,0.0,0.0,0.0,0.0,0.0,0.0,0.0,0.0,0.0,0.0,0.0,0.0,0.0,0.0,0.0,0.0,0.0,0.0,0.0,0.0,0.0,0.0,0.0,0.0,0.0,0.0,0.0,0.0,0.0,0.0,0.0,0.0,4.1299,4.1299,4.1299,4.1299,4.1299,4.1299,4.1299,4.1299,4.1299,4.1299,0.0,0.0,0.0,0.0,0.0,0.0,0.0,0.0,0.0,0.0,0.0,0.0,0.0,0.0,0.0,0.0,0.0,0.0,0.0,0.0,0.0,0.0,0.0,0.0,0.0,0.0,0.0,0.0,0.0,0.0,0.0,0.0,0.0,0.0,0.0,0.0,0.0,0.0,0.0,0.0,0.0,0.0,0.0,0.0,0.0,0.0,0.0,0.0,0.0,0.0,0.0,0.0,0.0,0.0,0.0,0.0,0.0,0.0,0.0,0.0,3.5102,0.0,0.0,0.0,0.0,0.0,0.0,0.0,0.0,0.0,0.0,0.0,0.0,0.0,0.0,0.0,0.0,0.0,0.0,0.0,0.0,0.0,0.0,0.0,0.0,0.0,0.0,0.0,0.0,0.0,0.0,0.0,0.0,0.0,0.0,0.0,0.0,0.0,0.0,0.0,0.0,0.0,4.1299,4.1299,4.1299,4.1299,4.1299,4.1299,4.1299,4.1299,4.1299,4.1299,4.1299,0.0,0.0,0.0,0.0,0.0,0.0,0.0,0.0,0.0,0.0,0.0,0.0,0.0,0.0,0.0,0.0,0.0,0.0,0.0,0.0,0.0,0.0,0.0,0.0,0.0,0.0,0.0,0.0,0.0,0.0,0.0,0.0,0.0,0.0,0.0,0.0,0.0,0.0,0.0,0.0,0.0,0.0,0.0,0.0,0.0,0.0,0.0,0.0,0.0,0.0,0.0,0.0,0.0,0.0,0.0,0.0,0.0,0.0,0.0,0.0,3.594,0.0,0.0,0.0,0.0,0.0,0.0,0.0,0.0,0.0,0.0,0.0,0.0,0.0,0.0,0.0,0.0,0.0,0.0,0.0,0.0,0.0,0.0,0.0,0.0,0.0,0.0,0.0,0.0,0.0,0.0,0.0,0.0,0.0,0.0,0.0,0.0,0.0,0.0,0.0,0.0,4.1299,4.1299,4.1299,4.1299,4.1299,4.1299,4.1299,4.1299,4.1299,4.1299,4.1299,0.0,0.0,0.0,0.0,0.0,0.0,0.0,0.0,0.0,0.0,0.0,0.0,0.0,0.0,0.0,0.0,0.0,0.0,0.0,0.0,0.0,0.0,0.0,0.0,0.0,0.0,0.0,0.0,0.0,0.0,0.0,0.0,0.0,0.0,0.0,0.0,0.0,0.0,0.0,0.0,0.0,0.0,0.0,0.0,0.0,0.0,0.0,0.0,0.0,0.0,0.0,0.0,0.0,4.0277,4.0523,4.0386,4.1215,4.1411,4.1012,3.9329,3.7993,3.6991,0.0,0.0,0.0,0.0,0.0,0.0,0.0,0.0,0.0,0.0,0.0,0.0,0.0,0.0,0.0,0.0,0.0,0.0,0.0,0.0,0.0,0.0,0.0,0.0,0.0,4.1299,4.1299,0.0,0.0,0.0,0.0,0.0,0.0,0.0,0.0,0.0,0.0,0.0,0.0,4.1455,4.1559,4.1586,4.1586,4.1586,4.1586,4.1586,4.1586,4.1586,4.1586,4.1586,4.1534,0.0,0.0,0.0,0.0,0.0,0.0,0.0,0.0,0.0,0.0,0.0,0.0,0.0,0.0,0.0,0.0,0.0,0.0,0.0,0.0,0.0,0.0,0.0,0.0,0.0,0.0,0.0,0.0,0.0,0.0,0.0,0.0,3.3771,3.4301,0.0,0.0,0.0,0.0,0.0,0.0,0.0,0.0,0.0,0.0,0.0,0.0,0.0,3.9951,4.0736,4.0703,4.073,4.0845,4.1751,4.1784,4.105,4.2814,4.2687,4.1136,4.1661,0.0,3.9218,3.9689,0.0,0.0,0.0,0.0,0.0,0.0,0.0,0.0,0.0,0.0,0.0,0.0,0.0,0.0,0.0,0.0,0.0,0.0,0.0,0.0,0.0,0.0,4.1299,4.1299,4.1299,4.1299,0.0,4.1299,4.1299,4.1299,4.1299,0.0,0.0,0.0,0.0,0.0,0.0,0.0,4.2081,4.25,4.2762,4.2762,4.2762,4.2762,4.2762,4.2762,4.2762,4.2762,4.2762,4.2579,4.2107,4.2526,0.0,0.0,0.0,0.0,0.0,0.0,0.0,0.0,0.0,0.0,0.0,0.0,0.0,0.0,0.0,0.0,0.0,0.0,0.0,0.0,0.0,0.0,0.0,0.0,0.0,0.0,0.0,0.0,0.0,3.3847,3.4427,3.4678,3.4703,3.5029,0.0,0.0,0.0,0.0,0.0,0.0,0.0,0.0,0.0,4.1462,4.0987,4.1346,4.2709,4.2166,4.2166,4.2731,4.35,4.3621,4.3285,4.4518,4.4602,4.3823,4.4236,4.3686,4.2375,4.1261,4.0627,4.0372,0.0,0.0,0.0,0.0,4.0313,4.0364,4.0618,4.0719,0.0,0.0,0.0,0.0,0.0,0.0,0.0,0.0,0.0,0.0,0.0,0.0,0.0,4.1299,4.1299,4.1402,4.1716,4.1794,4.1716,0.0,4.1559,4.1794,4.1794,0.0,0.0,0.0,0.0,4.2657,4.2657,4.284,4.2997,4.2997,4.2997,4.2997,4.2997,4.2997,4.2997,4.2997,4.2997,4.2892,4.2657,4.2892,4.2762,0.0,0.0,0.0,0.0,0.0,0.0,0.0,0.0,0.0,0.0,0.0,0.0,0.0,0.0,0.0,0.0,0.0,0.0,0.0,0.0,0.0,0.0,0.0,0.0,0.0,0.0,0.0,0.0,3.4653,3.5045,3.5443,3.5559,3.6093,0.0,0.0,0.0,0.0,0.0,0.0,4.0893,4.1328,4.2041,4.3069,4.2502,4.2924,4.456,4.3821,4.3865,4.4668,4.5135,4.5339,4.5368,4.5864,4.6097,4.6097,4.6097,4.5753,4.5018,4.2911,4.2016,4.1951,4.1331,4.1252,4.1351,4.079,4.0593,4.0643,4.0921,4.0997,4.1047,4.1249,0.0,4.1299,4.1299,0.0,0.0,0.0,0.0,4.1299,4.1299,4.1428,4.1533,4.1533,4.1638,4.1873,4.2317,4.2421,4.2265,0.0,4.2108,4.2421,4.2421,0.0,0.0,0.0,0.0,4.3232,4.3232,4.3336,4.3441,4.3441,4.3704,4.3756,4.3467,4.3704,4.386,4.386,4.3599,4.3625,4.4037,4.3911,4.3858,4.3823,0.0,0.0,0.0,0.0,0.0,0.0,0.0,0.0,0.0,0.0,0.0,0.0,0.0,0.0,0.0,0.0,0.0,0.0,0.0,0.0,0.0,0.0,0.0,0.0,0.0,0.0,0.0,0.0,0.0,3.7482,3.7805,0.0,0.0,0.0,0.0,4.0524,4.1664,4.2497,4.2741,4.2792,4.3415,4.4733,4.4982,4.5405,4.6085,4.6041,4.6152,4.6469,4.6499,4.6528,4.6528,4.6558,4.6558,4.6558,4.6558,4.6535,4.6403,4.5064,4.4083,4.3302,4.232,4.1957,4.1859,4.1145,4.0896,4.0921,4.1199,4.1299,4.1299,4.1299,4.1299,4.1299,4.1299,4.1299,0.0,0.0,4.1299,4.1299,4.1299,4.1716,4.2134,4.2134,4.2526,4.2918,4.2945,4.2945,4.2945,0.0,4.2945,4.2945,4.2945,0.0,4.2997,4.2997,4.3493,4.386,4.386,4.4304,4.4616,4.4616,4.5555,4.5793,4.4725,4.5608,4.624,4.624,4.5209,4.5315,4.6839,4.6458,4.6213,4.6143,4.6704,0.0,0.0,0.0,0.0,0.0,0.0,0.0,0.0,0.0,0.0,0.0,0.0,0.0,0.0,0.0,0.0,0.0,0.0,0.0,0.0,0.0,0.0,0.0,0.0,0.0,0.0,0.0,0.0,3.9537,3.9793,0.0,4.1705,4.242,4.2911,4.3185,4.4001,4.4552,4.464,4.5047,4.5507,4.5984,4.6506,4.6874,4.7087,4.7521,4.7772,4.7893,4.7893,4.7893,4.7893,4.7893,4.7893,4.7893,4.7893,4.7954,4.8044,4.7584,4.6716,4.5598,4.4581,4.4279,4.4256,4.2719,4.2137,4.2039,4.1498,4.1299,4.1299,4.1299,4.1299,4.1299,4.1299,4.1559,4.1898,4.1898,4.2134,4.2396,4.2396,4.2552,4.2709,4.2709,4.284,4.3101,4.3493,4.3572,4.3676,4.4016,4.3833,4.3572,4.3572,4.4493,4.5178,4.5178,4.5964,4.6538,4.6538,4.6704,4.6841,4.6841,4.7203,4.728,4.6867,4.7203,4.7434,4.7434,4.7048,4.7092,4.7656,4.7499,4.7415,4.7369,4.8239,4.8264,0.0,0.0,0.0,0.0,0.0,0.0,0.0,0.0,0.0,0.0,0.0,0.0,0.0,0.0,0.0,0.0,0.0,0.0,0.0,0.0,0.0,0.0,0.0,0.0,0.0,0.0,3.9855,4.1435,4.1695,4.2288,4.3618,4.4052,4.4478,4.5094,4.5642,4.5975,4.6032,4.6682,4.6993,4.6956,4.7665,4.8035,4.8035,4.8502,4.8873,4.915,4.915,4.9268,4.9476,4.9476,4.9476,4.9476,4.9476,4.9545,4.9654,4.9445,4.8797,4.7882,4.6693,4.6303,4.6258,4.4594,4.3755,4.3266,4.2252,4.1874,4.1874,4.1874,4.1874,4.1874,4.1874,4.216,4.2474,4.2474,4.2735,4.2997,4.2997,4.3127,4.331,4.331,4.3441,4.3676,4.4068,4.4173,4.4278,4.4616,4.4408,4.428,4.4679,4.5658,4.6481,4.6645,4.761,4.8285,4.8095,4.8432,4.8688,4.8688,4.8994,4.907,4.8714,4.9019,4.9222,4.9222,4.8867,4.8994,4.9724,4.9423,4.9398,4.9749,5.0242,5.0058,4.921,0.0,0.0,0.0,0.0,0.0,0.0,0.0,0.0,0.0,0.0,0.0,0.0,0.0,0.0,0.0,0.0,0.0,0.0,0.0,0.0,0.0,0.0,0.0,4.0841,4.088,4.1529,4.3197,4.3567,4.3964,4.4701,4.5547,4.6062,4.6053,4.643,4.6771,4.6969,4.7585,4.7852,4.7679,4.8527,4.8997,4.8997,4.9026,4.9445,5.0285,5.0285,5.0637,5.1265,5.1265,5.1265,5.1265,5.1265,5.1265,5.1206,5.0578,5.0285,5.0126,4.8483,4.7841,4.7724,4.6699,4.5552,4.4379,4.336,4.2997,4.2997,4.2997,4.2997,4.2997,4.2997,4.2997,4.3023,4.3049,4.3049,4.3075,4.3101,4.3546,4.399,4.399,4.4382,4.4747,4.4747,4.4747,4.4747,4.4747,4.4774,4.5153,4.6243,4.6479,4.6723,4.7241,4.8352,0.0,4.8408,4.9373,5.0084,5.0084,5.1014,5.1218,5.0188,5.104,5.1653,5.1653,5.0655,5.1014,5.3101,5.2179,5.2129,5.3174,5.257,5.206,5.1656,0.0,0.0,0.0,0.0,0.0,0.0,0.0,0.0,0.0,0.0,0.0,0.0,0.0,0.0,0.0,0.0,0.0,0.0,0.0,0.0,0.0,4.2881,4.2925,4.3027,4.3048,4.3632,4.5266,4.5534,4.5819,4.6518,4.6791,4.7133,4.7633,4.7776,4.8052,4.8596,4.8828,4.9082,4.9468,5.0193,5.0807,5.1285,5.1762,5.2139,5.2366,5.2366,5.2456,5.2636,5.2636,5.2636,5.2636,5.2636,5.2636,5.2636,5.2456,5.2366,5.2133,4.9809,4.8892,4.8656,4.6814,4.4982,4.3412,4.3101,4.2997,4.2997,4.2997,4.2997,4.2997,4.2997,4.331,4.3729,4.412,4.4538,4.4982,4.5428,4.5664,4.5795,4.5795,4.59,4.6003,4.6003,4.6003,4.6003,4.6003,4.6669,4.719,4.7132,4.8826,5.0223,5.0369,5.1341,0.0,5.185,5.2104,5.2333,5.2333,5.2581,5.263,5.2358,5.2581,5.2753,5.2753,5.2482,5.2581,5.3174,5.293,5.2905,5.3174,5.3218,5.3158,0.0,0.0,0.0,0.0,0.0,0.0,0.0,0.0,0.0,0.0,0.0,0.0,0.0,0.0,0.0,0.0,0.0,0.0,0.0,0.0,0.0,0.0,4.4334,4.4552,4.5234,4.51,4.536,4.6565,4.6719,4.6958,4.7638,4.7728,4.7997,4.8678,4.8708,4.9007,4.9643,4.9942,5.0391,5.1026,5.1708,5.2217,5.2606,5.3019,5.3348,5.3623,5.3623,5.3767,5.4037,5.4037,5.4037,0.0,5.4037,5.4037,5.4037,5.3713,5.3623,0.0,0.0,0.0,0.0,0.0,4.6899,4.571,4.4783,4.446,4.446,4.446,4.446,4.446,4.446,4.4696,4.5063,4.5375,4.5715,4.6055,4.6423,4.6501,4.6501,4.6501,4.6501,4.6642,4.7118,4.7203,4.7369,4.7892,4.9086,0.0,4.9631,5.0698,5.169,5.19,5.2895,5.3535,5.33,5.3709,5.4037,5.4037,5.4037,5.4037,5.4037,5.4037,0.0,0.0,0.0,5.4258,5.4356,5.4258,0.0,0.0,0.0,5.411,5.3927,0.0,0.0,0.0,5.2894,5.2818,0.0,0.0,0.0,0.0,0.0,0.0,0.0,0.0,0.0,0.0,0.0,0.0,0.0,0.0,0.0,0.0,4.5157,4.5676,4.7111,4.6779,4.6629,4.7249,4.7369,4.7638,4.8259,4.8379,4.8708,4.9456,4.9516,4.9793,5.0518,0.0,0.0,0.0,0.0,5.3408,5.3528,5.3528,5.3862,5.4551,5.4551,5.485,5.5388,5.5388,5.5388,5.5388,5.5388,5.5388,5.5359,5.479,5.4551,5.4431,5.3533,5.3125,5.2753,5.06,4.9713,4.9319,4.723,0.0,0.0,4.6501,4.6501,4.6501,4.6501,4.6501,4.6527,4.658,4.6606,4.6632,4.6684,4.6684,4.6684,4.6684,4.6684,4.7022,4.8163,4.8382,4.8735,4.9967,5.152,5.2675,5.2675,5.2311,5.2162,5.2639,5.3626,5.414,5.3669,5.4535,5.5179,5.5179,0.0,0.0,5.5179,5.5179,5.5179,5.5179,5.5431,5.5706,5.5954,5.5755,5.5483,5.5123,5.5147,5.4988,5.4646,5.467,5.4764,5.4922,5.4375,5.4189,0.0,0.0,0.0,0.0,0.0,0.0,0.0,0.0,0.0,0.0,0.0,0.0,0.0,0.0,0.0,4.6591,4.684,4.6935,4.7258,4.7189,4.716,4.7279,4.7788,4.8147,4.8289,4.8798,4.9606,5.075,5.084,5.1349,5.2546,5.2725,5.3114,5.3803,5.3952,5.4521,5.5623,5.5623,5.5923,5.6526,0.0,0.0,5.6735,5.6735,5.6735,5.6735,5.6735,5.6735,5.6705,5.6585,5.6526,5.6316,5.4067,5.2655,5.1754,5.0316,4.9265,4.8328,4.6979,4.6501,4.6501,4.6501,4.6501,4.6501,4.6501,4.6501,0.0,4.6994,4.715,4.7255,4.7728,4.7887,4.7887,4.7887,4.7887,4.8179,4.9323,4.9576,4.9938,5.1147,5.2386,5.3265,5.3265,5.3958,5.4543,5.4637,5.4873,5.4954,5.487,5.5053,5.5179,5.5179,5.5179,5.5179,5.5179,5.5179,5.5179,5.5179,5.5431,5.5631,5.5681,5.583,5.5893,5.5821,5.6042,5.6073,5.5999,5.6217,5.6337,5.6354,5.5135,5.4589,0.0,0.0,0.0,0.0,0.0,0.0,0.0,0.0,0.0,0.0,0.0,4.3488,4.5036,0.0,4.6342,4.7184,4.7309,4.7309,4.7309,4.7578,4.7788,4.7788,4.8087,4.8536,4.9172,4.9853,5.0661,5.1648,5.2007,5.2636,5.3653,5.3683,5.4162,5.5149,5.5179,5.5658,5.6641,5.6671,5.6821,5.7094,5.7094,5.7094,5.7094,5.7094,5.7094,5.7094,5.7094,5.7094,5.7094,5.7094,5.7094,5.6974,5.5658,5.4815,5.4223,5.3045,5.2242,5.1566,4.9758,4.9158,4.9043,4.8405,4.8201,4.8201,4.8201,4.8201,4.825,4.8538,4.9059,4.9636,4.9929,5.0476,5.0966,5.0966,5.0966,5.1253,5.2407,5.2657,5.2988,5.4155,5.4849,5.5273,5.5273,5.5746,5.5927,5.5299,5.5504,5.5713,5.5713,5.5983,5.6137,5.6137,5.6137,5.6137,5.6137,5.632,5.6525,5.6779,5.6501,5.6414,5.6688,5.6383,5.6274,5.6397,5.6519,5.6592,5.6592,5.6737,5.681,5.6755,5.6077,5.5745,0.0,0.0,0.0,0.0,0.0,0.0,0.0,0.0,4.3221,4.3838,4.4553,4.528,4.596,4.6748,4.7309,4.7309,4.7309,4.7369,4.7489,4.7967,4.8409,4.8626,4.8656,4.9075,5.0076,5.0936,5.1678,5.2336,5.3019,5.3683,5.4371,5.4521,5.5089,5.6162,5.6312,5.6671,5.7304,5.7304,5.7363,5.7483,5.7483,5.7483,5.7483,5.7483,5.7483,5.7483,5.7483,5.7483,5.7483,5.7483,5.7483,5.7483,5.7483,5.7483,5.7322,5.5906,5.5413,5.5113,5.2933,5.2156,5.1982,5.0981,5.0472,5.0262,5.0262,5.0082,4.9897,4.9897,5.0803,5.1778,5.1778,5.2732,5.3726,5.3726,5.3726,5.4006,5.5168,5.5413,5.5737,5.6885,5.7094,5.7094,5.7094,5.7094,5.6735,5.5718,5.6042,5.6372,5.6372,5.6821,5.7094,5.7094,5.7094,5.712,5.7172,5.7488,5.7849,5.8283,5.7669,5.7464,5.7888,5.7242,5.6966,5.7186,5.7186,5.7186,5.7186,5.7186,5.7186,5.7186,5.7186,5.7032,4.0441,4.0927,4.1399,4.1477,4.2567,4.3632,0.0,0.0,4.4829,4.5771,4.5823,4.5989,4.6975,4.7222,4.7309,4.7309,4.7309,4.7519,4.8087,4.8259,4.8716,4.986,5.0009,5.0016,5.0196,5.1355,5.2366,5.3049,5.3713,5.4371,5.5029,5.5653,5.6042,5.6192,5.6731,5.7334,5.7965,5.7995,5.8264,5.889,5.889,5.889,5.889,5.889,5.889,5.889,5.889,5.889,5.889,5.889,5.889,5.889,5.889,5.889,5.8605,5.6257,5.5413,5.5222,5.3922,5.3472,5.3444,5.3302,5.2502,5.16,5.16,5.0803,4.9897,4.9897,5.0803,5.1778,5.1778,5.2732,5.3726,5.3726,5.3726,5.4006,5.5168,5.5413,5.5737,5.6885,5.7094,5.7094,5.7094,5.7094,5.7034,5.6915,5.6944,5.7004,5.7004,5.7064,5.7094,5.7094,5.7094,5.7198,5.7514,5.7803,5.7977,5.8029,5.8171,5.8267,5.8343,5.8483,5.8547,5.8572,5.8572,5.8572,5.8572,5.8572,5.8572,5.8572,5.8572,5.7925,4.2495,4.3244,4.3762,4.3762,4.4536,4.5293,4.5293,4.5774,4.6385,4.6804,4.6745,4.6792,4.7222,4.7309,4.7309,0.0,4.7638,4.7967,4.8259,4.8955,4.9591,5.0159,5.0877,5.1355,5.1355,5.2217,5.3054,5.3713,5.4401,5.5059,5.5743,5.6042,5.6551,5.7274,5.7573,5.8022,5.868,5.8683,5.883,5.9099,5.9099,5.9099,5.9099,5.9099,5.9099,5.9099,5.9099,5.9099,5.9099,5.9099,5.9099,5.9099,5.9099,5.9099,5.8985,5.7959,5.7532,5.737,5.6154,5.5734,5.5593,5.4912,5.4336,5.39,5.39,5.352,5.3107,5.3107,5.3989,5.4941,5.4941,5.5903,5.682,5.682,5.682,5.6987,5.7451,5.7532,5.7697,5.8181,5.8261,5.8261,5.8261,5.8261,5.8261,5.8261,5.7932,5.7693,5.7693,5.8022,5.8314,5.8474,5.8659,5.89,5.9214,5.9344,5.9474,5.9629,5.9389,5.9195,5.9195,5.8927,5.8818,5.8818,5.8818,5.8818,5.8818,5.8818,5.8818,5.8818,5.8818,5.851,4.4253,4.5065,4.5574,4.5574,4.6061,4.657,4.657,4.6929,4.7309,4.7309,4.7309,4.7309,4.7309,4.7309,4.7369,4.7549,4.7967,4.8416,4.8775,4.962,5.0338,5.0727,5.1594,5.2336,5.2725,5.3174,5.3683,5.4162,5.497,5.5683,5.6162,5.6551,5.7154,5.8055,5.8264,5.8593,5.9099,5.9099,5.9099,5.9099,5.9099,5.9099,5.9099,5.9099,5.9099,5.9099,5.9099,5.9099,5.9129,5.9308,5.9368,5.9398,5.9578,5.9668,5.9668,5.9668,5.9428,5.8964,5.8026,5.7719,5.7552,5.6679,5.6165,5.5906,5.5906,5.5645,5.5412,5.5412,5.628,5.7187,5.7187,5.8136,5.9099,5.9099,5.9099,5.9099,5.9099,5.9099,5.9099,5.9099,5.9099,5.9099,5.9099,5.9099,5.9099,5.9099,5.8833,5.8617,5.8491,5.8988,5.9369,5.9503,5.988,6.0197,6.0377,6.0455,6.0586,6.0794,6.0332,6.0086,6.0086,5.9593,5.9372,5.9372,5.9372,5.9372,5.9372,5.9372,5.9372,5.9372,5.9372,5.9372,4.5274,4.5753,4.6271,4.6271,4.6779,4.7279,4.7279,4.7309,4.7309,4.7309,4.7309,4.7309,4.7309,4.7309,4.7519,4.8147,4.8289,4.8716,4.9979,5.0166,5.0697,5.1977,5.2187,5.2725,0.0,5.4162,5.4192,5.4221,5.5418,5.6162,5.6192,5.7363,5.8055,5.8085,5.874,5.9069,5.9099,5.9099,5.9099,5.9099,5.9099,5.9099,5.9099,5.9099,5.9099,5.9099,5.9099,5.9099,5.9159,5.9787,6.0057,6.0116,6.0805,6.1016,6.1016,6.1016,6.0236,5.9072,5.9045,5.9045,5.9045,5.8991,5.8136,5.7131,5.7131,5.6337,5.5412,5.5412,5.628,5.7187,5.7187,5.8136,5.9099,5.9099,5.9099,5.9099,5.9099,5.9099,5.9099,5.9099,5.9099,5.9099,5.9099,5.9099,5.9099,5.9099,5.9638,5.9897,5.9509,5.9743,5.9853,5.9529,6.0035,6.0377,6.0403,6.0638,6.0794,6.0794,6.0763,6.0763,6.0763,6.0763,6.0732,6.0732,6.0732,6.0732,6.0732,6.0732,6.0732,6.0732,6.0732,6.0732,4.5942,4.645,4.6958,4.6958,4.7108,4.7309,4.7309,4.7309,4.7309,4.7309,4.7638,4.7967,4.7967,4.8349,4.8708,4.8917,4.9314,4.971,5.0136,5.0966,5.1684,5.2157,5.2995,0.0,0.0,0.0,0.0,5.5474,5.5953,5.6581,5.7423,5.7846,5.8294,5.877,5.8979,5.9099,5.9099,5.9099,5.9099,5.9099,5.9099,5.9099,5.9099,5.9099,5.9338,5.9757,5.9757,6.0027,6.0446,6.0685,6.0775,6.0805,6.1014,6.1076,6.1076,6.1076,6.0807,6.0356,5.9907,5.9757,5.9668,5.9249,5.8798,5.844,5.844,5.8166,5.7861,5.7861,5.8138,5.844,5.844,5.8771,5.9099,5.9099,5.9099,5.9099,5.9099,5.9458,5.9757,5.9757,6.0116,6.0446,6.0446,6.0446,6.0501,6.0691,6.0508,6.0475,6.0768,6.1291,6.1561,6.1453,6.1775,6.2015,6.2015,6.2095,6.2148,6.2148,6.2148,6.2148,6.2148,6.1717,6.1471,6.1471,6.104,6.0794,6.0794,6.0794,6.0794,6.0824,6.1255,6.168,4.6659,4.6958,4.7309,4.7309,4.7309,4.7309,4.7309,4.7309,4.7309,4.7309,4.7818,4.8319,4.8319,4.8858,4.9366,4.9583,4.9949,5.0368,5.0847,5.1678,5.2366,5.2875,5.3683,5.4401,0.0,0.0,0.0,5.6132,5.6641,5.7244,5.8055,5.8324,5.865,5.9099,5.9099,5.9099,5.9099,5.9099,5.9099,5.9099,5.9099,5.9219,5.9458,5.9458,5.9817,6.0446,6.0446,6.0715,6.1134,6.1373,6.1463,6.1493,6.1732,6.1822,6.1822,6.1822,6.1822,6.1672,6.0775,6.0446,6.0386,5.9967,5.9817,5.9817,5.9817,5.9817,5.9817,5.9817,5.9817,5.9817,5.9817,5.9817,5.9817,5.9817,5.9817,5.9817,5.9817,6.0146,6.0473,6.0584,6.0971,6.1299,6.141,6.1438,6.1554,6.1989,6.1737,6.1583,6.1654,6.2177,6.253,6.2422,6.2637,6.2798,6.2798,6.2798,6.2798,6.2798,6.2798,6.2798,6.2798,6.2394,6.2179,6.2179,6.1748,6.1502,6.1502,6.1502,6.1502,6.1532,6.2174,6.2674,4.7309,4.7309,4.7309,4.7309,4.7309,4.7309,4.7309,4.7339,4.7369,4.7369,4.7908,4.8386,0.0,0.0,4.9576,5.0159,5.0255,5.0727,5.2007,5.2217,5.2725,0.0,0.0,0.0,0.0,0.0,0.0,5.6312,0.0,5.8115,5.8145,5.877,5.9099,5.9099,5.9099,5.9099,5.9099,5.9129,5.9159,5.9159,5.9189,5.9548,6.0146,6.0146,6.0505,6.1136,6.1136,6.1166,6.1253,6.1882,6.2151,6.2211,6.2868,6.3108,6.3108,6.3108,6.3108,6.2928,6.1642,6.1194,6.1136,6.1106,6.1076,6.1076,6.1076,6.1076,6.1076,6.1076,6.1076,6.1076,6.1076,6.1104,6.1104,6.1076,6.1104,6.1104,6.1104,6.1134,6.1248,6.1494,6.1607,6.172,6.205,6.2105,6.2348,6.2958,6.3299,6.3138,6.2226,6.2598,6.281,6.2567,6.2756,6.2891,6.2891,6.2891,6.2891,6.2891,6.2891,6.2891,6.2891,6.286,6.2829,6.2829,6.2798,6.2798,6.2798,6.2798,6.2825,6.2879,6.3462,6.3782,4.7309,4.7309,4.7309,4.7309,4.7309,4.7309,4.7309,4.7698,4.8027,4.8027,4.8955,4.971,4.971,5.0249,0.0,5.0907,5.0936,0.0,5.2097,5.2606,0.0,5.4102,0.0,5.5833,5.6162,5.7064,0.0,0.0,5.7905,5.8324,5.883,5.9009,5.9099,5.9099,5.9099,5.9099,5.9099,5.9608,5.9847,5.9847,6.0356,6.0685,6.0864,6.0864,6.1224,6.1852,6.1852,6.2121,6.26,6.2778,6.2868,6.2868,6.3048,6.3108,6.3108,6.3108,6.3108,6.3048,6.2718,6.2241,6.1762,6.1283,6.1076,6.1076,6.1076,6.1076,6.1076,6.1076,6.1076,6.1076,6.1076,6.1271,6.1353,6.1132,6.1271,6.1408,6.1408,6.1603,6.2021,6.2524,6.3001,6.3393,6.3477,6.3505,6.3566,6.3748,6.397,6.4076,6.384,6.4144,6.4337,6.4282,6.4309,6.4364,6.4364,6.4364,6.4364,6.4364,6.4364,6.4364,6.4364,6.3814,6.3537,6.3537,6.3045,6.2798,6.2798,6.2798,6.3039,6.3489,6.4145,6.4921,4.7309,4.7309,4.7309,4.7309,4.7309,4.7369,4.7668,4.8027,4.8379,4.8678,4.9523,5.0196,5.0196,5.0757,5.1206,0.0,0.0,0.0,5.2546,5.3204,5.3982,0.0,5.5743,0.0,5.6974,5.7693,5.8205,0.0,5.8534,5.871,5.9069,5.9099,5.9099,5.9099,5.9099,5.9249,5.9548,6.0206,6.0535,6.0535,6.0924,6.1253,6.1553,6.1553,6.1912,6.254,0.0,6.2748,6.3108,6.3108,6.3108,6.3108,6.3108,6.3108,6.3108,6.3108,6.3108,6.3108,6.3108,6.2868,6.248,6.2091,6.1972,6.1972,6.1972,6.1972,6.1972,6.1972,6.1972,6.1972,6.1972,6.2113,6.2196,6.217,6.2168,6.2224,6.2365,6.2553,6.2881,6.35,6.4028,6.4387,6.4387,6.4387,6.4387,6.4387,6.4496,6.4607,6.4607,6.4777,6.4888,6.4888,6.4888,6.4888,6.4888,6.4888,6.4888,6.4888,6.4888,6.4888,6.4888,6.4518,6.4275,6.4275,6.3933,6.3718,6.3718,6.3962,6.4253,6.4599,6.5481,6.6246,4.7309,4.7309,4.7309,4.7309,4.7369,4.7578,4.8169,4.8416,4.8716,4.9307,4.9912,5.0345,5.0458,5.0936,5.1355,5.1445,5.1947,5.2576,5.3258,5.3832,5.47,5.6042,5.6282,5.6765,5.7965,5.8175,5.8474,5.9069,5.9099,5.9099,5.9099,5.9099,5.9129,5.9219,5.9308,5.9638,6.0234,6.0894,6.1225,6.1225,6.1343,6.1672,6.2241,6.2241,6.254,6.3108,6.3108,0.0,6.3108,6.3108,6.3137,6.3165,6.3165,6.3194,6.3223,6.3223,6.3223,6.3223,6.3223,6.3223,6.3223,6.3137,6.3108,6.3108,6.3137,6.3165,6.3165,6.3165,6.3194,6.3223,6.3165,6.3223,6.3308,6.3538,6.3424,6.3367,6.3565,6.3622,6.3821,6.4298,6.4663,6.4888,6.4888,6.4888,6.4888,6.4888,6.4888,6.4888,6.4888,6.4888,6.4888,6.4888,6.4888,6.4888,6.4888,6.4888,6.4888,6.4888,6.4888,6.4888,6.4888,6.4888,6.4888,6.4888,6.4888,6.4943,6.4998,6.5456,6.5781,6.5969,6.6948,6.7491,4.7309,4.7309,4.7309,4.7309,4.7728,4.8147,4.8289,4.9134,4.992,5.0009,5.0578,5.1206,5.1768,5.1947,5.2217,5.2755,5.2959,5.3264,5.3922,5.4132,5.47,0.0,5.6641,5.7244,5.8025,5.8593,0.0,0.0,0.0,5.9099,5.9099,5.9099,5.9338,5.9907,6.0475,6.0835,6.0924,6.1583,6.1942,6.1942,6.248,6.2808,6.2928,6.2928,6.2988,6.3108,6.3108,0.0,6.3108,6.3108,6.3223,6.3453,6.3453,6.3624,6.3851,6.3851,6.3851,6.3851,6.3851,6.3851,6.3766,6.328,6.3108,6.3137,6.3367,6.3453,6.3453,6.3453,6.3624,6.3795,6.351,6.3793,6.4132,6.3934,6.4047,6.4186,6.4214,6.444,6.461,6.441,6.4663,6.4888,6.4888,6.4888,6.4888,6.4888,6.4888,6.4888,6.4888,6.4888,6.4888,6.4888,6.4888,6.4888,6.4888,6.4888,6.4888,6.4888,6.4888,6.4888,6.4888,6.4888,6.4888,6.4888,6.4888,6.5136,6.5565,6.5646,6.6183,6.7104,6.7311,6.7942,4.7309,4.7309,4.7399,4.7728,4.8057,4.8476,4.9134,4.977,5.0285,5.0667,5.1236,5.1828,5.2127,5.2486,5.2839,5.3169,5.3473,5.3832,5.4162,5.479,5.5598,5.6551,5.7244,5.7902,5.856,5.8919,5.9249,5.9578,0.0,5.9608,5.9608,5.9967,6.0296,6.0625,6.1283,6.1613,6.1613,6.2271,6.26,6.26,6.2958,6.3108,6.3108,6.3108,6.3108,6.3108,6.3108,0.0,6.3108,6.3108,6.3165,6.3309,6.3309,6.3481,6.3738,6.3738,6.3851,6.3993,6.3993,6.3993,6.3965,6.3681,6.3567,6.3595,6.3738,6.3766,6.3766,6.3766,6.388,6.3965,6.3795,6.3963,6.4188,6.4216,6.4328,6.4382,6.4382,6.4552,6.4635,6.4663,6.4805,6.4888,6.4888,6.4888,6.4888,6.4888,6.4888,6.4888,6.4888,6.4888,6.4888,6.4888,6.4888,6.4888,6.4888,6.4888,6.4888,6.4888,6.4888,6.4888,6.4888,6.4888,6.5026,6.5324,6.5324,6.5596,6.6188,6.6448,6.6869,6.7414,6.8068,6.874,4.7309,4.7399,4.7638,4.8169,4.8528,4.8985,4.9956,5.0315,5.0578,5.1086,5.1738,5.2247,5.2396,5.2965,5.3468,5.3618,5.4072,5.4431,5.4431,5.5474,5.6432,5.7034,5.7693,0.0,5.9039,5.9219,0.0,6.0057,0.0,0.0,6.0326,6.0954,6.1313,6.1313,6.1972,6.2301,6.2301,6.2838,6.3108,6.3108,6.3108,6.3108,6.3108,6.3108,6.3108,6.3108,6.3108,0.0,0.0,6.3108,6.3137,6.3194,6.328,6.3481,6.3708,6.3764,6.3965,6.419,6.419,6.419,6.419,6.419,6.4106,6.4021,6.4078,6.4106,6.4106,6.4106,6.4162,6.419,6.4075,6.4162,6.4247,6.4468,6.4524,6.4524,6.4524,6.4524,6.4579,6.486,6.4888,6.4888,6.4888,6.4888,6.4888,6.4888,6.4888,6.4888,6.4888,6.4888,6.4888,6.4888,6.4888,6.4888,6.4888,6.4888,6.4888,6.4888,6.4888,6.4888,6.4888,6.4888,6.5214,6.5938,6.5777,6.6205,6.7227,6.7516,6.7765,6.8093,6.9074,6.9627,4.7309,4.7728,4.8207,4.8267,4.9194,5.0069,5.0166,5.0667,5.1116,5.1176,5.1738,5.2396,5.3019,5.3653,5.4311,5.491,5.5059,5.5089,5.5089,5.5743,5.6432,5.7034,0.0,0.0,5.9039,5.9638,6.0027,6.0114,0.0,0.0,6.1044,6.1642,6.2002,6.2002,6.266,6.3018,6.3018,6.3078,6.3108,6.3108,6.3108,6.3108,6.3108,6.3108,6.3108,6.3108,6.3108,0.0,0.0,6.3108,6.3252,6.351,6.3795,6.4075,6.4354,6.4666,6.4777,6.4805,6.4805,6.4805,6.4805,6.4805,6.4443,6.4049,6.43,6.4354,6.4354,6.4354,6.4579,6.4749,6.444,6.4579,6.4805,6.486,6.486,6.486,6.486,6.486,6.486,6.4888,6.4888,6.4888,6.4888,6.4888,6.4888,6.4888,6.4888,6.4888,6.4888,6.4888,6.4888,6.4888,6.4888,6.4888,6.4888,6.4888,6.4888,6.4888,6.4888,6.4888,6.4888,6.4888,6.5483,6.669,6.604,6.6904,6.9313,6.8691,6.9017,7.0226,7.0343,7.0757,4.7788,4.8087,4.8476,4.9232,4.983,5.0308,5.0727,5.0996,5.1295,5.1738,5.2336,5.2995,5.3683,5.4341,5.488,5.5149,5.5179,5.5179,5.5179,5.6077,5.6825,5.7064,5.8052,5.883,0.0,0.0,6.0416,6.1224,0.0,0.0,6.2301,6.254,6.2718,6.2718,6.2958,6.3108,6.3108,6.3108,6.3108,6.3108,6.3108,6.3108,6.3108,6.3108,6.3108,6.3108,6.3108,0.0,0.0,6.3338,6.3538,6.3823,6.3965,6.416,6.441,6.4552,6.4749,6.4888,6.4888,6.4888,6.4888,6.4888,6.4721,6.4554,6.4694,6.4691,6.4691,6.4691,6.4805,6.486,6.4749,6.4805,6.4888,6.4888,6.4888,6.4888,6.4888,6.4888,6.4888,6.4888,6.4888,6.4888,6.4888,6.4888,6.4888,6.4888,6.4888,6.4888,6.4888,6.4888,6.4888,6.4888,6.4888,6.4888,6.4888,6.4888,6.4888,6.4888,6.4888,6.4888,6.4888,6.5214,6.6018,6.7311,6.691,6.7859,7.0136,6.9355,6.9475,7.0528,7.0962,7.13,4.8139,4.8438,4.8835,4.992,5.0345,5.0637,5.1086,5.1206,5.1385,5.2067,5.2725,5.3408,5.4072,5.476,5.5179,5.5179,5.5179,5.5179,5.5179,5.6286,5.7094,5.7094,0.0,5.9189,0.0,6.0176,6.1164,6.2301,0.0,0.0,6.3108,6.3108,6.3108,6.3108,6.3108,6.3108,6.3108,6.3108,6.3108,6.3108,6.3108,6.3108,6.3108,6.3194,6.3223,6.3223,6.3338,0.0,0.0,6.3652,6.3795,6.4021,6.4106,6.4244,6.441,6.4524,6.4691,6.4888,6.4888,6.4888,6.4888,6.4888,6.4888,6.4888,6.4888,6.4888,6.4888,6.4888,6.4888,6.4888,6.4888,6.4888,6.4888,6.4888,6.4888,6.4888,6.4888,6.4888,6.4888,6.4888,6.4888,6.4888,6.4888,6.4888,6.4888,6.4888,6.4888,6.4888,6.4888,6.4888,6.4888,6.4888,6.4888,6.4888,6.4888,6.4888,6.4888,6.4888,6.4888,6.497,6.5105,6.5483,6.6517,6.8246,6.791,6.8757,7.0826,7.024,7.0263,7.0849,7.16,7.1929,4.8139,4.8768,4.9426,5.0039,5.0697,5.1176,5.1206,5.1206,5.1385,5.2067,5.2725,5.3408,5.4072,5.476,5.5179,5.5179,5.5179,5.5179,5.5179,5.6286,5.7094,5.7094,5.8291,5.9368,6.0054,6.1283,6.2361,6.3048,0.0,0.0,6.3108,6.3108,6.3108,6.3108,6.3108,6.3108,6.3108,6.3108,6.3108,6.3108,6.3108,6.3108,6.3108,6.3367,6.351,0.0,0.0,0.0,0.0,6.3993,6.3993,6.4049,6.43,6.4382,6.4437,6.4777,6.4888,6.4888,6.4888,6.4888,6.4888,6.4888,6.4888,6.4888,6.4888,6.4888,6.4888,6.4888,6.4888,6.4888,6.4888,6.4888,6.4888,6.4888,6.4888,6.4888,6.4888,6.4888,6.4888,6.4888,6.4888,6.4888,6.4888,6.4888,6.4888,6.4888,6.4888,6.4888,6.4888,6.4888,6.4888,6.4888,6.4888,6.4888,6.4888,6.4888,6.4888,6.4888,6.4888,6.5163,6.5673,6.57,6.693,6.9528,6.8863,6.949,7.16,7.1578,7.1578,7.16,7.2352,7.2692,4.8798,4.9434,5.0069,5.0727,5.1026,5.1206,5.1206,5.1535,5.2067,5.2725,5.3414,5.4102,5.476,5.5059,5.5179,5.5179,5.5179,5.5179,5.5179,5.6286,5.7094,5.7094,5.868,6.0057,0.0,0.0,6.2558,6.3048,0.0,0.0,6.3108,6.3108,6.3108,6.3108,6.3108,6.3108,6.3108,6.3108,6.3108,6.3108,6.3108,6.3108,6.3108,6.3395,6.351,0.0,0.0,0.0,0.0,6.4272,6.4412,6.461,6.4721,6.4749,6.4749,6.486,6.4888,6.4888,6.4888,6.4888,6.4888,6.4888,6.4888,6.4888,6.4888,6.4888,6.4888,6.4888,6.4888,6.4888,6.4888,6.4888,6.4888,6.4888,6.4888,6.4888,6.4888,6.4888,6.4888,6.4888,6.4888,6.4888,6.4888,6.4888,6.4888,6.4888,6.4888,6.516,6.5884,6.5991,6.5991,6.5991,6.5991,6.57,6.4943,6.4888,6.5053,6.5402,6.546,6.5731,6.6294,6.6659,6.7478,6.8838,6.8968,6.9912,7.16,7.16,7.1864,7.2373,7.2586,7.2692,4.9464,4.989,5.0345,5.1026,5.1206,5.1206,5.1206,5.1738,5.2396,5.3079,5.3713,5.4401,5.5059,5.5179,5.5179,5.5179,5.5179,5.5179,5.5179,5.6286,5.7326,5.7914,5.9561,0.0,0.0,6.2419,6.3113,0.0,0.0,0.0,6.328,6.3252,6.3309,6.3453,6.3223,6.3108,6.3108,6.3108,6.3108,6.3108,6.3108,6.3108,6.3108,6.3395,6.3567,0.0,0.0,0.0,0.0,6.4579,6.4691,6.4888,6.4888,6.4888,6.4888,6.4888,6.4888,6.4888,6.4888,6.4888,6.4888,6.4888,6.4888,6.4888,6.4888,6.4888,6.4888,6.4888,6.4888,6.4888,6.4888,6.4888,6.4888,6.4888,6.5187,6.5406,6.4998,6.5538,6.5991,6.5565,6.5804,6.6125,6.6125,6.6125,6.6125,6.6125,6.6125,6.6332,6.7008,6.7112,6.7112,6.7112,6.7112,6.6852,6.628,6.5592,6.5351,6.5673,6.6178,6.6701,6.7279,6.791,6.8675,6.9633,7.0006,7.0632,7.16,7.16,7.1973,7.2692,7.2692,7.2692,0.0,5.0255,5.0405,5.1056,5.1206,5.1206,5.1206,5.1768,0.0,5.3079,5.3773,5.4461,5.5089,5.5179,5.5179,5.5179,5.5179,5.5179,5.5179,5.6286,5.7708,5.9295,6.0678,0.0,6.1935,6.3232,6.3908,0.0,0.0,0.0,6.3538,6.3538,6.3681,6.3993,6.3453,6.3137,6.3137,6.3137,6.3108,6.3108,6.3108,6.3108,6.3108,6.3395,6.3681,0.0,0.0,0.0,0.0,6.4888,6.4888,6.4888,6.4888,6.4888,6.4888,6.4888,6.4888,6.4888,6.4888,6.4888,6.4915,6.4998,6.5026,6.5026,6.5077,6.5026,6.4888,6.4888,6.4943,6.5026,6.5026,6.5081,6.5136,6.5136,6.5884,6.6332,6.5351,6.6701,6.7827,6.6832,6.742,6.8097,6.8097,6.8097,6.8097,6.8097,6.8097,6.8122,6.8197,6.8197,6.8197,6.8197,6.8221,6.8296,6.838,6.6878,6.5911,6.5965,6.7137,6.8072,6.8618,6.9322,7.0243,7.1512,7.1578,7.1622,7.1688,7.1688,7.2016,7.2692,7.2692,7.2726,5.0637,0.0,5.0996,5.1146,5.1206,5.1206,0.0,5.2127,5.3019,5.3169,5.4132,5.4999,5.5149,5.5179,5.5179,5.5179,5.5179,5.5179,5.5179,5.6286,5.7708,5.9295,6.0678,6.1546,6.1629,6.3257,6.4188,0.0,0.0,6.4104,6.3908,6.388,6.3936,6.3993,6.3624,6.3424,6.3424,6.3424,6.3309,6.3108,6.3108,6.3108,6.3108,6.3395,6.3681,0.0,0.0,0.0,6.4888,6.4888,6.4888,6.4888,6.4888,6.4888,6.4888,6.4888,6.4888,6.4888,6.4888,6.4888,6.5053,6.5857,6.6125,6.6253,6.7086,6.6205,6.4888,6.4888,6.5483,6.6125,6.6125,6.6753,6.7343,6.7343,6.7548,6.7675,6.7395,6.7719,6.8021,6.7744,6.7953,6.8097,6.8097,6.8097,6.8097,6.8097,6.8097,6.8428,6.9235,6.9331,6.9331,6.9331,6.9466,6.9241,6.8454,6.8014,6.8039,6.8659,6.8976,6.9418,7.0006,7.0193,7.0425,7.0757,7.13,7.1886,7.2459,7.2459,7.2544,7.2692,7.2692,7.3002,5.0936,5.1206,5.1206,5.1206,5.1206,5.1206,5.1206,5.2247,5.3198,5.3198,5.4276,5.5179,5.5179,5.5179,5.5179,5.5179,5.5179,5.5388,5.5987,5.6944,5.8211,5.9992,6.1104,6.1885,0.0,6.3745,6.444,0.0,0.0,6.4356,6.4188,6.4188,6.4244,6.4415,6.4247,6.3936,6.348,6.3395,6.3309,6.328,6.3165,6.3165,6.328,6.3309,6.3567,0.0,0.0,0.0,6.4888,6.4888,6.4888,6.4888,6.4888,6.4888,6.4888,6.4888,6.4888,6.497,6.5456,6.5938,6.6465,6.7034,6.724,6.7343,6.7921,6.7292,6.6359,6.6359,6.6806,6.724,6.724,6.7643,6.8097,6.8097,6.8502,6.8691,6.8197,6.8871,6.9403,6.8944,6.9235,6.958,6.958,6.958,6.958,6.958,6.958,6.977,7.0366,7.0436,7.0436,7.0436,7.0609,7.0553,7.0103,7.0116,7.0023,6.9623,7.0173,7.0645,7.0985,7.1322,7.15,7.15,7.1907,7.2309,7.2692,7.3037,7.3209,7.3209,7.3533,7.3912,5.1026,5.1206,5.1206,5.1206,5.1206,5.1206,5.1206,5.2247,5.3198,5.3198,5.4276,5.5179,5.5179,5.5179,5.5179,5.5179,5.5319,5.5849,5.7075,5.7824,5.8941,6.0859,6.1643,0.0,6.3312,6.4322,6.4694,0.0,0.0,6.4496,6.4496,6.4496,6.4607,6.4888,6.4805,6.4387,6.3595,6.3367,6.3309,6.3453,6.3223,6.3223,6.3453,6.3194,6.3424,6.3993,0.0,0.0,6.4888,6.4888,6.4888,6.4888,6.4888,6.4888,6.4915,6.5081,6.5132,6.5297,6.6359,6.7343,6.8122,6.8271,6.8321,6.8371,6.8552,6.8601,6.8601,6.8601,6.8445,6.8321,6.8321,6.8478,6.8601,6.8601,6.9283,6.9723,6.8798,7.0039,7.103,7.01,7.0676,7.1289,7.1289,7.1289,7.1289,7.1289,7.1289,7.1289,7.1289,7.1289,7.1312,7.1356,7.1546,7.1788,7.2029,7.2245,7.172,7.0163,7.1154,7.1776,7.1776,7.2373,7.2692,7.2692,7.2795,7.2864,7.2864,7.3623,7.3947,7.3981,7.4615,7.496,5.1026,5.1206,5.1206,5.1206,5.1206,5.1206,5.1206,5.2247,5.3198,5.3198,5.4276,5.5179,5.5179,5.5179,5.5179,5.5179,5.5886,5.6747,5.7733,0.0,5.9496,6.1153,0.0,6.2612,6.3312,6.4322,6.486,0.0,0.0,6.4832,6.4832,6.4832,6.486,6.4888,6.4415,6.4078,6.3936,6.388,6.3624,6.3165,6.3108,6.3137,6.3165,6.3108,6.3424,6.3993,0.0,6.4331,6.4888,6.4888,6.4888,6.4888,6.4888,6.4888,6.5026,6.5911,6.6226,6.6412,6.7497,6.7946,6.8246,6.9163,6.9451,6.9618,7.0538,7.0825,7.0825,7.0825,7.0156,6.9451,6.9451,7.0133,7.0825,7.0825,7.0939,7.1007,7.0848,7.1052,7.1244,7.1075,7.1199,7.1289,7.1289,7.1289,7.1289,7.1289,7.1289,7.1289,7.1289,7.1289,7.1379,7.1534,7.1788,7.2029,7.2245,7.2501,7.2523,7.2253,7.2403,7.2544,7.2544,7.2628,7.2692,7.2692,7.3313,7.3623,7.3623,7.4373,7.4718,7.4718,7.4856,7.527,5.1116,5.1206,5.1206,5.1206,5.1206,5.1295,5.1678,5.2486,5.3318,5.3653,5.4521,5.5179,5.5179,5.5179,5.5324,5.5683,5.6385,5.7226,5.8205,5.8866,5.9933,0.0,0.0,6.2819,6.3859,6.4506,6.4832,0.0,0.0,0.0,6.4888,6.4888,6.4888,6.4888,6.444,6.4132,6.3993,6.3823,6.3595,6.3309,6.3165,6.3165,6.3309,6.3165,6.3424,6.3993,0.0,6.4331,6.4943,6.5511,6.5781,6.5835,6.6385,6.6622,6.6701,6.7189,6.7719,6.8296,6.8765,6.9331,6.9888,7.0389,7.0584,7.0654,7.1143,7.1289,7.1289,7.1289,7.0939,7.0584,7.0584,7.0939,7.1289,7.1289,7.1289,7.1289,7.1289,7.1289,7.1289,7.1289,7.1289,7.1289,7.1289,7.1289,7.1289,7.1289,7.1289,7.1289,7.1289,7.139,7.1501,7.16,7.1963,7.2202,7.2309,7.2544,7.2692,7.2692,7.2692,7.2692,7.2692,7.3071,7.3278,7.3278,7.4016,7.4373,7.4395,7.5167,7.5546,7.5546,7.596,7.6339,5.1206,5.1206,5.1206,5.1206,5.1206,5.1355,5.2067,5.2719,5.3408,5.4072,5.473,5.5179,5.5179,5.5179,5.5418,5.6102,5.6783,5.7573,5.8553,5.9297,6.0388,6.2265,6.2503,6.3023,6.4371,6.4749,6.4805,0.0,0.0,0.0,6.4888,6.4777,6.4721,6.4777,6.4412,6.4104,6.388,6.3567,6.3424,6.3424,6.3194,6.3223,6.3424,6.328,6.351,6.4021,6.4078,6.4524,6.5351,6.6178,6.6649,6.6956,6.7802,6.8246,6.847,6.847,6.9163,7.0076,7.0076,7.0631,7.1289,7.1289,7.1289,7.1289,7.1289,7.1289,7.1289,7.1289,7.1289,7.1289,7.1289,7.1289,7.1289,7.1289,7.1289,7.1289,7.1289,7.1289,7.1357,7.1526,7.1582,7.1582,7.1582,7.1582,7.1492,7.1323,7.1289,7.1312,7.1379,7.1489,7.1712,7.1993,7.2355,7.2674,7.291,7.3082,7.3244,7.3244,7.3037,7.3037,7.3209,7.374,7.405,7.405,7.4787,7.5201,7.5201,7.596,7.6339,7.6373,7.6925,7.7201,5.1206,5.1206,5.1206,5.1206,5.1206,5.1355,5.2067,5.2719,5.3408,5.4072,5.473,5.5179,5.5179,5.5179,5.5418,5.6102,5.6964,5.7885,5.8837,0.0,6.0919,6.2591,6.2772,6.3295,6.4737,6.4888,6.4888,0.0,0.0,0.0,6.486,6.4359,6.416,6.441,6.3878,6.3567,6.3538,6.328,6.3137,6.3137,6.3108,6.3108,6.3137,6.3367,6.3681,6.4021,6.4272,6.5125,6.6385,6.6465,6.7086,6.7971,6.8047,6.8724,6.9571,6.9571,7.0273,7.1199,7.1199,7.1244,7.1289,7.1289,7.1289,7.1289,7.1289,7.1289,7.1289,7.1289,7.1289,7.1289,7.1289,7.1289,7.1289,7.1289,7.1289,7.1289,7.1289,7.1289,7.1492,7.2191,7.2326,7.2326,7.2326,7.2326,7.209,7.1391,7.1289,7.1379,7.1534,7.16,7.2049,7.3239,7.3373,7.3791,7.464,7.4731,7.4753,7.4753,7.4085,7.4016,7.4718,7.4787,7.4822,7.4822,7.5615,7.5994,7.6029,7.6753,7.7132,7.7132,7.7166,7.7201,5.1206,5.1206,5.1206,5.1206,5.1206,5.1475,5.2576,5.3019,5.3528,5.4581,5.5029,5.5179,5.5179,5.5564,5.6042,5.6671,5.7408,5.8256,5.918,6.0138,6.1222,6.2407,6.3087,6.3729,6.4515,6.4579,6.4524,6.4359,0.0,0.0,6.4331,6.4134,6.4049,6.4132,6.3708,6.351,6.351,6.3874,6.4069,6.4069,6.3422,6.3108,6.3137,6.4071,6.4682,6.5039,6.5977,6.682,6.7548,6.8197,6.8749,6.9163,6.9817,7.032,7.0699,7.0699,7.0961,7.1289,7.1289,7.1289,7.1289,7.1289,7.1289,7.1289,7.1289,7.1289,7.1289,7.1289,7.1289,7.1289,7.1289,7.1289,7.1447,7.1887,7.1988,7.2124,7.2563,7.2665,7.2732,7.3003,7.3071,7.3071,7.3071,7.3071,7.2969,7.2699,7.2802,7.2915,7.3028,7.3297,7.3643,7.4128,7.4316,7.4528,7.4869,7.4925,7.5132,7.5615,7.4925,7.4615,7.4891,7.5373,7.5649,7.5649,7.6408,7.6787,7.6787,7.7063,7.7201,7.7201,7.7201,7.7201,5.1206,5.1206,5.1236,5.1445,5.1528,5.1887,5.3204,5.3348,5.3588,5.491,5.5179,5.5239,5.5504,5.5893,5.6462,0.0,5.7786,5.8458,5.9492,6.0345,6.1227,6.2306,6.3057,6.3703,6.4209,6.4272,6.4188,6.4021,0.0,0.0,0.0,6.3823,6.3766,6.3851,6.3538,6.3537,6.3876,6.4432,6.4899,6.5223,6.4488,6.4127,6.4183,6.5278,6.5924,6.619,6.7279,6.8097,6.8642,6.9403,6.9912,7.0296,7.1007,7.1289,7.1289,7.1289,7.1289,7.1289,7.1289,7.1289,7.1289,7.1289,7.1289,7.1289,7.1289,7.1458,7.165,7.165,7.1819,7.1988,7.1988,7.1819,7.1853,7.2563,7.2732,7.2868,7.3398,7.35,7.3567,7.3781,7.3849,7.3849,7.3849,7.3849,7.3747,7.3534,7.3741,7.3901,7.3992,7.4352,7.4721,7.505,7.5423,7.5649,7.5649,7.5649,7.5856,7.6408,7.5925,7.5649,7.5649,7.6132,7.6442,7.6442,7.6925,7.7201,7.7201,7.7201,7.7201,7.7201,7.7201,7.7201,5.1206,5.1206,5.1355,5.2037,5.2187,5.2546,5.3892,5.3683,5.3588,5.491,5.5234,5.5388,5.6072,5.6222,5.6641,5.7876,5.8115,5.8567,5.9789,6.0294,6.0956,6.2225,6.2704,6.3206,6.3902,6.3993,6.3993,6.3993,0.0,0.0,0.0,6.3424,6.3223,6.348,6.3252,6.362,6.4706,6.4734,6.5278,6.6428,6.6428,6.6428,6.6428,6.706,6.7318,6.7343,6.7871,6.8716,6.9713,6.9713,7.0343,7.1289,7.1289,7.1289,7.1289,7.1289,7.1289,7.1289,7.1289,7.1289,7.1289,7.1289,7.1289,7.1289,7.1289,7.1819,7.2394,7.2394,7.2935,7.35,7.3534,7.2969,7.2597,7.3364,7.3534,7.3534,7.3534,7.3534,7.3713,7.4492,7.4603,7.4603,7.4603,7.4603,7.4356,7.3635,7.3741,7.4003,7.4183,7.4463,7.4994,7.6006,7.6753,7.7201,7.7201,7.7201,7.7201,7.7201,7.7201,7.7201,7.7201,7.7201,7.7201,7.7201,7.7201,7.7201,7.7201,7.7201,7.7201,7.7201,7.7201,7.7201,5.1206,5.1206,5.1355,5.2037,5.2187,5.2546,5.3892,5.4042,5.4162,5.4999,5.5593,5.5953,5.6162,5.6915,0.0,5.8025,5.8504,5.8943,5.9315,6.0412,6.1333,6.1709,6.2877,6.3666,6.3651,6.3652,6.3567,6.3395,0.0,0.0,0.0,6.3194,6.348,6.432,6.3535,6.3986,6.5871,6.5897,6.648,6.7618,6.8403,6.7953,6.6454,6.782,6.842,6.8527,6.9794,7.0538,7.0814,7.0814,7.1007,7.1289,7.1289,7.1289,7.1289,7.1289,7.1289,7.1289,7.1289,7.1289,7.1289,7.1289,7.1289,7.1391,7.1921,7.2225,7.2496,7.3003,7.3331,7.3612,7.4153,7.4119,7.4018,7.4221,7.4289,7.4424,7.4931,7.5033,7.51,7.5337,7.5371,7.5371,7.5371,7.5371,7.5351,7.5336,7.5535,7.5857,7.6265,7.6378,7.6548,7.6856,7.7063,7.7201,7.7201,7.7201,7.7201,7.7201,7.7201,7.7201,7.7201,7.7201,7.7201,7.7201,7.7201,7.7201,7.7201,7.7201,7.7201,7.7201,7.7201,7.7201,5.1206,5.1385,5.1768,5.2426,5.2785,5.3294,5.4341,5.461,5.479,5.5474,5.5923,5.6342,5.6855,5.7603,0.0,5.8444,5.886,5.927,5.9783,6.0719,6.1526,6.1989,6.3016,6.3567,6.3367,6.3338,6.328,6.3108,6.3108,0.0,0.0,6.3478,6.4043,6.4678,6.4515,6.5282,6.7054,6.708,6.7643,6.8781,6.9478,6.9083,6.7802,6.8993,6.9604,6.9746,7.0814,7.1289,7.1289,7.1289,7.1289,7.1289,7.1289,7.1289,7.1289,7.1289,7.1289,7.1289,7.1289,7.1289,7.1357,7.1627,7.1751,7.1887,7.2597,7.3037,7.3375,7.3815,7.4153,7.4458,7.4931,7.5033,7.5033,7.5033,7.5033,7.5168,7.5608,7.5709,7.5709,7.5709,7.5709,7.5709,7.5709,7.5781,7.5899,7.6075,7.6425,7.6736,7.7156,7.7201,7.7201,7.7201,7.7201,7.7201,7.7201,7.7201,7.7201,7.7201,7.7201,7.7201,7.7201,7.7201,7.7201,7.7201,7.7201,7.7201,7.7201,7.7201,7.7201,7.7201,7.7201,7.7201,5.1295,5.1798,5.2456,5.3114,5.3803,5.4461,5.5059,5.5239,5.5474,5.6072,5.6252,5.6645,5.7876,5.8145,5.8384,5.9009,5.9099,5.9528,6.0758,6.1017,6.1539,6.2703,6.3003,6.3108,6.3108,6.3108,6.3108,6.3108,6.3108,0.0,6.3222,6.4153,6.4816,6.5005,6.5924,6.7002,6.8254,6.8147,6.8683,6.9798,6.9798,6.9822,6.9846,7.0283,7.0654,7.0939,7.1199,7.1289,7.1289,7.1289,7.1289,7.1289,7.1289,7.1289,7.1289,7.1289,7.1289,7.1289,7.1289,7.1323,7.1515,7.2191,7.2462,7.2631,7.3375,7.4052,7.4603,7.4695,7.5202,7.5709,7.5709,7.5709,7.5709,7.5709,7.5709,7.5709,7.5709,7.5709,7.5709,7.5709,7.5709,7.5709,7.5733,7.5923,7.6122,7.6169,7.6553,7.6941,7.7178,7.7201,7.7201,7.7201,7.7201,7.7201,7.7201,7.7201,7.7201,7.7201,7.7201,7.7201,7.7201,7.7201,7.7201,7.7201,7.7201,7.7201,7.7201,7.7201,7.7201,7.7201,7.7201,7.7223,5.1977,5.2456,5.3169,5.3832,5.4491,5.5029,5.5149,5.5623,5.6042,5.6162,5.6581,5.7154,5.7935,5.8504,5.8949,5.9069,5.9099,5.9393,6.0188,6.0768,6.1371,6.2171,6.2746,6.3108,6.3108,6.3108,6.3108,6.3108,6.3108,0.0,6.432,6.4568,6.5521,6.7305,6.6742,6.7362,6.9397,6.8527,6.8683,0.0,6.9798,6.9917,7.0106,7.0376,7.0779,7.1222,7.1267,7.1289,7.1289,7.1289,7.1289,7.1289,7.1289,7.1289,7.1289,7.1289,7.1289,7.1289,7.1289,7.1684,7.2191,7.236,7.28,7.3409,7.4153,7.4492,7.4705,7.5303,7.5574,7.5709,7.5709,7.5709,7.5709,7.5709,7.5709,7.5709,7.5709,7.5709,7.5709,7.5709,7.5709,7.5781,7.6004,7.6075,7.6239,7.6599,7.6918,7.7133,7.7201,7.7201,7.7201,7.7201,7.7201,7.7201,7.7201,7.7201,7.7201,7.7201,7.7201,7.7201,7.7201,7.7201,7.7201,7.7201,7.7201,7.7201,7.7201,7.7201,7.7201,7.7201,7.7201,7.7402,5.2576,5.3174,5.3832,5.4521,5.494,5.5179,5.5179,5.5713,5.6282,5.6581,5.7124,5.7782,5.8471,5.886,5.9099,5.9099,5.9099,5.9483,6.0609,6.0948,6.1715,6.3406,6.3297,6.3308,6.3817,6.3394,6.3308,6.3817,6.3874,6.4348,6.544,6.6026,6.6867,6.8047,6.8054,6.8609,6.9798,6.9204,6.9204,6.9798,6.9798,6.9988,7.0363,7.0595,7.0916,7.1289,7.1289,7.1289,7.1289,7.1289,7.1289,7.1289,7.1289,7.1289,7.1289,7.1289,7.1289,7.1289,7.1289,7.1785,7.2462,7.28,7.3409,7.4153,7.4897,7.5134,7.5202,7.5574,7.5709,7.5709,7.5709,7.5709,7.5709,7.5709,7.5709,7.5709,7.5709,7.5709,7.5709,7.5709,7.5805,7.5957,7.6075,7.6309,7.6553,7.6941,7.7099,7.7201,7.7201,7.7201,7.7201,7.7201,7.7201,7.7201,7.7201,7.7201,7.7201,7.7201,7.7201,7.7201,7.7201,7.7201,7.7201,7.7201,7.7201,7.7201,7.7201,7.7201,7.7201,7.7201,7.7201,7.7468,5.3228,5.3862,5.4521,5.5059,5.5179,5.5179,5.5179,5.5803,5.6492,5.7004,5.7633,5.8294,5.8979,5.9099,5.9099,5.9099,5.9099,5.9659,6.1228,6.1243,6.2029,6.4555,6.3819,6.3451,6.4348,6.362,6.3535,6.4623,6.4706,6.5278,6.6638,6.7592,6.8204,6.8378,6.9301,6.9798,6.9798,6.9798,6.9822,6.9869,6.9917,7.0176,7.0561,7.0802,7.103,7.1289,7.1289,7.1289,7.1289,7.1289,7.1289,7.1289,7.1289,7.1289,7.1289,7.1289,7.1289,7.1323,7.1424,7.1988,7.2699,7.3443,7.4187,7.4897,7.5506,7.5709,7.5709,7.5709,7.5709,7.5709,7.5709,7.5709,7.5709,7.5709,7.5709,7.5709,7.5709,7.5709,7.5733,7.5757,7.5994,7.6239,7.6239,7.6576,7.6941,7.7178,7.7201,7.7201,7.7201,7.7201,7.7201,7.7201,7.7201,7.7201,7.7201,7.7201,7.7201,7.7201,7.7201,7.7201,7.7201,7.7201,7.7201,7.7201,7.7201,7.7201,7.7201,7.7201,7.7246,7.7335,7.7335,7.7588,5.4042,5.4551,5.5089,5.5179,5.5179,5.5179,5.5179,5.6107,5.7004,5.7064,5.7633,5.8294,5.8979,5.9099,5.9099,5.9099,5.9099,5.9578,6.0952,6.1104,6.1667,6.3186,6.3193,6.3165,6.3308,6.3194,6.3535,6.4623,6.4706,6.5629,6.7744,6.7996,6.8552,6.955,6.9727,6.9798,6.9798,6.9798,6.9917,7.0129,7.0306,7.0538,7.0848,7.0893,7.103,7.1289,7.1289,7.1289,7.1289,7.1289,7.1289,7.1289,7.1289,7.1289,7.1289,7.1289,7.1289,7.1391,7.2022,7.2732,7.3477,7.4221,7.4965,7.5574,7.5676,7.5709,7.5709,7.5709,7.5709,7.5709,7.5709,7.5709,7.5709,7.5709,7.5709,7.5709,7.5709,7.5709,7.5781,7.6004,7.6414,7.6736,7.6736,7.6941,7.7178,7.7201,7.7201,7.7201,7.7201,7.7201,7.7201,7.7201,7.7201,7.7201,7.7201,7.7201,7.7201,7.7201,7.7201,7.7201,7.7201,7.7201,7.7201,7.7201,7.7201,7.7201,7.7201,7.7201,7.7424,7.7785,7.7785,7.8223,5.467,5.497,5.5179,5.5179,5.5179,5.5179,5.5179,5.6166,5.7094,5.7094,5.7932,5.877,5.9069,5.9099,5.9099,5.9099,5.9099,5.9578,6.0896,6.1627,6.2768,6.4717,6.4926,6.4926,6.4926,6.4926,6.5145,6.5629,6.6238,6.7337,6.8952,6.9026,6.9277,6.9798,6.9798,6.9798,6.9798,6.9941,7.0153,7.0386,7.0618,7.0802,7.0916,7.1086,7.1199,7.1289,7.1289,7.1289,7.1289,7.1289,7.1289,7.1289,7.1289,7.1289,7.1289,7.1289,7.1289,7.1391,7.2157,7.2868,7.3612,7.4356,7.51,7.5709,7.5709,7.5709,7.5709,7.5709,7.5709,7.5709,7.5709,7.5709,7.5709,7.5709,7.5709,7.5757,7.5876,7.5923,7.6017,7.6414,7.6634,7.6839,7.7009,7.7133,7.7201,7.7201,7.7201,7.7201,7.7201,7.7201,7.7201,7.7201,7.7201,7.7201,7.7201,7.7201,7.7201,7.7201,7.7201,7.7201,7.7201,7.7201,7.7201,7.7201,7.7201,7.7201,7.7201,7.7434,7.7676,7.7893,7.8173,7.8637,5.5059,5.5179,5.5179,5.5179,5.5179,5.5179,5.5179,5.6166,5.7094,5.7094,5.8171,5.9099,5.9099,5.9099,5.9099,5.9099,5.9099,5.9687,6.131,6.2279,6.3676,6.6112,6.6401,6.6401,6.6401,6.6401,6.6533,6.682,6.7618,6.8609,6.9751,6.9798,6.9798,6.9798,6.9798,6.9798,6.9798,7.0129,7.0386,7.0584,7.087,7.0984,7.1007,7.1222,7.1289,7.1289,7.1289,7.1289,7.1289,7.1289,7.1289,7.1289,7.1289,7.1289,7.1289,7.1289,7.1289,7.1424,7.236,7.3037,7.3669,7.4593,7.527,7.5709,7.5709,7.5709,7.5709,7.5709,7.5709,7.5709,7.5709,7.5709,7.5709,7.5709,7.5757,7.5852,7.6075,7.6216,7.6368,7.6725,7.6873,7.6964,7.7178,7.7201,7.7201,7.7201,7.7201,7.7201,7.7201,7.7201,7.7201,7.7201,7.7201,7.7201,7.7201,7.7201,7.7201,7.7201,7.7201,7.7201,7.7201,7.7201,7.7201,7.7201,7.7313,7.7379,7.7379,7.7719,7.8023,7.8258,7.8595,7.8987,5.5179,5.5179,5.5179,5.5179,5.5179,5.5179,5.5179,5.6166,5.7094,5.7094,5.8171,5.9099,5.9099,5.9099,5.9099,5.9099,5.9099,5.9955,6.2388,6.2786,6.3676,6.6112,6.6401,6.6401,6.6401,6.6401,6.6846,6.7921,6.8047,6.8609,6.9751,6.9798,6.9798,6.9798,6.9798,6.9798,6.9798,7.0236,7.0608,7.087,7.1154,7.1289,7.1289,7.1289,7.1289,7.1289,7.1289,7.1289,7.1289,7.1289,7.1289,7.1289,7.1289,7.1289,7.1289,7.1289,7.1289,7.1515,7.2935,7.3466,7.3737,7.5168,7.5676,7.5709,7.5709,7.5709,7.5709,7.5709,7.5709,7.5709,7.5709,7.5709,7.5709,7.5709,7.5876,7.6075,7.6098,7.6461,7.6771,7.6793,7.7009,7.7178,7.7201,7.7201,7.7201,7.7201,7.7201,7.7201,7.7201,7.7201,7.7201,7.7201,7.7201,7.7201,7.7201,7.7201,7.7201,7.7201,7.7201,7.7201,7.7201,7.7201,7.7201,7.7201,7.7645,7.785,7.785,7.7872,7.8308,7.9135,7.9155,7.9431,5.5179,5.5179,5.5179,5.5179,5.5179,5.5179,5.5179,5.6166,5.7094,5.7094,5.8171,5.9099,5.9099,5.9099,5.9099,5.9099,5.9099,5.9982,6.2468,6.3417,6.4802,6.7202,6.8129,6.8279,6.7567,6.8154,6.8428,6.8097,6.8781,6.9349,6.9774,6.9798,6.9798,6.9798,6.9798,6.9931,7.0236,7.0595,7.0893,7.1176,7.1244,7.1289,7.1289,7.1289,7.1289,7.1289,7.1289,7.1289,7.1289,7.1289,7.1289,7.1289,7.1289,7.1289,7.1289,7.1289,7.1289,7.1492,7.2969,7.35,7.3737,7.5202,7.5709,7.5709,7.5709,7.5709,7.5709,7.5709,7.5709,7.5709,7.5709,7.5828,7.5994,7.6158,7.6391,7.6553,7.6553,7.6656,7.6839,7.7009,7.7133,7.7201,7.7201,7.7201,7.7201,7.7201,7.7201,7.7201,7.7201,7.7201,7.7201,7.7201,7.7201,7.7201,7.7201,7.7201,7.7201,7.7201,7.7201,7.7201,7.7201,7.7512,7.7632,7.7632,7.8109,7.8194,7.7893,7.8455,7.8891,7.9216,7.9511,7.9743,5.5179,5.5179,5.5179,5.5179,5.5179,5.5239,5.5478,5.6346,5.7154,5.7393,5.8321,5.9099,5.9099,5.9099,5.9099,5.9099,5.9099,6.0086,6.2968,6.4015,6.5541,6.8339,6.9325,6.9502,6.8757,6.9382,6.9502,6.8732,6.9349,0.0,6.9798,6.9798,6.9846,6.9941,7.0011,7.0246,7.0608,7.0825,7.103,7.1289,7.1289,7.1289,7.1289,7.1289,7.1289,7.1289,7.1289,7.1289,7.1289,7.1289,7.1289,7.1289,7.1289,7.1289,7.1289,7.1289,7.1289,7.1492,7.2969,7.35,7.3737,7.5202,7.5709,7.5709,7.5709,7.5709,7.5709,7.5709,7.5781,7.5828,7.5828,7.6017,7.6309,7.653,7.6714,7.6816,7.6918,7.6941,7.6986,7.7178,7.7201,7.7201,7.7201,7.7201,7.7201,7.7201,7.7201,7.7201,7.7201,7.7201,7.7201,7.7201,7.7201,7.7201,7.7201,7.7201,7.7201,7.7201,7.7201,7.7268,7.7446,7.7719,7.7958,7.813,7.8574,7.8657,7.8364,7.8932,7.9276,7.9451,7.9763,7.988,0.0,0.0,0.0,5.5209,5.5209,5.5414,5.6072,5.6701,5.7304,5.7965,5.8623,5.9099,5.9099,5.9099,5.9099,5.9099,5.9099,6.0354,6.3923,6.4475,6.5792,6.9304,6.9765,6.9798,6.9798,6.9798,6.9798,6.9798,6.9822,6.9822,6.9822,6.9822,6.9941,7.02,7.0433,7.0631,7.0893,7.0916,7.103,7.1289,7.1289,7.1289,7.1289,7.1289,7.1289,7.1289,7.1289,7.1289,7.1289,7.1289,7.1289,7.1289,7.1289,7.1289,7.1289,7.1289,7.1289,7.1492,7.2969,7.35,7.3737,7.5202,7.5709,7.5709,7.5676,7.5676,7.5666,7.5642,7.5832,7.6054,7.6088,7.6275,7.653,7.6748,7.6793,7.6896,7.7156,7.7201,7.7201,7.7201,7.7201,7.7201,7.7201,7.7201,7.7201,7.7201,7.7201,7.7201,7.7201,7.7201,7.7201,7.7201,7.7201,7.7201,7.7201,7.7201,7.7201,7.7201,7.7223,7.7446,7.7906,7.795,7.8186,7.8665,7.9084,7.9307,7.9307,7.9271,7.9507,7.9935,7.9971,7.9971,5.5179,0.0,0.0,0.0,0.0,0.0,5.6705,5.7363,5.7876,5.8055,5.8623,5.9099,5.9099,5.9099,5.9099,5.9099,5.9099,5.9908,6.2238,6.3675,6.5324,6.7574,6.9004,6.9798,6.9798,6.9798,6.9798,0.0,6.9988,7.0082,7.0082,7.0246,7.033,7.0399,7.0664,7.0825,7.0893,7.1075,7.1222,7.1289,7.1289,7.1289,7.1289,7.1289,7.1289,7.1289,7.1289,7.1289,7.1289,7.1289,7.1289,7.1289,7.1289,7.1289,7.1289,7.1289,7.1289,7.1492,7.2969,7.35,7.3737,7.5202,7.5709,7.5608,7.5067,7.5049,7.5088,7.4568,7.4559,7.4867,7.5618,7.588,7.613,7.6906,7.7111,7.7133,7.7178,7.7201,7.7201,7.7201,7.7201,7.7201,7.7201,7.7201,7.7201,7.7201,7.7201,7.7201,7.7201,7.7201,7.7201,7.7201,7.7201,7.7201,7.7201,7.7201,7.7201,7.7201,7.7535,7.8041,7.875,7.9374,8.0019,8.0765,8.116,8.1382,8.1382,8.0828,8.0638,8.0791,8.1327,8.1577,0.0,0.0,0.0,0.0,0.0,0.0,5.7363,5.7816,5.8175,5.8444,5.883,5.9099,5.9099,5.9099,5.9099,5.9099,5.9099,5.974,6.1546,6.3369,6.516,6.6889,6.8696,6.9798,6.9798,6.9798,6.9846,6.9964,7.0106,7.0223,7.0316,7.0549,7.0687,7.0687,7.0916,7.1086,7.1086,7.1222,7.1289,7.1289,7.1289,7.1289,7.1289,7.1289,7.1289,7.1289,7.1289,7.1289,7.1289,7.1289,7.1289,7.1289,7.1289,7.1289,7.1289,7.1289,7.1289,7.1492,7.2969,7.35,7.3737,7.5202,7.5709,7.5632,7.532,7.5132,7.4932,7.4571,7.4639,7.4989,7.5681,7.6126,7.6458,7.7075,7.7201,7.7201,7.7201,7.7201,7.7201,7.7201,7.7201,7.7201,7.7201,7.7201,7.7201,7.7201,7.7201,7.7201,7.7201,7.7201,7.7201,7.7201,7.7201,7.7201,7.7201,7.7201,7.7428,7.7962,7.8249,7.8925,8.0104,8.0625,8.121,8.1856,8.2099,8.2362,8.2683,8.1933,8.1577,8.1577,8.2005,8.2183,0.0,0.0,0.0,0.0,0.0,0.0,5.8055,5.8205,5.8384,5.8979,5.9099,5.9099,5.9099,5.9099,5.9099,5.9099,5.9099,5.9657,6.1269,6.3069,6.4856,6.6587,6.8395,6.958,6.9798,6.9798,6.9893,7.0129,7.02,7.034,7.0561,7.0825,7.0939,7.0939,7.1176,7.1289,7.1289,7.1289,7.1289,7.1289,7.1289,7.1289,7.1289,7.1289,7.1289,7.1289,7.1289,7.1289,7.1289,7.1289,7.1289,7.1289,7.1289,7.1289,7.1289,7.1289,7.1289,7.1492,7.2969,7.35,7.3737,7.5202,7.5733,7.5747,7.5949,7.5499,7.4979,7.5106,7.532,7.5578,7.5984,7.658,7.7097,7.7166,7.7201,7.7201,7.7201,7.7201,7.7201,7.7201,7.7201,7.7201,7.7201,7.7201,7.7201,7.7201,7.7201,7.7201,7.7201,7.7201,7.7201,7.7201,7.7201,7.7223,7.729,7.7359,7.7928,7.9095,7.9321,8.0096,8.1674,8.1771,8.2013,8.2469,8.2469,8.2826,8.3539,8.2718,8.2397,8.2469,8.2469,8.2469,0.0,0.0,0.0,0.0,0.0,0.0,5.877,5.8919,5.8949,5.9069,5.9099,5.9099,5.9099,5.9099,5.9099,5.9099,5.9099,5.921,5.9573,6.1186,6.3012,6.4805,6.6562,6.8209,6.9661,6.9798,6.9822,6.9869,7.0246,7.0664,7.1131,7.1199,7.1222,7.1222,7.1267,7.1289,7.1289,7.1289,7.1289,7.1289,7.1289,7.1289,7.1289,7.1289,7.1289,7.1289,7.1289,7.1289,7.1289,7.1289,7.1289,7.1289,7.1289,7.1289,7.1289,7.1289,7.1289,7.1492,7.2969,7.35,7.3737,7.5202,7.5852,7.5916,7.5374,7.4969,7.4611,7.42,7.4136,7.449,7.5753,7.6201,7.6442,7.7063,7.7201,7.7201,7.7201,7.7201,7.7201,7.7201,7.7201,7.7201,7.7201,7.7201,7.7201,7.7201,7.7201,7.7201,7.7201,7.7201,7.7201,7.7201,7.7201,7.7357,7.7719,7.8376,7.8955,7.957,8.0528,8.1563,8.253,8.2897,8.3387,8.4146,8.4125,8.4217,8.436,8.3539,8.3504,8.4125,8.4125,8.4125,0.0,0.0,0.0,5.853,0.0,0.0,0.0,5.9099,5.9099,5.9099,5.9099,5.9099,5.9099,5.9099,5.9099,5.9099,5.9099,5.9099,5.9099,6.0658,6.2279,6.348,6.5713,6.7598,6.8838,6.9598,7.0106,7.034,7.0687,7.1007,7.1289,7.1289,7.1289,7.1289,7.1289,7.1289,7.1289,7.1289,7.1289,7.1289,7.1289,7.1289,7.1289,7.1289,7.1289,7.1289,7.1289,7.1289,7.1289,7.1289,7.1289,7.1289,7.1289,7.1289,7.1289,7.1289,7.1289,7.1492,7.2969,7.35,7.3794,7.5378,7.597,7.6077,7.5948,7.5617,7.5138,7.4098,7.4326,7.5119,7.5891,7.6373,7.6753,7.7097,7.7201,7.7201,7.7201,7.7201,7.7201,7.7201,7.7201,7.7201,7.7201,7.7201,7.7201,7.7201,7.7201,7.7201,7.7201,7.7201,7.729,7.75,7.7557,7.7893,7.874,7.9167,7.9942,8.1162,8.1838,8.2649,8.3638,8.3901,8.4182,8.4589,8.4589,8.4589,8.4589,8.4217,8.4217,8.4589,8.4589,8.4589,0.0,0.0,0.0,0.0,0.0,5.9099,0.0,0.0,0.0,5.9099,5.9099,5.9099,5.9099,0.0,0.0,5.877,0.0,0.0,0.0,6.032,0.0,6.2694,6.4974,6.6896,6.7982,6.9373,7.0363,7.0802,7.1052,7.1244,7.1289,7.1289,7.1289,7.1289,7.1289,7.1289,7.1289,7.1289,7.1289,7.1289,7.1289,7.1289,7.1289,7.1289,7.1289,7.1289,7.1289,7.1289,7.1289,7.1289,7.1289,7.1289,7.1289,7.1289,7.1289,7.1289,7.1289,7.1515,7.3072,7.3569,7.3863,7.5589,7.6216,7.6264,7.6382,7.6274,7.5787,7.4395,7.5016,7.6132,7.627,7.6753,7.7201,7.7201,7.7201,7.7201,7.7201,7.7201,7.7201,7.7201,7.7201,7.7201,7.7201,7.7201,7.7201,7.7201,7.7201,7.7246,7.7335,7.7335,7.75,7.798,7.8162,7.867,7.9733,8.0113,8.1042,8.2812,8.3081,8.3582,8.4554,8.4589,8.4589,8.4589,8.4589,8.4589,8.4589,8.4589,8.4589,8.4589,8.4589,8.4589,0.0,0.0,0.0,0.0,5.9288,0.0,0.0,0.0,5.9099,5.9099,0.0,0.0,0.0,0.0,0.0,0.0,0.0,0.0,5.7483,5.9054,6.0926,6.2587,6.3587,6.5229,6.7831,6.9373,7.0293,7.0515,7.0802,7.103,7.1289,7.1289,7.1289,7.1289,7.1289,7.1289,7.1289,7.1289,7.1289,7.1289,7.1289,7.1289,7.1289,7.1289,7.1289,7.1289,7.1289,7.1289,7.1289,7.1289,7.1289,7.1289,7.1289,7.1289,7.1289,7.1289,7.1289,7.1537,7.3255,7.3832,7.415,7.5901,7.6576,7.6508,7.5458,7.558,7.5891,7.5029,7.5408,7.6235,7.6891,7.7132,7.7201,7.7201,7.7201,7.7201,7.7201,7.7201,7.7201,7.7201,7.7201,7.7201,7.7201,7.7201,7.7201,7.7201,7.7201,7.7357,7.7763,7.7807,7.8001,7.8469,7.9108,7.9719,8.0261,8.1632,8.2705,8.328,8.4013,8.4441,8.4589,8.4589,8.4589,8.4589,8.4589,8.4589,8.4589,8.4589,8.4589,8.4589,8.4589,8.4589,0.0,0.0,0.0,0.0,0.0,0.0,0.0,0.0,5.9099,0.0,0.0,0.0,0.0,0.0,0.0,0.0,5.874,0.0,0.0,0.0,6.0969,0.0,0.0,0.0,6.8486,6.9195,6.9874,7.0893,7.1086,7.1199,7.1289,7.1289,7.1289,7.1289,7.1289,7.1289,7.1289,7.1289,7.1289,7.1289,7.1289,7.1289,7.1289,7.1289,7.1289,7.1289,7.1289,7.1289,7.1289,7.1289,7.1289,7.1289,7.1289,7.1289,7.1289,7.1289,7.1345,7.1637,7.2813,7.3595,7.4366,7.612,7.6828,7.6779,7.5317,7.5753,7.6477,7.527,7.5787,7.6822,7.7132,7.7201,7.7201,7.7201,7.7201,7.7201,7.7201,7.7201,7.7201,7.7201,7.7201,7.729,7.7579,7.7379,7.729,7.7579,7.7623,7.7763,7.8237,7.83,7.8469,7.8891,7.9637,8.0494,8.1383,8.2491,8.3427,8.4054,8.4411,8.4589,8.4589,8.4589,8.4589,8.4589,8.4589,8.4589,8.4589,8.4589,8.4589,8.4589,8.4589,8.4589,5.9369,0.0,0.0,0.0,0.0,0.0,0.0,0.0,0.0,0.0,0.0,0.0,0.0,0.0,0.0,0.0,0.0,5.9129,0.0,6.0326,0.0,0.0,0.0,0.0,0.0,6.9163,6.9912,7.1098,7.1267,7.1289,7.1289,7.1289,7.1289,7.1289,7.1289,7.1289,7.1289,7.1289,7.1289,7.1289,7.1289,7.1289,7.1289,7.1289,7.1289,7.1289,7.1289,7.1289,7.1289,7.1289,7.1289,7.1289,7.1289,7.1334,7.1367,7.1367,7.1479,7.1724,7.2618,7.3728,7.4943,7.6427,7.7031,7.6959,7.5649,7.6166,7.6925,7.5615,7.6166,7.7201,7.7201,7.7201,7.7201,7.7201,7.7201,7.7201,7.7201,7.7201,7.7201,7.7201,7.7313,7.7512,7.7828,7.7645,7.7557,7.8001,7.8087,7.8258,7.872,7.8937,7.9264,7.9691,8.0618,8.1556,8.2449,8.3254,8.3967,8.4554,8.4589,8.4589,8.4589,8.4589,8.4589,8.4589,8.4589,8.4589,8.4589,8.4589,8.4589,8.4589,8.4589,8.4589,0.0,0.0,0.0,5.9556,0.0,0.0,0.0,0.0,5.9099,0.0,0.0,0.0,0.0,0.0,0.0,0.0,0.0,0.0,0.0,0.0,0.0,0.0,0.0,0.0,0.0,6.9484,7.087,7.0916,7.1154,7.1289,7.1289,7.1289,7.1289,7.1289,7.1289,7.1289,7.1289,7.1289,7.1289,7.1289,7.1289,7.1289,7.1289,7.1289,7.1289,7.1289,7.1289,7.1289,7.1289,7.1289,7.1289,7.1289,7.1289,7.1412,7.16,7.16,7.16,7.1768,7.3049,7.4591,7.6179,7.6959,7.7201,7.7063,7.627,7.658,7.7028,7.627,7.6615,7.7201,7.7201,7.7201,7.7201,7.7201,7.7201,7.7201,7.7201,7.7201,7.7201,7.7201,7.7579,7.7872,7.7893,7.7872,7.8023,7.849,7.8574,7.872,7.9135,7.9848,8.0506,8.0982,8.2377,8.3325,8.3361,8.411,8.4554,8.4589,8.4589,8.4589,8.4589,8.4589,8.4589,8.4589,8.4589,8.4589,8.4589,8.4589,8.4589,8.4589,8.4589,8.4589,0.0,0.0,5.9906,5.9583,0.0,0.0,0.0,0.0,0.0,0.0,0.0,0.0,0.0,0.0,0.0,0.0,0.0,0.0,0.0,0.0,0.0,0.0,0.0,0.0,0.0,0.0,6.9403,7.103,7.1244,7.1289,7.1289,7.1289,7.1289,7.1289,7.1289,7.1289,7.1289,7.1289,7.1289,7.1289,7.1289,7.1289,7.1289,7.1289,7.1289,7.1289,7.1289,7.1289,7.1289,7.1289,7.1401,7.1501,7.1501,7.1656,7.1854,7.1666,7.1798,7.2308,7.3881,7.4825,7.5511,7.6787,7.7201,7.7063,7.6304,7.6615,7.7063,7.6304,7.6615,7.7201,7.7201,7.7201,7.7201,7.7201,7.7201,7.7201,7.7201,7.7446,7.7654,7.7654,7.8023,7.8448,7.8705,7.9204,7.9443,7.9043,7.8993,7.9368,8.0321,8.0681,8.1097,8.1771,8.2754,8.3417,8.3417,8.4146,8.4589,8.4589,8.4589,8.4589,8.4589,8.4589,8.4589,8.4589,8.4589,8.4589,8.4589,8.4589,8.4589,8.4589,8.4589,8.4589,6.0871,6.0692,0.0,6.0106,6.0022,0.0,5.9675,0.0,0.0,0.0,0.0,0.0,0.0,0.0,0.0,0.0,0.0,0.0,0.0,6.1427,0.0,0.0,0.0,0.0,0.0,6.8239,6.9427,7.0654,7.1075,7.1289,0.0,7.1289,7.1289,7.1289,7.1289,7.1289,7.1289,7.1289,7.1289,7.1289,7.1289,7.1289,7.1289,7.1289,7.1289,7.1289,7.1289,7.1289,7.1312,7.1401,7.1501,7.16,7.1688,7.1898,7.2094,7.1907,7.2081,7.2665,7.433,7.4925,7.5167,7.6718,7.7201,7.7097,7.6649,7.6822,7.7097,7.6615,7.6822,7.7201,7.7201,7.7201,7.7201,7.7201,7.7201,7.7246,7.7424,7.771,7.7937,7.8109,7.8722,7.9329,7.958,8.0415,8.0785,8.0004,8.011,8.0566,8.1394,8.1719,8.2112,8.2576,8.3361,8.3825,8.3825,8.4289,8.4589,8.4589,8.4589,8.4589,8.4589,8.4589,8.4589,8.4589,8.4589,8.4589,8.4589,8.4589,8.4589,8.4589,8.4692,8.4712]}]]